     2.11           OBSERVATION DATA    G (GPS)             RINEX VERSION / TYPE
teqc 2010Oct21 OPUS Account 20111028 20:32:40UTC            PGM / RUN BY / DATE
Z 1527                                                      MARKER NAME
3084                                                        MARKER NUMBER
CSMIDDLETON NGS                                             OBSERVER / AGENCY
4619K01307 TRIMBLE NETR5 4.41                               REC # / TYPE / VERS
12668873 TRM41249.00 NONE                                   ANT # / TYPE
  -701391.4194 -5594950.9511  2970775.1658                  APPROX POSITION XYZ
        1.9990        0.0000        0.0000                  ANTENNA: DELTA H/E/N
     1     1                                                WAVELENGTH FACT L1/2
     5    L1    L2    C1    P1    P2                        # / TYPES OF OBSERV
    15                                                      LEAP SECONDS
  2011     8    27     0     0    0.0000000     GPS         TIME OF FIRST OBS
                                                            END OF HEADER
 11  8 27  0  0  0.0000000  0  9G04G10G12G17G05G25G09G02G30
 115315684.80318  89856523.02655  21943826.281                    21943836.785
 109736873.77118  85509378.71056  20882205.719                    20882216.102
 112040214.43418  87304049.91517  21320522.102                    21320531.961
 122550397.01217  95493862.00116  23320559.383                    23320571.664
 113916458.85218  88766152.28017  21677556.102                    21677567.543
 125585856.38217  97859166.12216  23898199.672                    23898213.066
 125681605.92617  97933769.37253  23916423.148                    23916438.332
 108569769.87818  84599964.94156  20660111.125                    20660119.168
 126423127.61316  98511594.17653  24057524.859                    24057536.801
 11  8 27  0  0 30.0000000  0  9G04G10G12G17G05G25G09G02G30
 115393754.702 8  89917356.70645  21958682.094                    21958692.980
 109749071.274 8  85518883.27846  20884527.000                    20884537.344
 111986040.639 8  87261836.595 7  21310213.086                    21310222.508
 122604461.145 7  95535989.777 6  23330847.516                    23330859.645
 113832459.714 7  88700698.511 7  21661571.531                    21661582.699
 125489165.405 7  97783822.565 6  23879799.680                    23879813.277
 125760816.693 6  97995491.90444  23931496.164                    23931511.965
 108573681.574 8  84603013.04046  20660855.703                    20660863.125
 126323569.075 6  98434016.20543  24038580.055                    24038591.352
 11  8 27  0  1  0.0000000  0  9G04G10G12G17G05G25G09G02G30
 115471923.904 7  89978267.75345  21973557.406                    21973568.578
 109761897.762 8  85528877.96646  20886967.656                    20886978.340
 111932327.988 7  87219982.611 7  21299992.039                    21300001.543
 122658693.953 7  95578249.025 6  23341167.820                    23341180.238
 113748815.512 8  88635521.331 7  21645654.234                    21645665.715
 125392687.636 7  97708645.137 6  23861440.516                    23861454.082
 125840138.016 6  98057300.55344  23946590.656                    23946606.855
 108577855.880 8  84606265.76546  20661650.031                    20661657.891
 126224262.513 6  98356634.53943  24019681.563                    24019693.645
 11  8 27  0  1 30.0000000  0  9G04G10G12G17G05G25G09G02G30
 115550191.008 7  90039255.07745  21988451.000                    21988461.797
 109775353.081 8  85539362.66246  20889527.969                    20889538.566
 111879078.760 8  87178489.742 7  21289858.961                    21289868.613
 122713096.167 7  95620640.263 6  23351520.320                    23351532.652
 113665529.279 8  88570623.072 7  21629805.469                    21629816.586
 125296425.979 7  97633636.103 6  23843122.508                    23843135.953
 125919566.501 7  98119192.71343  23961706.289                    23961722.121
 108582291.869 8  84609722.39846  20662494.133                    20662501.984
 126125210.896 6  98279451.52043  24000833.133                    24000844.410
 11  8 27  0  2  0.0000000  0  9G04G10G12G17G05G25G09G02G30
 115628554.021 7  90100317.15545  22003362.703                    22003373.727
 109789436.855 8  85550337.05146  20892208.039                    20892218.652
 111826294.948 7  87137359.528 7  21279814.531                    21279824.383
 122767667.892 7  95663163.592 6  23361904.688                    23361917.832
 113582603.335 7  88506005.562 7  21614025.125                    21614036.520
 125200382.891 7  97558797.388 6  23824846.375                    23824859.938
 125999099.016 7  98181165.93944  23976840.641                    23976856.090
 108586988.082 8  84613381.80146  20663387.906                    20663395.309
 126026416.856 6  98202469.20643  23982033.336                    23982044.820
 11  8 27  0  2 30.0000000  0  9G04G10G12G17G05G25G09G02G30
 115707011.193 7  90161452.58745  22018292.797                    22018303.469
 109804148.716 8  85561800.86246  20895007.797                    20895018.656
 111773979.153 8  87096594.004 7  21269858.891                    21269868.563
 122822410.096 7  95705819.798 6  23372321.570                    23372333.594
 113500040.748 8  88441671.189 7  21598313.773                    21598325.141
 125104561.249 7  97484131.230 7  23806611.438                    23806625.559
 126078732.193 6  98243217.60643  23991994.453                    23992009.668
 108591943.810 8  84617243.42246  20664330.859                    20664337.922
 125927883.466 6  98125690.00643  23963282.313                    23963294.578
 11  8 27  0  3  0.0000000  0  9G04G10G12G17G05G25G09G02G30
 115785560.724 7  90222659.99945  22033240.297                    22033251.656
 109819487.896 8  85573753.48946  20897926.844                    20897937.441
 111722132.988 8  87056194.438 7  21259993.039                    21260002.895
 122877323.023 7  95748609.013 6  23382771.734                    23382783.090
 113417843.830 8  88377621.749 7  21582672.547                    21582683.316
 125008963.457 7  97409639.504 7  23788419.930                    23788433.520
 126158462.499 6  98305344.95643  24007166.336                    24007181.855
 108597157.235 8  84621305.84446  20665323.094                    20665330.121
 125829613.135 6  98049115.77343  23944582.219                    23944594.762
 11  8 27  0  3 30.0000000  0  9G04G10G12G17G05G25G09G02G30
 115864200.927 8  90283938.06245  22048204.945                    22048216.137
 109835454.329 8  85586194.89346  20900965.234                    20900975.461
 111670758.977 8  87016162.779 7  21250216.969                    21250226.590
 122932407.185 7  95791531.667 6  23393253.328                    23393265.781
 113336015.604 8  88313859.595 7  21567101.242                    21567112.281
 124913592.408 7  97335324.470 7  23770271.531                    23770284.957
 126238286.827 6  98367545.56044  24022356.406                    24022372.469
 108602627.461 8  84625568.37546  20666363.938                    20666371.668
 125731609.096 6  97972749.05143  23925932.977                    23925944.906
 11  8 27  0  4  0.0000000  0  9G04G10G12G17G05G25G09G02G30
 115942929.747 7  90345285.17445  22063186.750                    22063197.848
 109852047.192 8  85599124.41146  20904122.469                    20904132.680
 111619858.892 8  86976500.405 7  21240531.250                    21240540.305
 122987663.309 7  95834588.288 6  23403768.750                    23403780.973
 113254558.542 8  88250386.667 7  21551600.016                    21551611.191
 124818450.489 7  97261187.975 7  23752166.102                    23752180.207
 126318201.615 6  98429816.63344  24037564.047                    24037580.086
 108608353.058 8  84630029.88946  20667453.688                    20667460.809
 125633873.873 6  97896591.76643  23907334.070                    23907346.758
 11  8 27  0  4 30.0000000  0  9G04G10G12G17G05G25G09G02G30
 116021745.511 7  90406700.02845  22078184.750                    22078195.609
 109869266.214 8  85612541.83846  20907399.141                    20907409.566
 111569434.837 8  86937208.959 7  21230935.531                    21230944.688
 123043091.611 7  95877779.078 6  23414316.133                    23414328.449
 113173475.744 8  88187205.370 7  21536169.914                    21536181.809
 124723540.647 7  97187232.321 6  23734105.555                    23734119.504
 126398203.935 6  98492155.93944  24052788.719                    24052803.961
 108614332.913 8  84634689.53446  20668591.188                    20668598.938
 125536410.573 6  97820646.39243  23888787.367                    23888799.902
 11  8 27  0  5  0.0000000  0  9G04G10G12G17G05G25G09G02G30
 116100646.776 7  90468181.49445  22093199.477                    22093210.215
 109887110.801 8  85626446.72546  20910795.016                    20910805.180
 111519488.846 8  86898290.031 7  21221431.234                    21221440.371
 123098692.759 6  95921104.567 6  23424896.023                    23424909.004
 113092769.347 8  88124317.372 7  21520812.383                    21520823.621
 124628865.541 7  97113459.574 7  23716089.398                    23716103.316
 126478290.431 6  98554560.84844  24068028.672                    24068044.648
 108620566.165 8  84639546.62646  20669777.523                    20669784.727
 125439222.024 6  97744915.08643  23870293.477                    23870305.430
 11  8 27  0  5 30.0000000  0  9G04G10G12G17G05G25G09G02G30
 116179631.615 7  90529728.09945  22108229.617                    22108240.629
 109905580.139 8  85640838.42746  20914309.250                    20914319.621
 111470023.030 8  86859745.267 7  21212018.008                    21212027.117
 123154467.238 7  95964565.129 6  23435510.500                    23435523.531
 113012442.080 8  88061724.798 7  21505526.266                    21505537.906
 124534427.688 7  97039871.704 7  23698118.047                    23698132.480
 126558457.432 6  98617028.47144  24083284.023                    24083299.777
 108627051.182 8  84644599.91646  20671011.375                    20671018.336
 125342310.880 6  97669399.94543  23851851.859                    23851863.871
 11  8 27  0  6  0.0000000  0  9G04G10G12G17G05G25G09G02G30
 116258698.099 8  90591338.32245  22123275.883                    22123286.164
 109924673.341 8  85655716.25446  20917942.977                    20917953.383
 111421039.198 8  86821576.072 7  21202696.438                    21202705.988
 123210415.319 7  96008160.980 6  23446156.938                    23446169.590
 112932496.465 8  87999429.620 7  21490313.070                    21490324.508
 124440229.535 7  96966470.615 7  23680193.031                    23680207.113
 126638701.714 6  98679556.32743  24098553.555                    24098569.719
 108633786.622 8  84649848.32846  20672293.375                    20672300.820
 125245679.794 6  97594103.05743  23833463.461                    23833475.410
 11  8 27  0  6 30.0000000  0  9G04G10G12G17G05G25G09G02G30
 116337844.630 7  90653010.91945  22138336.969                    22138347.809
 109944389.998 8  85671079.89846  20921694.672                    20921704.934
 111372539.698 8  86783784.293 7  21193467.258                    21193477.047
 123266537.664 7  96051892.606 6  23456836.867                    23456849.727
 112852935.482 8  87937434.145 7  21475173.477                    21475184.223
 124346274.115 7  96893258.672 7  23662313.430                    23662327.926
 126719020.182 7  98742142.01344  24113837.844                    24113854.316
 108640771.605 8  84655291.19346  20673622.250                    20673629.852
 125149331.926 7  97519026.87243  23815129.031                    23815141.289
 11  8 27  0  7  0.0000000  0  9G04G10G12G17G05G25G09G02G30
 116417069.723 7  90714744.73645  22153412.852                    22153424.133
 109964729.654 8  85686928.98846  20925565.281                    20925575.211
 111324526.596 8  86746371.515 7  21184330.953                    21184340.707
 123322834.937 7  96095760.532 7  23467550.430                    23467563.090
 112773761.558 8  87875740.281 7  21460106.500                    21460117.918
 124252564.046 7  96820237.911 6  23644481.305                    23644494.836
 126799409.518 7  98804782.90544  24129135.961                    24129151.477
 108648005.186 8  84660927.77146  20674999.219                    20675006.320
 125053269.959 7  97444173.46543  23796849.484                    23796860.598
 11  8 27  0  7 30.0000000  0  9G04G10G12G17G05G25G09G02G30
 116496371.591 7  90776538.38045  22168503.227                    22168514.410
 109985691.637 8  85703263.01046  20929554.016                    20929564.539
 111277001.668 8  86709339.146 7  21175287.188                    21175296.934
 123379307.359 7  96139764.944 6  23478296.766                    23478309.711
 112694977.282 8  87814350.033 7  21445114.359                    21445125.559
 124159102.007 7  96747410.420 6  23626696.383                    23626710.004
 126879866.424 6  98867476.44144  24144446.852                    24144462.445
 108655485.631 8  84666756.71146  20676422.680                    20676429.910
 124957496.810 6  97369545.10943  23778624.109                    23778635.363
 11  8 27  0  8  0.0000000  0  9G04G10G12G17G05G25G09G02G30
 116575748.541 7  90838390.50845  22183608.656                    22183619.094
 110007275.309 8  85720081.46846  20933661.719                    20933671.801
 111229966.995 8  86672688.784 7  21166336.594                    21166346.363
 123435955.555 7  96183906.347 6  23489077.266                    23489089.184
 112616585.350 8  87753265.502 7  21430197.141                    21430207.840
 124065890.717 7  96674778.320 6  23608958.477                    23608972.125
 126960387.854 6  98930220.21443  24159769.008                    24159785.656
 108663212.301 8  84672777.52746  20677892.648                    20677900.332
 124862015.239 6  97295143.98543  23760454.320                    23760466.012
 11  8 27  0  8 30.0000000  0  9G04G10G12G17G05G25G09G02G30
 116655198.820 7  90900299.79245  22198727.234                    22198738.008
 110029479.961 8  85737383.81446  20937886.883                    20937897.434
 111183424.496 8  86636421.942 7  21157479.820                    21157489.234
 123492779.740 7  96228184.891 6  23499889.906                    23499902.699
 112538588.356 8  87692488.722 7  21415354.523                    21415366.012
 123972932.792 7  96602343.653 6  23591269.578                    23591282.953
 127040970.600 6  98993011.75943  24175103.539                    24175119.773
 108671183.676 8  84678989.00546  20679409.477                    20679416.520
 124766828.105 6  97220972.24343  23742340.875                    23742352.637
 11  8 27  0  9  0.0000000  0  9G04G10G12G17G05G25G09G02G30
 116734720.858 7  90962264.99145  22213859.609                    22213870.902
 110052304.682 8  85755169.32646  20942230.078                    20942240.520
 111137375.795 8  86600539.867 7  21148717.375                    21148726.637
 123549780.652 7  96272601.144 6  23510736.992                    23510749.078
 112460988.855 8  87632021.682 7  21400587.570                    21400598.984
 123880230.822 7  96530108.438 6  23573628.578                    23573642.258
 127121611.093 6  99055848.30344  24190449.453                    24190465.641
 108679398.530 8  84685390.20846  20680972.711                    20680980.473
 124671938.114 6  97147032.03843  23724283.570                    23724295.039
 11  8 27  0  9 30.0000000  0  9G04G10G12G17G05G25G09G02G30
 116814312.808 7  91024284.67345  22229005.766                    22229016.883
 110075748.271 8  85773437.08746  20946691.242                    20946701.797
 111091822.818 8  86565044.093 7  21140048.656                    21140058.027
 123606958.470 7  96317155.209 6  23521617.852                    23521630.098
 112383789.377 8  87571866.334 7  21385897.219                    21385907.949
 123787787.591 7  96458074.835 6  23556037.195                    23556050.402
 127202306.184 6  99118727.40243  24205805.266                    24205820.953
 108687855.639 8  84691980.18946  20682581.977                    20682589.371
 124577348.173 6  97073325.61443  23706284.000                    23706295.496
 11  8 27  0 10  0.0000000  0  9G04G10G12G17G05G25G09G02G30
 116893973.317 7  91086357.78645  22244164.492                    22244175.625
 110099810.477 8  85792186.87746  20951270.328                    20951280.371
 111046768.014 8  86529936.493 7  21131474.734                    21131484.555
 123664313.921 6  96361847.744 6  23532532.094                    23532544.059
 112306992.643 8  87512024.817 7  21371283.211                    21371294.383
 123695605.884 7  96386245.021 6  23538495.500                    23538509.113
 127283052.656 7  99181646.56943  24221170.727                    24221186.938
 108696553.855 8  84698758.04546  20684237.250                    20684244.891
 124483061.194 6  96999855.25543  23688341.922                    23688353.406
 11  8 27  0 10 30.0000000  0  9G04G10G12G17G05G25G09G02G30
 116973700.483 7  91148482.82045  22259335.938                    22259347.320
 110124489.774 8  85811417.52546  20955966.391                    20955976.801
 111002212.933 8  86495218.284 7  21122996.188                    21123006.113
 123721847.257 7  96406678.865 6  23543479.945                    23543491.902
 112230601.135 8  87452499.063 7  21356746.266                    21356756.883
 123603688.119 7  96314620.886 7  23521003.695                    23521017.727
 127363847.241 7  99244603.22443  24236545.617                    24236562.059
 108705491.893 8  84705722.76746  20685938.094                    20685945.461
 124389079.707 6  96926622.94743  23670457.469                    23670468.902
 11  8 27  0 11  0.0000000  0  9G04G10G12G17G05G25G09G02G30
 117053492.781 7  91210658.61645  22274520.156                    22274531.277
 110149785.833 8  85831128.76446  20960780.555                    20960790.520
 110958159.696 8  86460891.122 7  21114613.539                    21114623.109
 123779559.207 6  96451649.190 6  23554461.805                    23554474.242
 112154617.060 8  87393290.797 7  21342287.148                    21342297.746
 123512037.199 7  96243204.670 6  23503563.344                    23503576.777
 127444686.638 7  99307594.77943  24251929.484                    24251945.441
 108714668.674 8  84712873.52846  20687684.617                    20687691.813
 124295406.832 6  96853631.09143  23652631.883                    23652643.691
 11  8 27  0 11 30.0000000  0  9G04G10G12G17G05G25G09G02G30
 117133348.402 7  91272883.75945  22289716.328                    22289727.090
 110175697.251 8  85851319.50946  20965710.875                    20965721.219
 110914609.672 8  86426956.072 7  21106325.922                    21106335.508
 123837450.238 6  96496759.040 6  23565478.633                    23565490.828
 112079043.036 8  87334402.047 7  21327905.867                    21327916.602
 123420655.455 7  96171998.216 6  23486173.648                    23486187.320
 127525567.546 7  99370618.67643  24267320.383                    24267336.520
 108724082.703 8  84720209.14746  20689476.148                    20689483.074
 124202045.059 6  96780881.69743  23634865.883                    23634877.734
 11  8 27  0 12  0.0000000  0  9G04G10G12G17G05G25G09G02G30
 117213266.338 7  91335157.45945  22304924.266                    22304935.652
 110202223.743 7  85871989.54746  20970758.500                    20970768.996
 110871565.239 8  86393414.993 7  21098134.977                    21098144.441
 123895520.305 6  96542008.417 6  23576528.938                    23576541.047
 112003882.022 8  87275835.122 7  21313602.938                    21313613.504
 123329546.118 7  96101004.002 6  23468836.117                    23468849.422
 127606487.058 6  99433672.61543  24282718.547                    24282735.430
 108733733.178 8  84727729.00946  20691312.328                    20691319.340
 124108997.673 7  96708377.27143  23617159.883                    23617171.793
 11  8 27  0 12 30.0000000  0  9G04G10G12G17G05G25G09G02G30
 117293244.767 7  91397478.28845  22320143.266                    22320154.500
 110229363.983 8  85893137.81646  20975923.258                    20975933.316
 110829028.196 8  86360269.273 7  21090040.273                    21090049.652
 123953770.208 7  96587397.902 6  23587613.313                    23587625.887
 111929136.225 8  87217591.738 7  21299379.086                    21299390.070
 123238711.680 7  96030223.985 6  23451550.969                    23451564.230
 127687441.870 6  99496754.05643  24298123.711                    24298139.949
 108743619.091 8  84735432.33646  20693193.844                    20693201.160
 124016267.391 6  96636119.96243  23599513.609                    23599525.285
 11  8 27  0 13  0.0000000  0  9G04G10G12G17G05G25G09G02G30
 117373282.035 7  91459844.97345  22335373.742                    22335385.559
 110257117.077 8  85914763.63146  20981204.609                    20981215.086
 110787000.258 8  86327520.258 7  21082042.516                    21082052.059
 124012200.169 7  96632927.714 6  23598732.094                    23598744.750
 111854808.237 8  87159673.925 7  21285235.156                    21285246.086
 123148154.760 7  95959660.207 6  23434318.461                    23434331.801
 127768428.732 6  99559860.44743  24313535.969                    24313551.715
 108753738.742 8  84743317.79346  20695119.102                    20695126.523
 123923856.884 6  96564111.82043  23581928.445                    23581940.012
 11  8 27  0 13 30.0000000  0  9G04G10G12G17G05G25G09G02G30
 117453376.469 7  91522256.19045  22350615.547                    22350626.453
 110285481.912 8  85936866.12446  20986602.109                    20986612.477
 110745483.034 8  86295169.202 7  21074142.156                    21074151.781
 124070810.674 6  96678598.205 6  23609884.656                    23609898.359
 111780900.367 8  87102083.474 7  21271170.633                    21271181.660
 123057877.933 7  95889314.703 6  23417139.102                    23417152.582
 127849444.394 6  99622989.30543  24328952.680                    24328969.520
 108764090.991 8  84751384.49246  20697089.070                    20697096.523
 123831768.900 6  96492355.03144  23564404.680                    23564416.328
 11  8 27  0 14  0.0000000  0  9G04G10G12G17G05G25G09G02G30
 117533526.208 7  91584710.49245  22365867.680                    22365878.668
 110314457.362 8  85959444.42346  20992116.117                    20992126.266
 110704478.292 8  86263217.478 7  21066339.406                    21066348.535
 124129602.129 7  96724409.687 6  23621073.500                    23621086.258
 111707414.839 8  87044822.113 7  21257186.820                    21257197.672
 122967883.772 7  95819189.446 6  23400013.883                    23400027.301
 127930485.761 6  99686138.19443  24344374.625                    24344390.820
 108774674.582 8  84759631.45446  20699103.211                    20699110.469
 123740006.099 6  96420851.64544  23546942.781                    23546954.113
 11  8 27  0 14 30.0000000  0  9G04G10G12G17G05G25G09G02G30
 117613730.030 7  91647206.95545  22381129.633                    22381141.203
 110344042.141 8  85982497.53246  20997745.563                    20997755.742
 110663987.433 8  86231666.178 7  21058633.797                    21058643.250
 124188574.494 7  96770362.129 6  23632295.773                    23632309.020
 111634354.688 8  86987892.227 7  21243283.695                    21243294.699
 122878174.918 7  95749286.509 6  23382942.625                    23382956.328
 128011549.518 6  99749304.52643  24359800.148                    24359817.602
 108785487.881 8  84768057.40146  20701160.508                    20701168.164
 123648571.193 6  96349603.77344  23529542.992                    23529554.691
 11  8 27  0 15  0.0000000  0  9G04G10G12G17G05G25G09G02G30
 117693986.401 7  91709744.36345  22396402.516                    22396413.039
 110374235.650 8  86006024.96946  21003491.602                    21003501.434
 110624012.706 8  86200517.056 7  21051026.945                    21051036.457
 124247728.825 6  96816456.351 6  23643552.375                    23643564.867
 111561721.484 8  86931295.029 7  21229462.039                    21229472.641
 122788754.287 7  95679608.185 7  23365926.391                    23365940.328
 128092632.722 6  99812486.03243  24375230.586                    24375247.773
 108796530.594 8  84776662.12046  20703262.039                    20703269.668
 123557467.267 6  96278613.80543  23512206.633                    23512218.340
 11  8 27  0 15 30.0000000  0  9G04G10G12G17G05G25G09G02G30
 117774293.676 7  91772321.42845  22411684.164                    22411695.102
 110405035.965 8  86030025.24446  21009352.133                    21009362.633
 110584555.931 8  86169771.533 7  21043518.695                    21043527.996
 124307065.043 6  96862692.311 6  23654843.313                    23654856.563
 111489517.811 8  86875032.513 7  21215721.883                    21215732.699
 122699624.400 7  95610156.424 6  23348965.914                    23348978.848
 128173731.998 6  99875680.03643  24390663.570                    24390680.070
 108807800.760 8  84785444.06846  20705406.656                    20705414.555
 123466697.020 6  96207883.83244  23494933.156                    23494945.676
 11  8 27  0 16  0.0000000  0  9G04G10G12G17G05G25G09G02G30
 117854650.553 7  91834937.13344  22426975.578                    22426986.500
 110436442.293 8  86054497.73546  21015329.125                    21015339.336
 110545618.482 8  86139430.681 7  21036109.445                    21036118.457
 124366583.785 6  96909070.491 6  23666169.547                    23666182.813
 111417746.529 8  86819106.933 7  21202064.242                    21202074.887
 122610788.020 7  95540933.367 6  23332060.477                    23332073.684
 128254844.267 6  99938884.19943  24406097.805                    24406115.746
 108819297.563 8  84794402.62346  20707594.648                    20707602.070
 123376263.206 7  96137416.02644  23477724.883                    23477736.148
 11  8 27  0 16 30.0000000  0  9G04G10G12G17G05G25G09G02G30
 117935055.708 7  91897590.46945  22442276.719                    22442287.516
 110468453.982 7  86079441.93546  21021420.375                    21021430.539
 110507202.487 8  86109496.158 7  21028798.906                    21028807.961
 124426285.533 6  96955591.278 6  23677530.266                    23677543.449
 111346410.328 8  86763520.376 7  21188489.289                    21188500.199
 122522248.176 7  95471941.382 7  23315212.211                    23315225.523
 128335966.357 6 100002095.96343  24421535.219                    24421552.633
 108831020.480 8  84803537.36846  20709825.258                    20709832.973
 123286168.896 7  96067212.74044  23460580.516                    23460591.688
 11  8 27  0 17  0.0000000  0  9G04G10G12G17G05G25G09G02G30
 118015507.309 7  91960280.00145  22457585.430                    22457596.871
 110501069.632 7  86104856.75246  21027627.188                    21027637.465
 110469309.132 8  86079968.874 7  21021587.844                    21021597.160
 124486170.613 6  97002254.883 6  23688926.414                    23688938.844
 111275511.047 8  86708274.268 7  21174997.789                    21175008.129
 122434007.069 7  95403182.189 7  23298420.336                    23298433.879
 128417095.112 6 100065312.92243  24436974.117                    24436990.828
 108842967.259 8  84812846.54846  20712098.672                    20712106.258
 123196416.520 7  95997275.90244  23443500.930                    23443511.992
 11  8 27  0 17 30.0000000  0  9G04G10G12G17G05G25G09G02G30
 118096003.844 7  92023004.53445  22472903.117                    22472914.879
 110534287.886 7  86130741.12246  21033948.594                    21033958.699
 110431940.491 8  86050850.470 7  21014477.000                    21014486.270
 124546239.212 6  97049061.528 6  23700356.359                    23700369.816
 111205051.164 7  86653370.553 7  21161589.859                    21161600.516
 122346067.498 7  95334657.973 7  23281685.617                    23281699.023
 128498227.517 6 100128532.72143  24452413.172                    24452429.988
 108855137.086 8  84822329.53746  20714415.000                    20714422.027
 123107008.961 7  95927607.74544  23426486.852                    23426498.293
 11  8 27  0 18  0.0000000  0  9G04G10G12G17G05G25G09G02G30
 118176543.872 7  92085762.95644  22488230.180                    22488240.691
 110568107.317 8  86157093.94246  21040383.773                    21040394.133
 110395097.488 8  86022141.652 7  21007466.102                    21007475.355
 124606491.693 6  97096011.415 6  23711822.977                    23711835.586
 111135032.809 8  86598810.882 7  21148265.414                    21148275.898
 122258431.914 7  95266370.620 7  23265009.000                    23265022.395
 128579360.184 6 100191752.72443  24467853.219                    24467869.762
 108867528.611 8  84831985.28746  20716772.422                    20716779.988
 123017948.760 7  95858210.26944  23409539.445                    23409550.391
 11  8 27  0 18 30.0000000  0  9G04G10G12G17G05G25G09G02G30
 118257125.862 7  92148554.06345  22503564.102                    22503575.094
 110602526.714 8  86183914.27346  21046933.563                    21046943.813
 110358782.054 8  85993843.921 7  21000555.875                    21000564.445
 124666928.415 6  97143104.871 6  23723323.352                    23723336.211
 111065458.354 8  86544597.111 7  21135025.883                    21135036.238
 122171103.100 7  95198322.303 7  23248390.641                    23248404.602
 128660490.105 6 100254970.60444  24483291.695                    24483309.457
 108880140.436 8  84841812.69046  20719172.672                    20719180.117
 122929238.745 6  95789085.63743  23392658.086                    23392669.105
 11  8 27  0 19  0.0000000  0  9G04G10G12G17G05G25G09G02G30
 118337748.676 7  92211376.97544  22518905.930                    22518916.891
 110637544.847 8  86211201.13446  21053597.367                    21053607.371
 110322996.118 8  85965958.801 7  20993745.516                    20993755.152
 124727549.824 6  97190342.275 6  23734859.469                    23734871.711
 110996330.346 8  86490731.214 7  21121871.125                    21121881.938
 122084083.837 7  95130515.184 7  23231831.930                    23231844.688
 128741614.165 6 100318183.92743  24498728.273                    24498746.387
 108892971.831 8  84851811.19546  20721613.953                    20721621.340
 122840882.077 6  95720236.38144  23375844.750                    23375855.285
 11  8 27  0 19 30.0000000  0  9G04G10G12G17G05G25G09G02G30
 118418410.493 7  92274230.29345  22534255.563                    22534267.152
 110673160.248 8  86238953.40846  21060374.602                    21060384.469
 110287740.940 8  85938487.246 7  20987036.516                    20987045.953
 124788356.225 6  97237723.830 6  23746431.039                    23746443.496
 110927650.925 8  86437214.861 7  21108801.906                    21108812.188
 121997376.668 7  95062951.243 7  23215331.594                    23215344.859
 128822729.372 6 100381390.34343  24514164.930                    24514182.309
 108906021.558 8  84861979.82646  20724097.477                    20724104.910
 122752881.127 6  95651664.29644  23359098.711                    23359109.590
 11  8 27  0 20  0.0000000  0  9G04G10G12G17G05G25G09G02G30
 118499110.126 7  92337113.05445  22549612.453                    22549623.523
 110709371.777 8  86267170.18746  21067265.117                    21067275.316
 110253018.219 8  85911430.599 7  20980429.375                    20980438.387
 124849348.026 7  97285249.848 6  23758036.391                    23758048.762
 110859422.300 8  86384049.785 7  21095818.570                    21095828.906
 121910984.206 7  94995632.527 7  23198891.688                    23198904.383
 128903832.573 6 100444587.41243  24529598.102                    24529615.367
 108919288.417 8  84872317.65146  20726621.906                    20726629.973
 122665238.750 7  95583371.63944  23342420.625                    23342431.645
 11  8 27  0 20 30.0000000  0  9G04G10G12G17G05G25G09G02G30
 118579845.989 7  92400024.06444  22564975.680                    22564987.441
 110746177.555 8  86295850.02646  21074268.977                    21074279.547
 110218829.135 8  85884789.773 7  20973923.094                    20973932.734
 124910525.205 6  97332920.342 6  23769678.883                    23769691.566
 110791646.743 8  86331237.748 7  21082920.930                    21082931.734
 121824909.002 7  94928561.010 7  23182512.086                    23182525.219
 128984920.640 6 100507772.67443  24545029.609                    24545046.277
 108932770.812 8  84882823.43946  20729187.664                    20729195.242
 122577957.459 6  95515360.35144  23325811.406                    23325822.590
 11  8 27  0 21  0.0000000  0  9G04G10G12G17G05G25G09G02G30
 118660616.731 7  92462962.25144  22580346.227                    22580357.543
 110783576.511 8  86324992.06946  21081386.000                    21081396.246
 110185175.526 8  85858566.206 7  20967518.820                    20967528.547
 124971888.419 7  97380735.779 6  23781356.023                    23781367.645
 110724326.470 8  86278780.472 7  21070110.523                    21070121.211
 121739153.806 7  94861738.841 7  23166192.867                    23166206.574
 129065990.288 6 100570943.59443  24560456.125                    24560474.195
 108946467.628 8  84893496.30946  20731793.938                    20731801.426
 122491040.159 6  95447632.67944  23309271.711                    23309282.758
 11  8 27  0 21 30.0000000  0  9G04G10G12G17G05G25G09G02G30
 118741420.977 7  92525926.54144  22595722.773                    22595734.469
 110821567.210 8  86354595.20046  21088615.469                    21088625.422
 110152058.951 8  85832761.101 7  20961216.914                    20961226.605
 125033438.133 6  97428696.539 6  23793068.477                    23793080.922
 110657464.115 8  86226680.020 7  21057386.531                    21057397.320
 121653721.401 7  94795168.181 7  23149936.234                    23149949.266
 129147038.649 6 100634097.92543  24575879.359                    24575897.816
 108960378.056 8  84904335.61946  20734441.320                    20734448.855
 122404489.773 7  95380190.91044  23292801.016                    23292812.625
 11  8 27  0 22  0.0000000  0  9G04G10G12G17G05G25G09G02G30
 118822257.224 7  92588915.74644  22611105.773                    22611116.855
 110860147.909 8  86384658.08146  21095956.961                    21095967.434
 110119480.656 8  85807375.438 7  20955017.867                    20955027.402
 125095174.101 7  97476802.445 6  23804816.273                    23804828.945
 110591061.273 8  86174937.612 7  21044750.734                    21044761.434
 121568614.170 7  94728850.907 7  23133740.313                    23133753.320
 129228062.786 6 100697233.36843  24591298.266                    24591315.879
 108974500.614 8  84915340.23846  20737128.523                    20737136.379
 122318308.645 6  95313036.87244  23276401.961                    23276412.680
 11  8 27  0 22 30.0000000  0  9G04G10G12G17G05G25G09G02G30
 118903124.122 7  92651928.84344  22626494.000                    22626504.984
 110899317.169 8  86415179.58546  21103410.766                    21103420.867
 110087442.070 8  85782410.321 7  20948920.883                    20948930.023
 125157096.660 6  97525053.729 6  23816599.672                    23816612.969
 110525120.488 8  86123555.270 7  21032202.297                    21032213.270
 121483834.701 7  94662789.015 7  23117607.523                    23117621.594
 129309059.416 6 100760347.35543  24606711.539                    24606728.977
 108988833.818 8  84926508.99846  20739856.141                    20739863.582
 122232499.523 7  95246172.70844  23260072.461                    23260083.816
 11  8 27  0 23  0.0000000  0  9G04G10G12G17G05G25G09G02G30
 118984020.404 7  92714964.82944  22641887.922                    22641898.965
 110939073.488 8  86446158.53646  21110976.445                    21110986.527
 110055944.781 8  85757867.000 7  20942927.109                    20942936.422
 125219206.409 6  97573450.889 6  23828418.883                    23828431.727
 110459643.919 8  86072534.638 7  21019742.727                    21019753.137
 121399385.755 7  94596984.683 7  23101537.320                    23101550.801
 129390025.572 6 100823437.56143  24622118.891                    24622136.582
 109003377.046 8  84937841.41546  20742623.258                    20742630.934
 122147065.235 7  95179600.61844  23243814.695                    23243826.203
 11  8 27  0 23 30.0000000  0  9G04G10G12G17G05G25G09G02G30
 119064944.566 7  92778022.55444  22657287.594                    22657298.785
 110979415.660 8  86477593.99446  21118653.328                    21118663.895
 110024989.991 8  85733746.405 7  20937036.664                    20937046.039
 125281503.644 6  97621994.146 6  23840273.578                    23840286.680
 110394633.687 8  86021877.395 7  21007371.664                    21007381.797
 121315270.057 7  94531440.001 6  23085530.867                    23085543.727
 129470958.333 6 100886501.75343  24637518.922                    24637537.938
 109018129.074 8  84949336.53246  20745430.547                    20745438.418
 122062008.545 7  95113322.77144  23227628.555                    23227640.074
 11  8 27  0 24  0.0000000  0  9G04G10G12G17G05G25G09G02G30
 119145895.401 7  92841101.07944  22672692.078                    22672703.543
 111020341.994 8  86509484.65246  21126440.750                    21126451.477
 109994578.968 8  85710049.516 7  20931249.703                    20931259.215
 125343988.452 6  97670683.543 6  23852164.008                    23852177.480
 110330092.152 8  85971585.366 7  20995089.805                    20995100.047
 121231490.207 7  94466157.021 7  23069587.992                    23069600.844
 129551854.545 6 100949537.52643  24652914.766                    24652932.664
 109033088.395 8  84960993.17746  20748277.570                    20748284.758
 121977332.119 7  95047341.22144  23211515.625                    23211526.996
 11  8 27  0 24 30.0000000  0  9G04G10G12G17G05G25G09G02G30
 119226871.517 7  92904199.30044  22688101.297                    22688112.930
 111061850.706 8  86541829.11246  21134339.969                    21134350.078
 109964713.671 8  85686777.872 7  20925566.414                    20925575.891
 125406661.184 6  97719519.363 6  23864090.203                    23864104.008
 110266021.033 8  85921659.892 7  20982897.445                    20982907.656
 121148048.639 7  94401137.654 7  23053709.633                    23053722.832
 129632711.052 6 101012542.27243  24668301.141                    24668319.582
 109048253.985 8  84972810.55646  20751162.961                    20751170.367
 121893038.466 7  94981657.92544  23195474.852                    23195486.816
 11  8 27  0 25  0.0000000  0  9G04G10G12G17G05G25G09G02G30
 119307871.471 7  92967316.08845  22703515.297                    22703526.309
 111103940.132 8  86574626.07045  21142349.438                    21142359.742
 109935394.863 8  85663932.070 7  20919987.266                    20919996.746
 125469522.056 6  97768501.802 6  23876052.094                    23876066.258
 110202422.619 8  85872102.770 7  20970794.844                    20970804.668
 121064948.155 7  94336384.055 7  23037896.242                    23037909.035
 129713525.063 6 101075513.94543  24683679.914                    24683698.188
 109063624.715 8  84984787.78346  20754088.258                    20754095.398
 121809130.419 7  94916275.11844  23179507.789                    23179519.238
 11  8 27  0 25 30.0000000  0  9G04G10G12G17G05G25G09G02G30
 119388894.087 7  93030450.54244  22718933.305                    22718944.285
 111146608.935 8  86607874.49946  21150469.008                    21150479.402
 109906624.110 8  85641513.322 7  20914512.656                    20914521.551
 125532571.430 6  97817631.137 6  23888050.367                    23888063.813
 110139299.224 8  85822915.791 7  20958782.805                    20958793.121
 120982191.221 7  94271898.165 7  23022147.438                    23022160.828
 129794293.368 6 101138449.99443  24699049.055                    24699068.137
 109079199.322 8  84996923.86746  20757051.813                    20757059.160
 121725610.642 7  94851194.84444  23163614.242                    23163625.598
 11  8 27  0 26  0.0000000  0  9G04G10G12G17G05G25G09G02G30
 119469938.209 7  93093601.77244  22734355.617                    22734366.984
 111189855.612 8  86641573.21745  21158698.578                    21158708.555
 109878402.853 8  85619522.759 7  20909141.961                    20909151.344
 125595809.472 6  97866907.496 6  23900084.328                    23900097.109
 110076652.755 8  85774100.436 7  20946861.563                    20946872.039
 120899780.656 7  94207682.199 7  23006465.797                    23006478.906
 129875013.108 6 101201348.19843  24714410.055                    24714428.230
 109094976.681 8  85009217.93946  20760053.945                    20760061.598
 121642481.875 7  94786419.23844  23147795.820                    23147806.426
 11  8 27  0 26 30.0000000  0  9G04G10G12G17G05G25G09G02G30
 119551002.472 7  93156768.69744  22749781.555                    22749792.922
 111233678.409 7  86675720.86745  21167037.695                    21167048.328
 109850732.035 8  85597961.117 7  20903876.445                    20903885.605
 125659236.493 6  97916331.091 6  23912154.234                    23912167.109
 110014485.476 8  85725658.475 7  20935031.625                    20935041.629
 120817718.944 7  94143738.047 7  22990850.070                    22990862.836
 129955681.163 6 101264206.10142  24729761.484                    24729779.410
 109110955.590 8  85021669.06146  20763095.039                    20763102.285
 121559746.674 7  94721950.31244  23132051.250                    23132062.473
 11  8 27  0 27  0.0000000  0  9G04G10G12G17G05G25G09G02G30
 119632085.224 7  93219950.01944  22765210.945                    22765222.570
 111278075.202 8  86710315.78546  21175485.570                    21175496.113
 109823612.920 8  85576829.369 7  20898715.578                    20898725.434
 125722852.694 6  97965902.153 6  23924260.313                    23924272.652
 109952799.045 8  85677591.199 7  20923293.242                    20923303.117
 120736008.466 7  94080067.599 7  22975301.219                    22975314.266
 130036294.584 6 101327021.36743  24745101.492                    24745119.148
 109127134.751 8  85034276.22246  20766173.625                    20766180.902
 121477407.581 7  94657790.04944  23116382.352                    23116394.004
 11  8 27  0 27 30.0000000  0  9G04G10G12G17G05G25G09G02G30
 119713185.497 7  93283145.00144  22780644.273                    22780655.668
 111323044.401 8  86745356.73145  21184043.672                    21184053.289
 109797047.007 8  85556128.694 7  20893660.461                    20893670.207
 125786658.351 7  98015620.815 6  23936401.414                    23936414.020
 109891595.669 8  85629900.340 7  20911645.789                    20911656.332
 120654652.100 7  94016673.102 7  22959819.172                    22959832.609
 130116850.445 6 101389791.87543  24760431.086                    24760449.242
 109143513.308 8  85047038.74246  20769290.250                    20769297.668
 121395467.346 7  94593940.56844  23100790.102                    23100800.859
 11  8 27  0 28  0.0000000  0  9G04G10G12G17G05G25G09G02G30
 119794302.064 7  93346352.70644  22796079.945                    22796091.344
 111368584.361 8  86780842.43446  21192709.430                    21192719.457
 109771035.655 8  85535860.142 7  20888710.234                    20888719.891
 125850653.590 7  98065487.214 6  23948579.867                    23948591.301
 109830877.461 8  85582587.527 7  20900091.750                    20900101.527
 120573652.307 7  93953556.467 7  22944405.297                    22944418.469
 130197345.893 6 101452515.28743  24775748.586                    24775767.008
 109160089.812 8  85059955.51446  20772444.844                    20772452.258
 121313928.587 7  94530403.90344  23085273.742                    23085284.863
 11  8 27  0 28 30.0000000  0  9G04G10G12G17G05G25G09G02G30
 119875433.426 7  93409571.92144  22811518.977                    22811529.883
 111414693.178 8  86816771.39845  21201483.813                    21201493.863
 109745579.602 8  85516024.294 7  20883866.398                    20883876.270
 125914838.449 7  98115501.333 5  23960793.484                    23960805.512
 109770646.304 8  85535654.229 7  20888629.914                    20888640.523
 120493011.577 7  93890719.607 7  22929059.781                    22929072.641
 130277777.941 6 101515189.32243  24791055.172                    24791073.188
 109176863.234 8  85073025.72846  20775636.523                    20775643.914
 121232793.852 7  94467182.07644  23069834.727                    23069845.648
 11  8 27  0 29  0.0000000  0  9G04G10G12G17G05G25G09G02G30
 119956578.647 7  93472801.92844  22826960.180                    22826970.863
 111461369.228 8  86853142.36245  21210365.758                    21210376.070
 109720680.092 8  85496622.124 8  20879128.203                    20879137.477
 125979213.345 6  98165663.548 5  23973043.484                    23973055.652
 109710904.009 8  85489101.866 7  20877261.703                    20877271.430
 120412732.457 7  93828164.534 7  22913783.508                    22913796.520
 130358143.457 6 101577811.48243  24806348.555                    24806366.770
 109193832.196 8  85086248.30846  20778865.406                    20778873.293
 121152065.740 7  94404277.10144  23054472.672                    23054483.129
 11  8 27  0 29 30.0000000  0  9G04G10G12G17G05G25G09G02G30
 120037736.212 7  93536041.55744  22842404.008                    22842415.398
 111508610.786 8  86889953.97745  21219355.531                    21219365.813
 109696338.340 8  85477654.562 7  20874495.922                    20874505.371
 126043778.467 6  98215974.012 6  23985330.367                    23985342.246
 109651652.567 8  85442931.987 7  20865986.344                    20865996.438
 120332817.598 7  93765893.295 7  22898576.156                    22898589.242
 130438439.848 6 101640379.77343  24821628.969                    24821646.660
 109210995.790 8  85099622.54546  20782131.844                    20782138.988
 121071746.829 7  94341690.97644  23039188.102                    23039199.156
 11  8 27  0 30  0.0000000  0  9G04G10G12G17G05G25G09G02G30
 120118904.928 7  93599289.86744  22857850.148                    22857861.250
 111556415.719 8  86927204.58846  21228452.195                    21228462.426
 109672555.464 8  85459122.488 7  20869970.227                    20869979.500
 126108534.003 6  98266432.872 6  23997652.680                    23997665.211
 109592894.191 8  85397146.315 8  20854804.977                    20854815.563
 120253269.471 8  93703907.834 7  22883438.336                    22883450.836
 130518664.066 6 101702891.89043  24836895.883                    24836913.598
 109228352.661 8  85113147.38446  20785434.484                    20785442.020
 120991839.764 7  94279425.78444  23023982.602                    23023993.316
 11  8 27  0 30 30.0000000  0  9G04G10G12G17G05G25G09G02G30
 120200083.783 7  93662546.10044  22873297.742                    22873309.391
 111604782.314 8  86964892.85045  21237656.188                    21237666.418
 109649332.427 8  85441026.651 7  20865551.203                    20865560.406
 126173480.200 6  98317040.284 6  24010011.484                    24010024.656
 109534630.914 8  85351746.423 7  20843717.750                    20843728.434
 120174090.724 7  93642210.185 7  22868371.172                    22868384.371
 130598812.995 6 101765345.28943  24852147.305                    24852165.500
 109245901.862 8  85126822.08746  20788774.391                    20788781.441
 120912347.209 7  94217483.57544  23008855.227                    23008866.570
 11  8 27  0 31  0.0000000  0  8G04G10G12G17G05G25G02G30
 120281272.187 7  93725809.75944  22888747.328                    22888759.184
 111653709.671 8  87003018.06445  21246966.734                    21246977.039
 109626671.471 8  85423368.788 7  20861239.016                    20861247.750
 126238618.283 6  98367797.170 6  24022407.188                    24022420.070
 109476865.184 8  85306734.237 7  20832725.117                    20832735.367
 120095284.764 7  93580803.031 7  22853374.961                    22853387.582
 109263643.075 8  85140646.41946  20792150.320                    20792157.578
 120833272.665 7  94155867.10344  22993807.641                    22993819.340
 11  8 27  0 31 30.0000000  0  8G04G10G12G17G05G25G02G30
 120362469.333 7  93789080.23944  22904198.891                    22904209.898
 111703195.945 7  87041578.81445  21256383.914                    21256393.914
 109604573.679 8  85406149.768 7  20857033.602                    20857043.105
 126303947.830 6  98418703.262 6  24034839.227                    24034851.934
 109419598.720 8  85262111.088 7  20821827.641                    20821837.727
 120016854.258 7  93519688.425 7  22838449.922                    22838462.695
 109281575.220 8  85154619.52346  20795562.828                    20795570.051
 120754618.746 7  94094578.38344  22978839.703                    22978851.543
 11  8 27  0 32  0.0000000  0  8G04G10G12G17G05G25G02G30
 120443672.591 7  93852355.47344  22919650.969                    22919662.895
 111753238.051 7  87080572.66745  21265906.563                    21265916.867
 109583038.665 8  85389369.262 7  20852935.633                    20852944.871
 126369468.256 6  98469758.118 6  24047306.969                    24047320.277
 109362832.913 8  85217878.055 7  20811025.750                    20811035.621
 119938800.269 7  93458867.207 7  22823596.797                    22823609.336
 109299695.736 8  85168739.41246  20799010.641                    20799017.813
 120676386.745 7  94033618.42144  22963953.141                    22963963.707
 11  8 27  0 32 30.0000000  0  8G04G10G12G17G05G25G02G30
 120524880.850 7  93915634.58644  22935104.656                    22935115.871
 111803833.856 7  87119997.97245  21275534.516                    21275544.871
 109562067.593 8  85373028.193 7  20848945.234                    20848954.191
 126435179.690 6  98520961.785 6  24059811.453                    24059825.531
 109306568.790 8  85174035.947 7  20800318.531                    20800328.875
 119861125.388 7  93398341.397 7  22808815.758                    22808828.258
 109318003.530 8  85183005.22246  20802494.617                    20802501.781
 120598578.999 7  93972989.08744  22949146.664                    22949158.004
 11  8 27  0 33  0.0000000  0  8G04G10G12G17G05G25G02G30
 120606093.168 7  93978916.86644  22950559.047                    22950570.242
 111854981.568 7  87159853.34545  21285267.992                    21285277.902
 109541661.415 8  85357127.298 7  20845061.891                    20845070.844
 126501082.330 6  98572314.472 6  24072352.383                    24072366.176
 109250808.729 8  85130586.606 7  20789707.859                    20789718.148
 119783832.555 7  93338113.269 7  22794107.281                    22794119.695
 109336498.139 8  85197416.61146  20806014.273                    20806021.918
 120521198.565 7  93912692.71044  22934421.781                    22934432.879
 11  8 27  0 33 30.0000000  0  8G04G10G12G17G05G25G02G30
 120687308.305 7  94042201.34544  22966013.875                    22966025.051
 111906679.179 7  87200137.20245  21295105.648                    21295115.559
 109521821.494 8  85341667.642 7  20841286.414                    20841295.430
 126567176.364 6  98623816.287 6  24084928.844                    24084942.898
 109195554.477 8  85087531.408 8  20779193.484                    20779203.375
 119706923.878 7  93278184.492 7  22779471.695                    22779484.789
 109355177.938 8  85211972.31046  20809568.609                    20809576.410
 120444247.535 7  93852730.94844  22919779.188                    22919789.535
 11  8 27  0 34  0.0000000  0  8G04G10G12G17G05G25G02G30
 120768525.194 7  94105487.20344  22981468.844                    22981480.398
 111958925.022 8  87240848.25145  21305047.641                    21305057.406
 109502548.057 8  85326649.393 7  20837618.930                    20837627.727
 126633461.904 6  98675467.331 6  24097543.039                    24097556.734
 109140807.895 8  85044871.798 8  20768775.422                    20768785.223
 119630402.062 7  93218557.158 7  22764910.133                    22764923.051
 109374041.856 8  85226671.47546  20813158.102                    20813166.117
 120367728.784 7  93793106.02044  22905217.844                    22905228.391
 11  8 27  0 34 30.0000000  0  8G04G10G12G17G05G25G02G30
 120849742.735 7  94168773.57544  22996924.008                    22996935.867
 112011717.045 7  87281984.90246  21315093.383                    21315103.664
 109483842.743 8  85312073.832 7  20834059.438                    20834068.469
 126699939.175 6  98727267.746 6  24110193.781                    24110207.270
 109086570.794 8  85002609.188 7  20758454.477                    20758464.570
 119554269.684 7  93159233.274 7  22750422.398                    22750435.117
 109393088.993 8  85241513.39846  20816783.102                    20816790.273
 120291644.805 7  93733819.89244  22890739.648                    22890750.266
 11  8 27  0 35  0.0000000  0  8G04G10G12G17G05G25G02G30
 120930959.894 7  94232059.63244  23012379.133                    23012390.676
 112065052.870 8  87323545.28445  21325242.750                    21325253.539
 109465706.004 8  85297941.323 7  20830607.914                    20830616.977
 126766608.200 6  98779217.591 6  24122880.313                    24122893.574
 109032844.824 8  84960744.854 8  20748230.133                    20748240.563
 119478529.182 7  93100214.744 7  22736009.719                    22736022.543
 109412318.117 8  85256497.14646  20820442.109                    20820449.332
 120215997.940 7  93674874.35044  22876343.680                    22876355.035
 11  8 27  0 35 30.0000000  0  8G04G10G12G17G05G25G02G30
 121012175.313 7  94295344.32744  23027834.250                    23027845.652
 112118930.517 8  87365527.85846  21335495.188                    21335505.785
 109448139.051 8  85284252.798 7  20827264.805                    20827274.191
 126833468.922 6  98831316.835 6  24135604.117                    24135617.449
 108979631.479 8  84919279.970 8  20738104.195                    20738114.355
 119403182.957 7  93041503.441 7  22721671.945                    22721684.648
 109431727.980 8  85271621.72046  20824135.742                    20824143.352
 120140790.688 7  93616271.36044  22862032.086                    22862042.922
 11  8 27  0 36  0.0000000  0  8G04G10G12G17G05G25G02G30
 121093388.146 7  94358627.02144  23043287.836                    23043299.973
 112173348.000 8  87407931.08045  21345850.727                    21345860.914
 109431142.556 8  85271008.785 7  20824030.938                    20824040.141
 126900521.536 6  98883565.586 6  24148362.695                    24148376.313
 108926932.847 8  84878216.155 8  20728076.102                    20728086.543
 119328233.487 7  92983101.296 7  22707409.375                    22707422.477
 109451317.472 8  85286886.26546  20827863.766                    20827871.047
 120066025.538 7  93558012.87044  22847804.727                    22847815.797
 11  8 27  0 36 30.0000000  0  8G04G10G12G17G05G25G02G30
 121174596.869 7  94421906.52344  23058742.180                    23058753.523
 112228303.116 8  87450753.24345  21356308.031                    21356318.727
 109414716.962 8  85258209.627 7  20820905.211                    20820914.598
 126967766.149 6  98935963.952 6  24161159.734                    24161172.992
 108874750.147 8  84837554.371 7  20718145.992                    20718156.152
 119253683.012 7  92925010.056 7  22693222.711                    22693235.375
 109471085.065 8  85302289.59646  20831625.430                    20831632.605
 119991704.663 7  93500100.56944  22833662.258                    22833673.133
 11  8 27  0 37  0.0000000  0  8G04G10G12G17G05G25G02G30
 121255800.935 7  94485182.40944  23074194.453                    23074206.391
 112283793.987 8  87493992.86845  21366867.938                    21366877.887
 109398863.594 8  85245856.356 7  20817888.453                    20817897.367
 127035202.997 6  98988512.084 6  24173992.516                    24174005.613
 108823085.484 8  84797296.250 7  20708314.531                    20708324.262
 119179534.378 7  92867231.936 7  22679113.328                    22679125.555
 109491030.591 8  85317831.56546  20835420.719                    20835428.016
 119917831.007 7  93442536.72544  22819604.375                    22819615.184
 11  8 27  0 37 30.0000000  0  8G04G10G12G17G05G25G02G30
 121336999.034 7  94548453.64144  23089645.773                    23089657.391
 112339818.164 8  87537648.06645  21377528.766                    21377539.004
 109383582.945 8  85233949.357 8  20814980.578                    20814989.875
 127102832.088 6  99041210.026 6  24186862.117                    24186874.668
 108771940.136 8  84757442.789 7  20698581.898                    20698591.805
 119105789.780 7  92809768.658 7  22665079.664                    22665091.844
 109511152.532 8  85333511.01046  20839249.750                    20839257.379
 119844406.582 7  93385322.93044  22805631.922                    22805642.637
 11  8 27  0 38  0.0000000  0  8G04G10G12G17G05G25G02G30
 121418190.261 7  94611719.50344  23105096.102                    23105107.461
 112396374.288 8  87581717.76545  21388291.531                    21388300.961
 109368876.169 8  85222489.533 7  20812181.992                    20812191.000
 127170653.732 6  99094058.017 6  24199768.055                    24199780.449
 108721316.232 8  84717995.654 8  20688948.398                    20688958.359
 119032451.902 7  92752622.292 7  22651123.852                    22651136.305
 109531450.098 8  85349327.31446  20843112.422                    20843119.699
 119771434.314 7  93328461.46544  22791746.063                    22791756.813
 11  8 27  0 38 30.0000000  0  8G04G10G12G17G05G25G02G30
 121499373.606 7  94674979.22544  23120544.375                    23120556.090
 112453459.548 8  87626199.78245  21399154.359                    21399164.383
 109354743.695 8  85211477.227 7  20809492.719                    20809501.797
 127238667.533 6  99147055.719 6  24212710.430                    24212723.293
 108671215.339 8  84678956.056 8  20679414.500                    20679424.285
 118959522.963 7  92695794.592 7  22637245.461                    22637258.195
 109551921.825 8  85365279.32146  20847007.797                    20847014.598
 119698916.174 7  93271953.87344  22777945.930                    22777957.316
 11  8 27  0 39  0.0000000  0  8G04G10G12G17G05G25G02G30
 121580547.928 7  94738231.93244  23135991.852                    23136003.285
 112511071.780 8  87671092.41545  21410117.383                    21410127.352
 109341186.064 8  85200912.843 7  20806912.617                    20806921.922
 127306873.732 6  99200203.387 6  24225689.945                    24225702.398
 108621638.545 8  84640324.841 8  20669980.023                    20669990.305
 118887005.406 7  92639287.454 7  22623446.477                    22623458.766
 109572566.675 8  85381366.21546  20850936.445                    20850943.715
 119626854.653 7  93215802.10344  22764233.313                    22764244.492
 11  8 27  0 39 30.0000000  0  8G04G10G12G17G05G25G02G30
 121661712.100 6  94801476.74644  23151436.570                    23151448.484
 112569208.744 7  87716393.94045  21421180.555                    21421190.488
 109328203.942 8  85190796.907 7  20804442.438                    20804451.160
 127375272.294 6  99253500.948 5  24238705.484                    24238717.668
 108572587.466 8  84602103.286 8  20660646.266                    20660655.980
 118814901.451 7  92583102.603 7  22609725.297                    22609737.898
 109593383.234 8  85397586.92546  20854897.586                    20854904.480
 119555252.060 7  93160007.93244  22750607.656                    22750618.359
 11  8 27  0 40  0.0000000  0  8G04G10G12G17G05G25G02G30
 121742865.428 6  94864713.08643  23166879.461                    23166891.121
 112627868.405 7  87762102.75945  21432342.797                    21432353.238
 109315798.287 8  85181130.166 7  20802081.570                    20802090.688
 127443863.343 6  99306948.466 5  24251757.859                    24251770.492
 108524064.144 8  84564292.966 8  20651412.547                    20651422.234
 118743213.721 7  92527242.090 7  22596083.539                    22596096.035
 109614370.972 8  85413941.00846  20858891.602                    20858898.992
 119484110.955 7  93104573.35044  22737069.852                    22737080.465
 11  8 27  0 40 30.0000000  0  8G04G10G12G17G05G25G02G30
 121824006.565 6  94927939.91843  23182320.078                    23182331.949
 112687048.368 7  87808217.00845  21443604.813                    21443615.215
 109303969.440 8  85171912.888 7  20799830.664                    20799839.926
 127512646.843 6  99360545.993 5  24264847.164                    24264859.414
 108476069.492 8  84526894.596 8  20642279.367                    20642288.918
 118671944.455 7  92471707.655 7  22582521.031                    22582534.004
 109635528.581 8  85430427.45746  20862917.953                    20862924.523
 119413433.480 7  93049500.05444  22723620.563                    22723630.910
 11  8 27  0 41  0.0000000  0  8G04G10G12G17G05G25G02G30
 121905134.382 6  94991156.35944  23197757.992                    23197769.496
 112746746.111 8  87854734.73245  21454964.539                    21454975.105
 109292717.761 8  85163145.354 7  20797689.203                    20797698.531
 127581622.736 6  99414293.384 5  24277972.953                    24277984.969
 108428604.983 8  84489909.319 8  20633246.898                    20633256.707
 118601095.796 7  92416500.962 7  22569039.313                    22569052.203
 109656854.591 8  85447045.14546  20866976.344                    20866983.137
 119343221.802 7  92994789.70144  22710259.289                    22710270.242
 11  8 27  0 41 30.0000000  0  8G04G10G12G17G05G25G02G30
 121986248.291 6  95054361.98643  23213194.148                    23213204.980
 112806960.040 8  87901654.66345  21466423.281                    21466433.496
 109282044.640 8  85154828.644 7  20795658.359                    20795667.352
 127650791.128 6  99468190.851 5  24291135.758                    24291147.984
 108381672.745 8  84453338.800 8  20624316.188                    20624325.887
 118530670.682 7  92361624.303 7  22555637.672                    22555650.422
 109678348.595 8  85463793.73046  20871065.766                    20871073.496
 119273478.826 7  92940444.60744  22696987.688                    22696998.941
 11  8 27  0 42  0.0000000  0  8G04G10G12G17G05G25G02G30
 122067347.417 6  95117556.07343  23228626.555                    23228638.234
 112867687.495 8  87948974.75945  21477979.367                    21477989.621
 109271950.445 8  85146963.044 7  20793737.555                    20793746.270
 127720152.050 6  99522238.288 6  24304334.484                    24304346.949
 108335273.787 8  84417183.822 7  20615486.594                    20615496.551
 118460671.335 7  92307079.406 7  22542317.625                    22542330.105
 109700009.760 8  85480672.56646  20875187.961                    20875195.488
 119204206.709 7  92886466.39244  22683805.742                    22683816.098
 11  8 27  0 42 30.0000000  0  8G04G10G12G17G05G25G02G30
 122148430.477 7  95180737.65244  23244056.156                    23244067.605
 112928926.114 7  87996693.15845  21489632.539                    21489643.063
 109262435.019 8  85139548.437 7  20791927.094                    20791936.012
 127789705.436 6  99576435.718 6  24317569.148                    24317582.621
 108289409.550 8  84381445.513 7  20606758.570                    20606768.441
 118391099.850 7  92252867.897 7  22529078.609                    22529091.039
 109721836.323 8  85497680.28546  20879341.234                    20879348.945
 119135407.507 7  92832856.67044  22670714.125                    22670724.586
 11  8 27  0 43  0.0000000  0  8G04G10G12G17G05G25G02G30
 122229496.799 7  95243906.17144  23259483.172                    23259494.574
 112990673.976 7  88044808.37645  21501382.586                    21501393.289
 109253499.113 8  85132585.406 7  20790226.516                    20790235.598
 127859451.360 6  99630783.160 6  24330842.477                    24330855.504
 108244081.537 8  84346125.042 8  20598133.125                    20598142.547
 118321958.684 7  92198991.712 7  22515921.078                    22515933.922
 109743827.563 8  85514816.31246  20883526.141                    20883533.508
 119067083.644 7  92779617.35645  22657712.406                    22657722.844
 11  8 27  0 43 30.0000000  0  8G04G10G12G17G05G25G02G30
 122310545.122 7  95307060.66844  23274905.391                    23274917.754
 113052928.301 7  88093318.22945  21513229.781                    21513239.723
 109245143.416 8  85126074.477 7  20788636.477                    20788645.270
 127929389.766 6  99685280.585 6  24344150.586                    24344164.340
 108199290.893 8  84311223.290 8  20589609.828                    20589619.730
 118253250.099 7  92145452.603 7  22502846.078                    22502858.930
 109765982.436 8  85532079.85146  20887742.234                    20887749.984
 118999237.347 7  92726750.16944  22644801.180                    22644812.230
 11  8 27  0 44  0.0000000  0  9G04G10G12G17G05G25G29G02G30
 122391574.778 6  95370200.61044  23290325.070                    23290336.957
 113115686.939 7  88142221.06045  21525171.914                    21525182.148
 109237368.156 8  85120015.841 7  20787156.703                    20787165.430
 127999520.573 6  99739927.941 6  24357495.836                    24357510.566
 108155039.224 8  84276741.523 8  20581188.992                    20581198.727
 118184976.348 7  92092252.325 7  22489854.328                    22489866.902
 129639382.13816                  24669556.609
 109788299.709 8  85549469.92746  20891989.172                    20891996.531
 118931870.746 7  92674256.76744  22631982.125                    22631992.773
 11  8 27  0 44 30.0000000  0  9G04G10G12G17G05G25G29G02G30
 122472584.962 6  95433325.37344  23305740.969                    23305752.848
 113178947.826 7  88191515.25745  21537209.820                    21537219.875
 109230174.210 8  85114410.177 7  20785787.852                    20785796.789
 128069843.992 6  99794725.367 6  24370878.320                    24370891.926
 108111328.205 8  84242681.036 8  20572870.875                    20572880.516
 118117140.078 7  92039392.943 7  22476945.305                    22476958.031
 129559359.545 6 100955374.02415  24654329.078                    24654341.141
 109810778.777 8  85566986.08346  20896266.445                    20896274.121
 118864986.590 7  92622139.29344  22619254.016                    22619264.750
 11  8 27  0 45  0.0000000  0  9G04G10G12G17G05G25G29G02G30
 122553574.962 6  95496434.38744  23321152.961                    23321164.367
 113242708.782 8  88241199.12045  21549343.695                    21549353.750
 109223562.178 8  85109257.952 8  20784529.336                    20784538.621
 128140360.191 6  99849673.049 6  24384297.234                    24384310.762
 108068158.896 8  84209042.658 8  20564655.867                    20564665.754
 118049743.582 7  91986876.241 7  22464120.328                    22464132.836
 129479255.344 6 100892955.251 6  24639085.070                    24639097.461
 109833418.777 8  85584627.63646  20900574.688                    20900582.344
 118798586.985 7  92570399.37144  22606619.211                    22606629.930
 11  8 27  0 45 30.0000000  0  9G04G10G12G17G05G25G29G02G30
 122634543.461 6  95559526.66244  23336560.531                    23336572.516
 113306966.986 7  88291270.44045  21561571.586                    21561581.305
 109217531.876 8  85104559.023 7  20783382.023                    20783391.340
 128211068.775 6  99904770.662 6  24397752.461                    24397766.484
 108025532.516 8  84175827.341 8  20556544.398                    20556554.238
 117982788.892 7  91934703.809 7  22451379.133                    22451391.492
 129399069.944 6 100830473.215 6  24623826.180                    24623838.590
 109856218.301 8  85602393.49746  20904913.477                    20904921.148
 118732673.925 7  92519038.57944  22594075.891                    22594086.680
 11  8 27  0 46  0.0000000  0  9G04G10G12G17G05G25G29G02G30
 122715489.567 6  95622601.46244  23351964.250                    23351976.066
 113371719.860 7  88341727.21345  21573893.375                    21573903.535
 109212083.424 8  85100313.476 7  20782345.203                    20782354.254
 128281969.520 6  99960017.982 6  24411244.477                    24411258.574
 107983450.063 8  84143035.873 8  20548536.727                    20548546.105
 117916278.026 7  91882877.217 7  22438722.156                    22438735.141
 129318803.453 6 100767927.975 6  24608551.305                    24608564.238
 109879176.018 7  85620282.61946  20909282.344                    20909289.871
 118667249.464 7  92468058.51145  22581625.992                    22581637.113
 11  8 27  0 46 30.0000000  0  9G04G10G12G17G05G25G29G02G30
 122796412.471 6  95685658.19144  23367363.430                    23367375.816
 113436964.983 8  88392567.56045  21586309.102                    21586319.211
 109207217.746 8  85096522.043 7  20781419.445                    20781428.234
 128353062.287 6 100015414.980 6  24424773.023                    24424786.918
 107941912.906 8  84110669.305 8  20540631.805                    20540642.242
 117850213.453 7  91831398.383 7  22426150.688                    22426162.785
 129238456.788 6 100705320.221 5  24593262.492                    24593274.789
 109902291.163 8  85638294.41746  20913680.859                    20913688.457
 118602315.922 7  92417460.98544  22569269.477                    22569280.500
 11  8 27  0 47  0.0000000  0  9G04G10G12G17G05G25G29G02G30
 122877310.862 6  95748695.81544  23382758.406                    23382770.129
 113502699.376 8  88443789.16245  21598818.008                    21598828.273
 109202934.153 8  85093184.177 7  20780604.141                    20780613.555
 128424346.684 6 100070961.284 6  24438338.094                    24438351.680
 107900921.931 8  84078728.327 8  20532831.680                    20532841.254
 117784596.856 7  91780268.633 7  22413664.336                    22413676.594
 129158030.278 6 100642650.254 6  24577957.727                    24577970.301
 109925561.923 8  85656427.47046  20918109.375                    20918116.793
 118537874.853 7  92367247.21744  22557007.289                    22557017.465
 11  8 27  0 47 30.0000000  0  9G04G10G12G17G05G25G29G02G30
 122958184.434 7  95811714.09744  23398148.094                    23398159.328
 113568921.437 8  88495390.75845  21611419.711                    21611430.277
 109199233.361 8  85090300.444 8  20779899.672                    20779908.930
 128495823.051 6 100126657.185 6  24451940.141                    24451953.277
 107860478.995 8  84047214.402 8  20525135.664                    20525145.020
 117719430.976 7  91729490.082 7  22401263.703                    22401275.781
 129077524.903 6 100579918.869 6  24562638.117                    24562650.113
 109948988.341 8  85674681.82546  20922567.070                    20922574.074
 118473928.988 7  92317419.32644  22544838.156                    22544848.863
 11  8 27  0 48  0.0000000  0  9G04G10G12G17G05G25G29G02G30
 123039031.918 6  95874712.06544  23413532.898                    23413544.371
 113635628.360 8  88547370.16345  21624113.563                    21624124.203
 109196115.834 8  85087871.215 7  20779306.570                    20779315.891
 128567491.335 6 100182502.642 6  24465577.078                    24465591.332
 107820584.640 8  84016127.941 8  20517543.977                    20517553.734
 117654717.845 7  91679064.333 7  22388948.875                    22388961.281
 128996941.235 6 100517126.487 6  24547303.297                    24547315.625
 109972569.163 8  85693056.48946  20927053.992                    20927062.055
 118410480.346 7  92267978.88645  22532764.195                    22532774.789
 11  8 27  0 48 30.0000000  0  9G04G10G12G17G05G25G29G02G30
 123119852.605 6  95937689.14844  23428912.742                    23428924.176
 113702817.843 8  88599725.60245  21636899.273                    21636909.664
 109193581.672 8  85085896.547 7  20778824.484                    20778833.805
 128639351.201 6 100238497.314 6  24479252.867                    24479265.695
 107781240.384 8  83985470.129 8  20510057.281                    20510066.391
 117590459.685 7  91628993.084 7  22376721.047                    22376733.316
 128916279.727 6 100454273.418 6  24531953.922                    24531965.789
 109996303.264 7  85711550.59446  20931570.578                    20931578.148
 118347530.951 7  92218927.47345  22520785.563                    22520795.902
 11  8 27  0 49  0.0000000  0  9G04G10G12G17G05G25G29G02G30
 123200646.031 7  96000644.98843  23444286.656                    23444298.773
 113770487.196 8  88652454.96245  21649776.609                    21649787.020
 109191630.945 8  85084376.508 8  20778453.164                    20778462.438
 128711402.695 6 100294641.350 6  24492963.148                    24492976.746
 107742447.401 8  83955241.875 8  20502674.695                    20502684.500
 117526658.712 7  91579278.096 7  22364580.367                    22364592.336
 128835541.205 6 100391360.342 6  24516590.117                    24516601.883
 110020189.838 8  85730163.51546  20936115.906                    20936123.547
 118285083.072 7  92170266.83244  22508901.336                    22508912.438
 11  8 27  0 49 30.0000000  0  8G04G10G12G05G25G29G02G30
 123281411.923 6  96063579.36944  23459655.680                    23459668.219
 113838634.606 8  88705556.84145  21662744.375                    21662754.707
 109190264.512 8  85083311.764 7  20778193.266                    20778202.441
 107704207.292 8  83925444.433 8  20495397.938                    20495407.586
 117463317.839 7  91529921.627 7  22352526.328                    22352539.008
 128754726.955 6 100328388.283 6  24501211.570                    24501223.750
 110044228.438 8  85748894.89146  20940690.617                    20940697.789
 118223139.408 7  92121999.09944  22497114.563                    22497124.930
 11  8 27  0 50  0.0000000  0  8G04G10G12G05G25G29G02G30
 123362149.096 6  96126491.39344  23475020.055                    23475032.535
 113907257.360 8  88759029.10945  21675802.969                    21675813.270
 109189482.418 8  85082702.341 7  20778044.445                    20778053.563
 107666520.968 8  83896078.510 8  20488226.563                    20488236.051
 117400438.909 7  91480925.118 7  22340560.953                    22340573.461
 128673837.472 6 100265357.633 6  24485818.719                    24485831.016
 110068417.706 8  85767743.67446  20945293.625                    20945301.117
 118161701.782 7  92074125.70344  22485423.227                    22485433.590
 11  8 27  0 50 30.0000000  0  8G04G10G12G05G25G29G02G30
 123442856.293 6  96189380.05244  23490378.203                    23490390.641
 113976352.534 7  88812869.50345  21688951.547                    21688961.211
 109189284.231 8  85082547.927 7  20778006.922                    20778015.125
 107629389.062 8  83867144.602 8  20481160.586                    20481170.488
 117338023.572 7  91432289.838 7  22328683.617                    22328696.238
 128592872.845 6 100202268.429 6  24470411.438                    24470424.031
 110092756.537 8  85786708.98746  20949925.422                    20949932.840
 118100771.777 7  92026647.83845  22473828.523                    22473838.660
 11  8 27  0 51  0.0000000  0  8G04G10G12G05G25G29G02G30
 123523532.680 6  96252244.73343  23505730.883                    23505742.215
 114045917.190 8  88867075.73245  21702188.820                    21702198.863
 109189669.769 8  85082848.348 7  20778079.953                    20778089.430
 107592812.359 8  83838643.327 8  20474200.133                    20474209.844
 117276073.747 7  91384017.296 7  22316895.102                    22316907.633
 128511833.691 6 100139121.157 6  24454990.031                    24455002.570
 110117243.645 8  85805789.85846  20954585.070                    20954592.441
 118040351.121 7  91979566.86145  22462330.797                    22462340.820
 11  8 27  0 51 30.0000000  0  8G04G10G12G05G25G29G02G30
 123604177.247 6  96315084.62943  23521075.914                    23521088.418
 114115948.818 8  88921645.82345  21715515.523                    21715526.230
 109190639.076 8  85083603.665 8  20778264.203                    20778273.934
 107556791.518 8  83810575.186 8  20467345.414                    20467355.051
 117214591.347 7  91336108.987 7  22305195.406                    22305207.566
 128430720.429 6 100075916.171 6  24439554.164                    24439566.555
 110141877.626 8  85824985.17146  20959272.563                    20959279.965
 117980441.596 7  91932884.16945  22450930.258                    22450940.652
 11  8 27  0 52  0.0000000  0  8G04G10G12G05G25G29G02G30
 123684789.544 7  96377899.36243  23536416.828                    23536428.461
 114186445.023 8  88976577.93045  21728930.859                    21728940.863
 109192192.697 8  85084814.293 7  20778560.047                    20778569.043
 107521328.063 8  83782941.367 8  20460597.359                    20460606.883
 117153578.800 7  91288566.795 7  22293584.961                    22293597.219
 128349534.125 6 100012654.258 6  24424105.695                    24424117.492
 110166658.163 8  85844294.69346  20963988.289                    20963995.383
 117921045.640 7  91886601.65945  22439627.820                    22439638.254
 11  8 27  0 52 30.0000000  0  8G04G10G12G05G25G29G02G30
 123765368.726 7  96440688.29443  23551750.156                    23551761.820
 114257403.161 7  89031869.98145  21742433.602                    21742443.555
 109194330.128 7  85086479.832 7  20778966.320                    20778975.785
 107486422.776 8  83755742.492 8  20453954.844                    20453964.379
 117093037.975 8  91241392.175 7  22282064.289                    22282076.266
 128268275.224 6  99949335.803 6  24408642.227                    24408653.988
 110191584.059 8  85863717.47946  20968731.680                    20968738.957
 117862165.011 7  91840720.69645  22428422.977                    22428433.199
 11  8 27  0 53  0.0000000  0  8G04G10G12G05G25G29G02G30
 123845914.122 7  96503450.90543  23567077.258                    23567088.945
 114328821.203 7  89087520.39845  21756023.984                    21756034.137
 109197051.876 8  85088600.684 7  20779484.453                    20779493.715
 107452076.852 8  83728979.476 8  20447419.008                    20447428.613
 117032971.390 8  91194587.086 7  22270633.977                    22270646.348
 128186945.056 6  99885961.806 6  24393165.414                    24393177.094
 110216654.837 8  85883253.14946  20973502.320                    20973510.055
 117803802.058 7  91795243.11645  22417316.336                    22417327.629
 11  8 27  0 53 30.0000000  0  8G04G10G12G05G25G29G02G30
 123926424.947 7  96566186.61243  23582397.789                    23582409.957
 114400696.007 8  89143526.74345  21769701.266                    21769711.906
 109200357.090 8  85091176.192 7  20780113.672                    20780122.813
 107418290.844 8  83702652.768 8  20440989.883                    20440999.949
 116973380.796 7  91148152.897 7  22259294.195                    22259306.621
 128105543.939 6  99822532.528 6  24377675.203                    24377686.953
 110241869.101 8  85902900.63946  20978300.430                    20978307.934
 117745958.444 7  91750170.20245  22406309.781                    22406320.207
 11  8 27  0 54  0.0000000  0  8G04G10G12G05G25G29G02G30
 124006900.311 7  96628894.66643  23597711.711                    23597723.781
 114473024.911 8  89199886.92245  21783464.703                    21783475.328
 109204245.773 8  85094206.337 7  20780853.695                    20780862.879
 107385065.701 8  83676763.083 8  20434667.305                    20434676.930
 116914268.001 8  91102091.023 7  22248045.945                    22248058.188
 128024072.247 6  99759048.247 6  24362170.766                    24362183.500
 110267225.643 8  85922658.99546  20983125.469                    20983132.820
 117688635.835 7  91705503.28145  22395401.625                    22395412.301
 11  8 27  0 54 30.0000000  0  8G04G10G12G05G25G29G02G30
 124087339.873 7  96691574.84543  23613018.641                    23613031.656
 114545805.601 8  89256599.14345  21797314.531                    21797324.980
 109208718.740 8  85097691.782 7  20781704.766                    20781713.980
 107352402.596 8  83651311.360 8  20428451.516                    20428461.152
 116855635.470 7  91056403.382 7  22236887.992                    22236900.348
 127942531.420 6  99695510.069 6  24346654.609                    24346666.281
 110292724.328 8  85942528.10646  20987977.711                    20987985.383
 117631836.646 7  91661244.21645  22384592.859                    22384603.465
 11  8 27  0 55  0.0000000  0  8G04G10G12G05G25G29G02G30
 124167742.564 7  96754226.31043  23628319.422                    23628331.520
 114619035.033 7  89313661.03545  21811250.023                    21811259.590
 109213775.323 8  85101631.987 7  20782666.813                    20782676.066
 107320302.035 8  83626297.977 8  20422343.320                    20422352.578
 116797484.813 8  91011091.227 7  22225822.273                    22225835.152
 127860921.758 6  99631918.263 6  24331124.648                    24331136.574
 110318363.618 8  85962506.78646  20992856.820                    20992864.250
 117575562.252 7  91617394.09045  22373884.008                    22373894.371
 11  8 27  0 55 30.0000000  0  8G04G10G12G05G25G29G02G30
 124248108.124 7  96816848.84444  23643612.039                    23643624.969
 114692711.256 7  89371071.07445  21825269.656                    21825279.645
 109219415.322 8  85106026.799 7  20783740.219                    20783749.395
 107288765.409 8  83601724.026 8  20416341.641                    20416350.918
 116739818.533 7  90966156.496 7  22214848.734                    22214861.246
 127779244.304 6  99568273.599 6  24315582.141                    24315593.516
 110344143.200 8  85982594.78246  20997762.203                    20997769.621
 117519815.182 7  91573954.84645  22363275.734                    22363286.207
 11  8 27  0 56  0.0000000  0  8G04G10G12G05G25G29G02G30
 124328435.585 7  96879441.66343  23658898.469                    23658910.531
 114766831.082 8  89428826.77245  21839374.445                    21839384.867
 109225638.362 8  85110875.936 7  20784924.313                    20784933.520
 107257792.609 8  83577589.416 8  20410447.719                    20410457.555
 116682638.061 7  90921600.323 7  22203967.773                    22203979.773
 127697499.459 6  99504576.406 6  24300026.984                    24300037.625
 110370061.435 8  86002790.82446  21002694.570                    21002702.016
 117464596.611 7  91530927.43845  22352767.492                    22352778.727
 11  8 27  0 56 30.0000000  0  8G04G10G12G05G25G29G02G30
 124408724.131 7  96942004.17044  23674177.102                    23674188.676
 114841392.165 7  89486926.30645  21853563.063                    21853573.340
 109232444.434 8  85116179.370 7  20786219.547                    20786228.715
 107227384.721 8  83553894.999 8  20404661.438                    20404670.875
 116625945.534 8  90877424.362 7  22193179.484                    22193191.766
 127615688.131 6  99440827.419 6  24284457.391                    24284470.043
 110396117.627 8  86023094.36146  21007652.656                    21007660.289
 117409908.562 7  91488313.42445  22342361.016                    22342371.844
 11  8 27  0 57  0.0000000  0  8G04G10G12G05G25G29G02G30
 124488973.257 7  97004535.93743  23689447.125                    23689459.145
 114916391.561 7  89545367.38545  21867834.750                    21867844.840
 109239833.597 8  85121937.157 7  20787625.711                    20787634.656
 107197542.908 8  83530641.688 8  20398982.477                    20398991.969
 116569743.119 7  90833630.310 7  22182484.695                    22182496.797
 127533811.662 6  99377027.640 6  24268876.813                    24268889.277
 110422311.358 8  86043505.07546  21012637.172                    21012644.789
 117355753.082 7  91446114.40345  22332055.586                    22332066.117
 11  8 27  0 57 30.0000000  0  8G04G10G12G05G25G29G02G30
 124569182.886 7  97067036.92743  23704711.383                    23704722.902
 114991826.940 7  89604148.19645  21882189.641                    21882199.805
 109247805.821 8  85128149.270 7  20789142.680                    20789151.730
 107168268.077 8  83507830.165 8  20393411.398                    20393421.047
 116514032.964 7  90790219.836 7  22171883.273                    22171895.789
 127451870.657 6  99313177.565 6  24253283.977                    24253296.035
 110448642.069 8  86064022.51846  21017647.992                    21017655.680
 117302132.203 7  91404331.95745  22321852.078                    22321862.293
 11  8 27  0 58  0.0000000  0  8G04G10G12G05G25G29G02G30
 124649351.241 7  97129505.76043  23719966.289                    23719978.535
 115067694.587 7  89663265.83445  21896626.898                    21896637.137
 109256359.706 8  85134814.638 7  20790770.711                    20790779.906
 107139559.852 8  83485460.156 8  20387948.656                    20387958.215
 116458815.774 8  90747193.481 7  22161375.844                    22161388.219
 127369865.398 6  99249277.414 6  24237678.930                    24237690.820
 110475107.346 8  86084644.81946  21022684.086                    21022691.313
 117249046.427 7  91362966.48745  22311750.141                    22311760.777
 11  8 27  0 58 30.0000000  0  8G04G10G12G05G25G29G02G30
 124729478.041 7  97191942.22943  23735214.258                    23735226.254
 115143992.821 7  89722718.97345  21911145.906                    21911156.422
 109265495.780 8  85141933.659 7  20792509.047                    20792517.969
 107111419.316 8  83463532.511 8  20382593.813                    20382603.133
 116404094.214 7  90704553.330 7  22150962.141                    22150974.922
 127287796.958 6  99185328.020 6  24222062.281                    24222073.445
 110501707.005 8  86105371.83246  21027745.969                    21027753.414
 117196498.280 7  91322019.94345  22301750.508                    22301760.563
 11  8 27  0 59  0.0000000  0  8G04G10G12G05G25G29G02G30
 124809563.099 7  97254346.15143  23750453.977                    23750466.313
 115220719.010 8  89782505.60745  21925746.500                    21925756.578
 109275213.359 8  85149505.794 7  20794358.344                    20794367.277
 107083847.544 8  83442048.049 8  20377346.766                    20377356.641
 116349870.399 7  90662301.022 7  22140643.898                    22140656.332
 127205666.479 6  99121330.278 6  24206433.180                    24206444.707
 110528440.700 8  86126203.29546  21032833.094                    21032840.320
 117144489.795 7  91281493.91245  22291853.906                    22291864.129
 11  8 27  0 59 30.0000000  0  8G04G10G12G05G25G29G02G30
 124889605.492 6  97316716.81943  23765685.617                    23765697.742
 115297869.929 7  89842623.20545  21940427.555                    21940437.684
 109285512.121 8  85157530.791 7  20796318.023                    20796327.395
 107056844.754 8  83421006.950 8  20372207.945                    20372217.781
 116296145.810 8  90620437.720 7  22130420.727                    22130432.672
 127123474.501 6  99057284.625 6  24190792.852                    24190804.590
 110555307.189 8  86147138.23346  21037945.555                    21037952.742
 117093022.231 7  91241389.37445  22282059.523                    22282069.855
 11  8 27  1  0  0.0000000  0  8G04G10G12G05G25G29G02G30
 124969604.446 7  97379053.63143  23780909.063                    23780921.066
 115375443.349 8  89903070.00145  21955189.148                    21955200.059
 109296391.845 8  85166008.488 7  20798388.359                    20798397.391
 107030411.681 8  83400409.790 8  20367178.328                    20367187.957
 116242922.394 8  90578964.938 7  22120292.406                    22120304.766
 127041222.499 6  98993192.204 6  24175140.500                    24175152.293
 110582305.696 8  86168176.02946  21043083.148                    21043090.398
 117042097.309 7  91201707.67045  22272368.961                    22272379.211
 11  8 27  1  0 30.0000000  0  8G04G10G12G05G25G29G02G30
 125049558.908 6  97441355.72343  23796124.023                    23796135.902
 115453435.331 7  89963842.95945  21970030.789                    21970041.133
 109307851.347 8  85174937.964 7  20800569.031                    20800577.988
 107004547.972 8  83380256.296 8  20362256.688                    20362266.156
 116190201.109 8  90537883.424 7  22110259.930                    22110272.348
 126958909.754 6  98929052.475 6  24159477.789                    24159488.418
 110609433.984 8  86189314.95046  21048245.570                    21048252.504
 116991715.933 7  91162449.48945  22262781.383                    22262791.492
 11  8 27  1  1  0.0000000  0  8G04G10G12G05G25G29G02G30
 125129469.557 6  97503623.76343  23811330.063                    23811342.566
 115531844.585 7  90024941.05645  21984951.563                    21984962.027
 109319891.347 8  85184319.774 7  20802860.117                    20802869.172
 106979255.724 8  83360548.087 8  20357443.523                    20357453.023
 116137985.273 8  90497195.755 7  22100324.227                    22100335.625
 126876538.777 6  98864867.381 6  24143802.039                    24143813.723
 110636693.514 8  86210556.15646  21053433.047                    21053440.133
 116941881.158 7  91123617.23945  22253298.320                    22253308.613
 11  8 27  1  1 30.0000000  0  8G04G10G12G05G25G29G02G30
 125209335.433 6  97565856.90343  23826528.398                    23826540.715
 115610668.044 7  90086361.92445  21999951.094                    21999961.160
 109332511.231 8  85194153.445 7  20805261.703                    20805271.133
 106954535.121 8  83341285.317 8  20352739.594                    20352748.656
 116086276.213 7  90456902.985 7  22090483.664                    22090495.914
 126794110.281 6  98800637.493 6  24128116.641                    24128128.402
 110664082.959 8  86231898.58246  21058644.680                    21058652.449
 116892594.206 7  91085211.85245  22243918.844                    22243929.188
 11  8 27  1  2  0.0000000  0  8G04G10G12G05G25G29G02G30
 125289155.673 7  97628054.44643  23841717.508                    23841729.953
 115689902.164 7  90148102.77445  22015028.609                    22015038.836
 109345709.873 8  85204438.100 8  20807773.555                    20807782.676
 106930385.981 8  83322467.848 8  20348144.180                    20348153.520
 116035075.289 8  90417006.172 7  22080740.266                    22080752.328
 126711624.762 6  98736363.158 6  24112419.844                    24112431.277
 110691600.737 8  86253341.00546  21063881.281                    21063888.832
 116843856.257 7  91047234.25245  22234644.898                    22234654.504
 11  8 27  1  2 30.0000000  0  8G04G10G12G05G25G29G02G30
 125368929.813 6  97690216.04843  23856898.289                    23856910.598
 115769544.784 7  90210161.95745  22030184.563                    22030194.691
 109359487.051 8  85215173.554 7  20810395.031                    20810404.668
 106906809.112 8  83304096.304 8  20343657.313                    20343667.230
 115984384.522 8  90377506.872 7  22071094.344                    22071106.457
 126629083.249 6  98672045.183 6  24096713.195                    24096723.801
 110719246.373 8  86274883.05746  21069142.242                    21069149.281
 116795669.141 7  91009685.86445  22225474.734                    22225485.117
 11  8 27  1  3  0.0000000  0  8G04G10G12G05G25G29G02G30
 125448657.173 6  97752341.24643  23872068.773                    23872081.906
 115849593.024 7  90272537.19545  22045417.156                    22045427.797
 109373841.990 8  85226359.217 7  20813126.406                    20813135.891
 106883804.871 8  83286170.963 8  20339279.680                    20339289.340
 115934205.398 8  90338406.269 7  22061545.133                    22061557.625
 126546486.234 6  98607683.961 6  24080995.320                    24081006.328
 110747018.705 8  86296523.84046  21074427.031                    21074434.719
 116748034.060 7  90972567.61045  22216410.430                    22216420.543
 11  8 27  1  3 30.0000000  0  8G04G10G12G05G25G29G02G30
 125528336.811 6  97814429.21443  23887232.344                    23887243.859
 115930043.771 7  90335226.06045  22060726.305                    22060736.863
 109388774.071 8  85237994.600 7  20815967.945                    20815977.328
 106861372.959 8  83268691.592 8  20335010.977                    20335020.688
 115884539.193 8  90299705.331 7  22052094.180                    22052106.426
 126463834.653 6  98543280.250 6  24065266.672                    24065278.547
 110774916.460 8  86318262.35346  21079735.648                    21079743.504
 116700952.259 7  90935880.51345  22207450.977                    22207461.066
 11  8 27  1  4  0.0000000  0  8G04G10G12G05G25G29G02G30
 125607968.372 7  97876479.76743  23902385.625                    23902397.270
 116010894.284 7  90398226.43845  22076111.969                    22076122.340
 109404283.131 8  85250079.569 7  20818919.484                    20818928.570
 106839514.755 8  83251659.254 8  20330851.328                    20330861.082
 115835388.034 8  90261405.729 7  22042741.125                    22042753.215
 126381129.970 6  98478835.144 6  24049528.195                    24049539.910
 110802939.486 8  86340098.48146  21085068.258                    21085075.793
 116654425.664 7  90899626.02445  22198597.148                    22198607.852
 11  8 27  1  4 30.0000000  0  8G04G10G12G05G25G29G02G30
 125687552.209 6  97938493.06843  23917530.508                    23917541.938
 116092142.649 7  90461536.83545  22091573.172                    22091583.008
 109420368.806 8  85262613.861 7  20821980.477                    20821989.832
 106818230.359 8  83235074.041 8  20326801.539                    20326811.184
 115786754.252 8  90223509.284 7  22033486.703                    22033498.605
 126298373.470 6  98414349.667 6  24033780.586                    24033792.516
 110831087.757 8  86362032.20546  21090424.586                    21090432.039
 116608456.357 7  90863805.77745  22189849.914                    22189860.254
 11  8 27  1  5  0.0000000  0  8G04G10G12G05G25G29G02G30
 125767087.539 7  98000468.62043  23932665.438                    23932677.500
 116173785.914 7  90525154.94445  22107108.992                    22107119.961
 109437029.702 8  85275596.368 7  20825151.180                    20825160.004
 106797520.439 8  83218936.484 8  20322860.602                    20322869.941
 115738639.360 7  90186017.181 7  22024330.594                    22024342.977
 126215565.809 6  98349824.320 6  24018022.563                    24018034.793
 110859360.041 7  86384062.55846  21095804.805                    21095812.129
 116563045.631 7  90828420.79045  22181208.133                    22181218.602
 11  8 27  1  5 30.0000000  0  8G04G10G12G05G25G29G02G30
 125846573.453 6  98062405.67243  23947790.680                    23947802.938
 116255820.563 7  90589078.02645  22122719.945                    22122730.184
 109454265.493 8  85289026.847 7  20828430.828                    20828440.105
 106777384.961 8  83203246.534 8  20319028.758                    20319038.020
 115691044.299 8  90148930.144 7  22015273.789                    22015285.914
 126132707.709 6  98285259.650 6  24002255.359                    24002266.250
 110887755.205 8  86406188.65846  21101208.570                    21101215.523
 116518194.326 7  90793471.71445  22172673.258                    22172684.055
 11  8 27  1  6  0.0000000  0  8G04G10G12G05G25G29G02G30
 125926009.603 6  98124303.97943  23962906.930                    23962919.105
 116338244.160 7  90653304.18145  22138404.508                    22138414.664
 109472075.468 8  85302904.747 7  20831819.750                    20831829.254
 106757824.359 8  83188004.535 8  20315306.609                    20315315.590
 115643971.145 8  90112249.787 7  22006315.758                    22006328.141
 126049800.428 7  98220656.668 6  23986478.258                    23986489.750
 110916272.791 8  86428410.15546  21106635.172                    21106642.465
 116473904.205 7  90758959.93145  22164244.938                    22164255.336
 11  8 27  1  6 30.0000000  0  8G04G10G12G05G25G29G02G30
 126005394.784 6  98186162.50843  23978013.125                    23978025.258
 116421053.126 7  90717830.62545  22154162.508                    22154172.883
 109490458.457 8  85317229.147 7  20835318.148                    20835327.262
 106738837.963 8  83173209.975 8  20311693.242                    20311702.215
 115597420.606 8  90075976.666 7  21997457.547                    21997469.527
 125966844.237 7  98156015.567 6  23970692.445                    23970703.602
 110944910.822 8  86450725.50746  21112084.836                    21112091.992
 116430175.900 7  90724885.91045  22155923.789                    22155934.320
 11  8 27  1  7  0.0000000  0  8G04G10G12G05G25G29G02G30
 126084728.934 7  98247981.32143  23993110.977                    23993122.465
 116504244.913 7  90782655.37345  22169993.398                    22170003.918
 109509413.713 8  85331999.475 7  20838925.266                    20838934.656
 106720426.622 8  83158863.504 8  20308189.875                    20308199.063
 115551394.726 8  90040112.374 7  21988699.320                    21988711.059
 125883840.393 7  98091337.332 6  23954897.602                    23954908.227
 110973669.146 8  86473134.60146  21117557.406                    21117564.867
 116387011.195 7  90691251.06245  22147709.820                    22147720.012
 11  8 27  1  7 30.0000000  0  8G04G10G12G05G25G29G02G30
 126164012.155 6  98309760.39443  24008197.406                    24008209.746
 116587817.549 7  90847776.88445  22185896.891                    22185907.191
 109528940.825 8  85347215.407 7  20842640.727                    20842650.211
 106702590.952 8  83144965.611 8  20304795.758                    20304805.180
 115505895.497 8  90004658.471 7  21980041.023                    21980052.770
 125800790.288 7  98026623.033 6  23939093.617                    23939104.047
 111002547.643 8  86495637.32546  21123052.359                    21123059.973
 116344411.781 7  90658056.70545  22139603.539                    22139613.730
 11  8 27  1  8  0.0000000  0  8G04G10G12G05G25G29G02G30
 126243243.516 6  98371499.08443  24023274.844                    24023287.207
 116671767.587 7  90913192.48045  22201872.055                    22201882.094
 109549038.750 8  85362876.117 7  20846465.531                    20846475.160
 106685330.804 8  83131516.176 8  20301511.172                    20301520.453
 115460924.079 8  89969615.849 7  21971482.766                    21971494.957
 125717694.723 7  97961873.327 6  23923280.727                    23923291.836
 111031545.114 8  86518232.75946  21128570.703                    21128578.234
 116302378.781 7  90625303.71845  22131604.734                    22131614.813
 11  8 27  1  8 30.0000000  0  8G04G10G12G05G25G29G02G30
 126322422.775 6  98433197.19043  24038342.688                    24038354.352
 116756092.240 7  90978899.96645  22217918.414                    22217928.605
 109569707.166 8  85378981.368 7  20850398.492                    20850407.918
 106668646.496 8  83118515.448 8  20298336.109                    20298345.867
 115416482.285 7  89934985.910 7  21963026.203                    21963037.914
 125634554.886 7  97897089.115 6  23907459.719                    23907471.219
 111060661.115 8  86540920.55146  21134111.258                    21134118.711
 116260913.668 7  90592993.24045  22123714.172                    22123724.359
 11  8 27  1  9  0.0000000  0  8G04G10G12G05G25G29G02G30
 126401549.122 6  98494854.04343  24053399.742                    24053411.883
 116840788.763 7  91044897.23845  22234035.609                    22234045.520
 109590944.773 8  85395530.146 7  20854440.188                    20854449.289
 106652537.849 8  83105963.282 8  20295270.633                    20295280.281
 115372571.335 8  89900769.624 7  21954670.336                    21954682.168
 125551371.673 7  97832271.094 6  23891629.906                    23891641.547
 111089894.468 8  86563699.78446  21139674.352                    21139681.672
 116220017.459 7  90561126.09045  22115932.117                    22115942.324
 11  8 27  1  9 30.0000000  0  8G04G10G12G05G25G29G02G30
 126480622.204 6  98556469.37243  24068446.703                    24068458.848
 116925854.200 7  91111181.95644  22250223.828                    22250233.660
 109612750.719 8  85412521.784 7  20858589.398                    20858598.480
 106637004.989 8  83093859.781 8  20292315.039                    20292324.305
 115329192.467 8  89866967.949 7  21946415.453                    21946427.215
 125468146.090 7  97767420.073 6  23875793.172                    23875804.152
 111119244.476 8  86586569.92446  21145259.359                    21145266.629
 116179691.270 7  90529703.09945  22108257.945                    22108268.230
 11  8 27  1 10  0.0000000  0  8G04G10G12G05G25G29G02G30
 126559642.084 6  98618043.26143  24083483.594                    24083495.867
 117011285.987 7  91177752.15045  22266480.844                    22266490.430
 109635124.402 8  85429955.815 7  20862846.602                    20862856.219
 106622048.333 8  83082205.275 8  20289468.742                    20289477.770
 115286347.723 8  89833582.473 7  21938262.164                    21938274.371
 125384879.469 7  97702537.048 6  23859947.609                    23859958.777
 111148711.097 8  86609530.93046  21150866.477                    21150874.004
 116139936.696 7  90498725.52545  22100693.289                    22100703.520
 11  8 27  1 10 30.0000000  0  8G04G10G12G05G25G29G02G30
 126638608.109 6  98679575.20143  24098509.922                    24098522.523
 117097081.063 7  91244605.43945  22282806.914                    22282816.785
 109658064.518 8  85447831.216 7  20867212.320                    20867221.656
 106607667.996 8  83070999.837 8  20286732.820                    20286741.766
 115244038.251 8  89800614.071 7  21930210.953                    21930222.668
 125301572.961 7  97637622.942 6  23844094.977                    23844106.172
 111178293.167 8  86632581.89246  21156495.750                    21156503.684
 116100754.820 7  90468194.20345  22093237.172                    22093246.941
 11  8 27  1 11  0.0000000  0  8G04G10G12G05G25G29G02G30
 126717519.526 6  98741064.54443  24113526.453                    24113538.484
 117183236.264 7  91311739.35445  22299201.398                    22299211.512
 109681570.094 8  85466147.241 7  20871685.617                    20871694.676
 106593863.416 8  83060243.054 8  20284105.453                    20284114.172
 115202265.320 8  89768063.763 7  21922261.891                    21922274.039
 125218227.224 7  97572678.270 6  23828234.977                    23828246.012
 111207989.706 8  86655722.05746  21162146.719                    21162154.273
 116062146.742 7  90438110.01445  22085890.563                    22085900.695
 11  8 27  1 11 30.0000000  0  8G04G10G12G05G25G29G02G30
 126796376.224 6  98802511.25843  24128532.328                    24128544.605
 117269748.748 7  91379151.66645  22315663.969                    22315674.629
 109705640.213 8  85484903.169 7  20876266.172                    20876275.191
 106580634.892 8  83049935.144 8  20281588.094                    20281597.148
 115161030.394 8  89735932.675 7  21914414.820                    21914427.164
 125134843.660 7  97507704.113 6  23812367.234                    23812377.977
 111237800.254 8  86678951.06146  21167819.281                    21167827.207
 116024113.570 7  90408473.80545  22078652.453                    22078663.004
 11  8 27  1 12  0.0000000  0  8G04G10G12G05G25G29G02G30
 126875177.925 6  98863915.14543  24143528.297                    24143540.453
 117356616.192 7  91446840.54944  22332194.461                    22332204.625
 109730274.073 8  85504098.374 7  20880953.492                    20880962.512
 106567982.654 8  83040076.287 8  20279180.547                    20279189.336
 115120335.035 8  89704222.031 7  21906670.789                    21906682.668
 125051423.446 7  97442701.403 6  23796493.234                    23796504.086
 111267724.468 8  86702268.63646  21173514.023                    21173521.266
 115986656.615 7  90379286.59245  22071524.555                    22071535.410
 11  8 27  1 12 30.0000000  0  9G04G10G12G26G05G25G29G02G30
 126953923.996 6  98925275.63843  24158513.547                    24158525.488
 117443835.358 7  91514803.53344  22348791.555                    22348802.273
 109755470.600 8  85523732.037 7  20885748.320                    20885757.051
 130603140.31215                  24852957.602
 106555906.480 8  83030666.320 8  20276882.484                    20276891.543
 115080180.346 7  89672932.678 7  21899029.508                    21899041.848
 124967967.443 7  97377670.819 6  23780611.805                    23780622.984
 111297761.245 8  86725673.92046  21179229.891                    21179236.758
 115949776.817 7  90350549.12345  22064506.805                    22064517.484
 11  8 27  1 13  0.0000000  0  9G04G10G12G26G05G25G29G02G30
 127032613.964 6  98986592.44243  24173487.789                    24173500.363
 117531403.382 7  91583038.34644  22365455.922                    22365465.922
 109781228.433 8  85543803.062 7  20890649.766                    20890658.879
 130511750.09816 101697557.09853  24835567.664                    24835582.516
 106544406.076 8  83021704.994 8  20274693.695                    20274703.281
 115040567.628 8  89642065.652 7  21891491.695                    21891503.500
 124884477.125 7  97312613.493 6  23764724.289                    23764735.191
 111327909.961 8  86749166.42546  21184967.117                    21184974.207
 115913475.097 7  90322262.08745  22057599.383                    22057609.059
 11  8 27  1 13 30.0000000  0  9G04G10G12G26G05G25G29G02G30
 127111247.248 6  99047865.05543  24188451.016                    24188463.238
 117619317.081 7  91651542.50545  22382184.703                    22382195.496
 109807546.253 8  85564310.447 7  20895657.797                    20895666.555
 130420215.696 6 101626231.89543  24818149.008                    24818164.176
 106533481.169 8  83013192.114 8  20272615.016                    20272624.156
 115001497.733 8  89611621.600 7  21884056.828                    21884068.973
 124800952.819 7  97247529.686 6  23748830.313                    23748841.109
 111358169.312 8  86772745.13546  21190725.063                    21190732.484
 115877752.222 7  90294426.11045  22050800.852                    22050811.711
 11  8 27  1 14  0.0000000  0  9G04G10G12G26G05G25G29G02G30
 127189823.792 6  99109093.43343  24203403.125                    24203416.535
 117707573.615 7  91720313.81044  22398979.500                    22398990.785
 109834422.988 8  85585253.354 7  20900772.438                    20900781.707
 130328539.693 6 101554796.32543  24800703.492                    24800718.648
 106523131.733 8  83005127.654 8  20270645.516                    20270654.648
 114962972.313 8  89581601.804 7  21876725.641                    21876737.516
 124717395.947 7  97182420.499 6  23732929.109                    23732940.840
 111388539.012 8  86796409.84146  21196504.250                    21196511.801
 115842609.415 7  90267042.14545  22044113.781                    22044123.949
 11  8 27  1 14 30.0000000  0  9G04G10G12G26G05G25G29G02G30
 127268343.538 6  99170277.56143  24218345.141                    24218358.168
 117796170.693 7  91789350.48244  22415838.875                    22415849.824
 109861858.181 8  85606631.419 7  20905993.227                    20906002.203
 130236724.997 6 101483252.69943  24783231.430                    24783245.730
 106513358.237 8  82997511.972 8  20268785.820                    20268794.871
 114924992.985 8  89552007.526 7  21869498.648                    21869510.309
 124633808.193 7  97117287.243 6  23717024.117                    23717034.406
 111419019.017 8  86820160.49646  21202304.422                    21202311.770
 115808048.201 7  90240111.35845  22037536.438                    22037547.094
 11  8 27  1 15  0.0000000  0  9G04G10G12G26G05G25G29G02G30
 127346805.672 6  99231416.77343  24233276.211                    24233287.855
 117885104.843 7  91858649.80144  22432762.625                    22432773.801
 109889850.210 8  85628443.391 7  20911320.258                    20911328.828
 130144774.292 6 101411603.07643  24765734.602                    24765748.586
 106504159.687 8  82990344.307 8  20267035.336                    20267044.223
 114887560.487 8  89522839.361 7  21862375.297                    21862387.176
 124550190.377 7  97052130.560 6  23701111.875                    23701122.281
 111449608.018 8  86843996.07846  21208125.313                    21208132.387
 115774068.947 7  90213634.02545  22031070.625                    22031081.180
 11  8 27  1 15 30.0000000  0  9G04G10G12G26G05G25G29G02G30
 127425210.119 6  99292511.04543  24248196.320                    24248208.598
 117974373.431 7  91928209.72744  22449749.656                    22449760.395
 109918397.934 8  85650688.363 7  20916752.297                    20916761.730
 130052690.427 6 101339849.68943  24748210.852                    24748225.809
 106495536.079 8  82983624.643 8  20265394.367                    20265403.207
 114850676.152 8  89494098.341 7  21855356.156                    21855368.355
 124466543.611 7  96986951.303 6  23685194.211                    23685205.059
 111480305.576 8  86867916.26046  21213966.875                    21213973.695
 115740672.748 7  90187611.02345  22024715.492                    22024726.047
 11  8 27  1 16  0.0000000  0  9G04G10G12G26G05G25G29G02G30
 127503556.406 6  99353560.00943  24263105.141                    24263118.289
 118063973.558 7  91998027.99044  22466800.359                    22466810.516
 109947500.245 8  85673365.484 7  20922290.563                    20922299.551
 129960476.192 6 101267994.69743  24730662.688                    24730677.688
 106487487.485 8  82977353.054 8  20263862.406                    20263871.742
 114814341.358 7  89465785.529 7  21848442.008                    21848454.371
 124382869.396 7  96921750.667 6  23669270.516                    23669282.348
 111511111.073 8  86891920.54246  21219828.844                    21219836.293
 115707860.735 7  90162043.23445  22018471.469                    22018481.660
 11  8 27  1 16 30.0000000  0  9G04G10G12G26G05G25G29G02G30
 127581844.426 7  99414563.61143  24278003.398                    24278015.535
 118153902.855 7  92068102.73944  22483913.477                    22483924.199
 109977155.961 8  85696473.828 7  20927933.930                    20927942.516
 129868134.514 6 101196040.41443  24713090.633                    24713105.949
 106480013.711 8  82971529.365 8  20262440.438                    20262449.121
 114778557.371 8  89437901.911 7  21841632.664                    21841644.648
 124299168.950 7  96856529.607 6  23653343.672                    23653354.402
 111542024.096 8  86916008.61346  21225711.484                    21225718.844
 115675633.898 7  90136931.42445  22012338.719                    22012349.000
 11  8 27  1 17  0.0000000  0  9G04G10G12G26G05G25G29G02G30
 127660073.891 7  99475521.59243  24292889.734                    24292902.328
 118244157.734 7  92138431.20544  22501088.125                    22501098.973
 110007363.680 8  85720012.304 7  20933682.383                    20933691.242
 129775668.386 6 101123989.11043  24695494.563                    24695509.734
 106473114.390 8  82966153.310 8  20261127.578                    20261136.672
 114743325.143 8  89410448.243 7  21834927.945                    21834940.168
 124215443.297 7  96791288.889 6  23637411.242                    23637422.164
 111573043.922 7  86940179.91046  21231614.273                    21231621.582
 115643992.891 7  90112276.09645  22006317.953                    22006328.391
 11  8 27  1 17 30.0000000  0  9G04G10G12G26G05G25G29G02G30
 127738244.478 7  99536433.69643  24307764.805                    24307776.699
 118334735.541 7  92209011.28844  22518324.727                    22518335.012
 110038122.380 8  85743980.128 7  20939535.305                    20939543.730
 129683080.587 6 101051842.98543  24677875.438                    24677890.656
 106466789.295 8  82961224.691 8  20259923.828                    20259932.852
 114708645.832 7  89383425.419 7  21828329.000                    21828340.836
 124131693.715 7  96726029.533 6  23621473.805                    23621485.016
 111604169.868 8  86964433.89446  21237537.547                    21237544.676
 115612938.617 7  90088077.95845  22000408.328                    22000419.188
 11  8 27  1 18  0.0000000  0  9G04G10G12G26G05G25G29G02G30
 127816355.729 7  99597299.56843  24322629.008                    24322641.102
 118425633.328 7  92279840.71244  22535621.367                    22535632.605
 110069431.094 8  85768376.525 7  20945492.945                    20945502.234
 129590373.810 6 100979604.17943  24660233.328                    24660249.043
 106461037.856 8  82956743.080 8  20258829.297                    20258838.445
 114674520.559 8  89356834.306 7  21821835.023                    21821847.215
 124047921.308 7  96660752.407 6  23605532.602                    23605544.031
 111635401.285 8  86988770.05346  21243480.359                    21243488.000
 115582471.884 7  90064337.64745  21994610.898                    21994621.344
 11  8 27  1 18 30.0000000  0  9G04G10G12G26G05G25G29G02G30
 127894407.750 7  99658119.25043  24337482.117                    24337493.648
 118516848.536 6  92350917.44544  22552979.531                    22552989.867
 110101287.661 8  85793199.825 7  20951555.133                    20951564.383
 129497551.293 6 100907275.12443  24642570.078                    24642585.160
 106455860.250 8  82952708.608 8  20257843.984                    20257852.816
 114640950.547 8  89330675.878 7  21815447.070                    21815458.621
 123964127.463 7  96595458.572 6  23589586.906                    23589597.777
 111666737.901 8  87013188.19846  21249443.883                    21249451.242
 115552593.690 7  90041055.94145  21988925.055                    21988935.883
 11  8 27  1 19  0.0000000  0  9G04G10G12G26G05G25G29G02G30
 127972399.990 6  99718892.41043  24352323.055                    24352335.625
 118608377.810 7  92422238.92644  22570396.289                    22570407.043
 110133691.054 8  85818449.222 7  20957721.453                    20957731.008
 129404615.806 6 100834858.08442  24624885.055                    24624899.230
 106451256.085 8  82949120.975 8  20256967.594                    20256976.289
 114607936.757 7  89304950.870 7  21809164.617                    21809176.434
 123880313.858 7  96530149.330 6  23573637.773                    23573648.625
 111698179.063 8  87037687.79346  21255426.648                    21255434.246
 115523304.699 7  90018233.35945  21983351.883                    21983362.543
 11  8 27  1 19 30.0000000  0  9G04G10G12G26G05G25G29G02G30
 128050331.741 6  99779618.37843  24367153.539                    24367166.496
 118700218.023 7  92493802.68644  22587873.547                    22587884.156
 110166639.451 8  85844123.296 7  20963991.219                    20964000.301
 129311569.773 6 100762354.91943  24607178.992                    24607192.625
 106447223.701 8  82945978.883 8  20256200.703                    20256209.281
 114575479.631 8  89279659.626 7  21802987.617                    21802999.824
 123796480.864 7  96464824.989 6  23557684.969                    23557695.332
 111729723.267 8  87062267.69146  21261429.391                    21261437.160
 115494605.100 7  89995870.06045  21977890.289                    21977900.680
 11  8 27  1 20  0.0000000  0  9G04G10G12G26G05G25G29G02G30
 128128203.225 6  99840297.44643  24381971.828                    24381985.328
 118792366.906 7  92565606.97944  22605409.281                    22605419.348
 110200131.906 8  85870221.301 7  20970364.500                    20970373.387
 129218416.517 6 100689768.17443  24589453.281                    24589465.770
 106443763.664 8  82943282.773 8  20255542.242                    20255551.133
 114543580.753 8  89254803.387 7  21796918.016                    21796930.090
 123712630.215 7  96399486.899 6  23541728.195                    23541738.773
 111761370.917 8  87086928.18846  21267452.070                    21267459.207
 115466496.056 7  89973966.91945  21972541.172                    21972551.668
 11  8 27  1 20 30.0000000  0  9G04G10G12G26G05G25G29G02G30
 128206013.996 6  99900929.14043  24396778.406                    24396791.184
 118884821.172 6  92637649.21644  22623002.492                    22623012.668
 110234166.795 8  85896741.996 7  20976841.359                    20976850.676
 129125158.851 6 100617100.03042  24571704.906                    24571719.688
 106440875.150 8  82941031.998 8  20254992.516                    20255001.160
 114512240.735 8  89230382.606 7  21790954.008                    21790966.168
 123628762.966 6  96334135.870 6  23525769.156                    23525779.180
 111793121.016 7  87111668.51946  21273493.695                    21273501.598
 115438978.068 7  89952524.33445  21967304.859                    21967315.203
 11  8 27  1 21  0.0000000  0  9G04G10G12G26G05G25G29G02G30
 128283764.102 6  99961513.56143  24411574.875                    24411586.277
 118977577.987 6  92709927.21944  22640653.727                    22640663.754
 110268742.995 8  85923684.479 7  20983421.000                    20983430.082
 129031799.804 6 100544352.99242  24553939.406                    24553953.027
 106438558.098 8  82939226.524 8  20254551.375                    20254560.227
 114481460.901 7  89206398.347 7  21785096.953                    21785109.051
 123544880.853 7  96268773.273 6  23509806.883                    23509817.289
 111824973.260 7  87136488.45246  21279554.992                    21279562.160
 115412052.044 7  89931543.02745  21962180.891                    21962191.313
 11  8 27  1 21 30.0000000  0  9G04G10G12G26G05G25G29G02G30
 128361453.004 7 100022050.35143  24426358.219                    24426370.824
 119070634.288 6  92782438.57744  22658361.484                    22658371.707
 110303858.749 8  85951047.395 7  20990103.281                    20990112.660
 128938342.314 6 100471529.12943  24536155.109                    24536168.879
 106436811.671 8  82937865.690 8  20254219.070                    20254227.879
 114451241.906 8  89182851.100 7  21779346.680                    21779358.617
 123460984.870 7  96203399.859 6  23493841.469                    23493852.582
 111856926.793 7  87161387.30146  21285635.563                    21285643.055
 115385718.331 7  89911023.27245  21957169.789                    21957180.410
 11  8 27  1 22  0.0000000  0  9G04G10G12G26G05G25G29G02G30
 128439080.752 7 100082539.46243  24441130.047                    24441142.656
 119163987.322 6  92855181.15944  22676126.336                    22676136.160
 110339512.716 8  85978829.692 7  20996887.992                    20996897.117
 128844789.350 6 100398630.96843  24518351.977                    24518367.246
 106435635.636 8  82936949.317 8  20253995.281                    20254004.125
 114421584.924 8  89159741.780 7  21773702.805                    21773714.773
 123377076.425 7  96138016.743 6  23477874.063                    23477885.270
 111888981.390 7  87186364.91246  21291735.555                    21291742.680
 115359977.900 7  89890965.80845  21952271.266                    21952281.496
 11  8 27  1 22 30.0000000  0  9G04G10G12G26G05G25G29G02G30
 128516647.016 7 100142980.66343  24455890.531                    24455903.246
 119257634.259 6  92928152.75844  22693946.711                    22693957.082
 110375702.986 8  86007029.888 7  21003774.805                    21003783.863
 128751143.774 6 100325660.64843  24500532.305                    24500546.867
 106435029.081 8  82936476.702 8  20253879.828                    20253888.781
 114392490.588 8  89137070.884 7  21768166.609                    21768178.238
 123293156.675 7  96072624.806 6  23461905.148                    23461915.934
 111921136.231 7  87211420.63146  21297854.023                    21297861.586
 115334830.998 7  89871370.84245  21947486.508                    21947496.934
 11  8 27  1 23  0.0000000  0  9G04G10G12G26G05G25G29G02G30
 128594151.286 7 100203373.55143  24470639.531                    24470651.191
 119351572.176 6  93001351.09144  22711822.930                    22711832.727
 110412428.407 8  86035647.092 7  21010763.016                    21010772.660
 128657408.795 6 100252620.59243  24482694.469                    24482709.109
 106434991.481 8  82936447.428 8  20253872.492                    20253881.496
 114363959.689 8  89114839.031 7  21762737.273                    21762749.164
 123209226.865 7  96007225.013 6  23445933.750                    23445944.152
 111953390.866 7  87236554.11346  21303992.211                    21303999.516
 115310278.205 7  89852238.82445  21942813.953                    21942824.387
 11  8 27  1 23 30.0000000  0  9G04G10G12G26G05G25G29G02G30
 128671593.382 6 100263718.07243  24485375.883                    24485387.836
 119445798.416 6  93074774.09744  22729753.156                    22729763.492
 110449687.415 8  86064680.068 7  21017853.273                    21017862.770
 128563587.170 7 100179513.06043  24464840.602                    24464855.266
 106435522.553 8  82936861.262 8  20253973.844                    20253983.273
 114335993.303 8  89093047.067 7  21757415.531                    21757427.219
 123125288.790 6  95941818.786 6  23429961.219                    23429971.375
 111985744.822 7  87261764.98446  21310149.148                    21310156.035
 115286320.227 7  89833570.28445  21938255.367                    21938265.082
 11  8 27  1 24  0.0000000  0  9G04G10G12G26G05G25G29G02G30
 128748973.471 6 100324014.19342  24500101.109                    24500112.480
 119540309.841 6  93148419.32344  22747738.188                    22747748.648
 110487478.377 8  86094127.554 7  21025044.617                    21025053.797
 128469681.941 7 100106340.41643  24446971.234                    24446986.199
 106436621.670 8  82937717.738 8  20254182.727                    20254191.625
 114308592.122 8  89071695.509 7  21752201.148                    21752213.020
 123041343.576 6  95876406.991 6  23413986.977                    23413997.797
 112018197.586 7  87287052.85346  21316324.016                    21316331.574
 115262957.432 7  89815365.53445  21933809.430                    21933819.352
 11  8 27  1 24 30.0000000  0  9G04G10G12G26G05G25G29G02G30
 128826291.270 6 100384261.84342  24514813.570                    24514826.172
 119635103.619 6  93222284.56444  22765777.000                    22765787.363
 110525799.978 8  86123988.535 7  21032337.461                    21032346.348
 128375696.283 6 100033105.08543  24429086.297                    24429100.930
 106438288.441 8  82939016.544 8  20254499.570                    20254508.797
 114281757.107 8  89050785.118 7  21747094.172                    21747106.531
 122957392.670 6  95810990.768 6  23398011.063                    23398021.469
 112050748.790 8  87312417.42946  21322518.422                    21322525.645
 115240190.436 7  89797625.03645  21929476.586                    21929486.578
 11  8 27  1 25  0.0000000  0  9G04G10G12G26G05G25G29G02G30
 128903546.417 6 100444460.60843  24529514.391                    24529527.090
 119730176.465 6  93296367.26044  22783868.531                    22783878.957
 110564650.106 8  86154261.339 7  21039730.438                    21039739.375
 128281633.108 6  99959809.33843  24411186.461                    24411200.938
 106440521.439 8  82940756.559 8  20254924.766                    20254933.992
 114255488.782 8  89030316.304 7  21742095.852                    21742107.574
 122873437.242 6  95745571.010 6  23382034.695                    23382045.801
 112083397.698 7  87337858.14346  21328731.305                    21328738.965
 115218019.470 7  89780348.98945  21925257.688                    21925267.457
 11  8 27  1 25 30.0000000  0  9G04G10G12G26G05G25G29G02G30
 128980738.790 6 100504610.51342  24544204.383                    24544216.105
 119825525.547 6  93370665.20044  22802013.031                    22802023.488
 110604026.944 8  86184944.569 7  21047223.547                    21047232.965
 128187495.283 7  99886455.40543  24393272.266                    24393286.973
 106443319.957 8  82942937.240 8  20255457.227                    20255466.383
 114229787.647 8  89010289.453 7  21737205.023                    21737216.617
 122789478.893 6  95680148.984 6  23366057.945                    23366068.832
 112116143.485 7  87363374.35046  21334963.086                    21334970.453
 115196444.776 7  89763537.57045  21921152.398                    21921162.723
 11  8 27  1 26  0.0000000  0  9G04G10G12G26G05G25G29G02G30
 129057868.359 6 100564711.46242  24558880.250                    24558894.020
 119921148.343 6  93445176.42444  22820209.297                    22820219.613
 110643929.635 8  86216037.566 7  21054816.508                    21054825.777
 128093286.358 6  99813046.06643  24375344.938                    24375359.480
 106446684.280 8  82945558.804 8  20256097.766                    20256106.965
 114204655.139 8  88990705.675 7  21732422.664                    21732434.434
 122705518.886 6  95614725.653 6  23350081.266                    23350091.695
 112148986.473 7  87388966.27946  21341212.938                    21341220.008
 115175467.355 7  89747191.54645  21917160.359                    21917170.520
 11  8 27  1 26 30.0000000  0  9G04G10G12G26G05G25G29G02G30
 129134934.726 6 100624763.11142  24573545.820                    24573559.445
 120017041.522 6  93519898.33944  22838457.172                    22838467.609
 110684355.712 8  86247538.387 7  21062509.188                    21062518.480
 127999009.064 6  99739583.44743  24357404.367                    24357418.938
 106450612.615 8  82948619.865 8  20256845.070                    20256854.098
 114180091.299 8  88971565.019 7  21727748.039                    21727760.000
 122621558.407 6  95549301.968 6  23334103.453                    23334113.969
 112181925.452 7  87414633.02146  21347480.789                    21347488.027
 115155087.016 8  89731310.76845  21913282.602                    21913292.125
 11  8 27  1 27  0.0000000  0  9G04G10G12G26G05G25G29G02G30
 129211938.112 6 100684765.71843  24588199.523                    24588212.918
 120113202.498 6  93594828.92744  22856756.141                    22856766.699
 110725303.774 8  86279445.948 7  21070301.586                    21070310.563
 127904666.499 6  99666069.98643  24339451.484                    24339465.625
 106455104.833 8  82952120.313 8  20257699.867                    20257708.813
 114156097.094 8  88952868.238 7  21723182.492                    21723194.000
 122537599.260 6  95483879.331 6  23318126.813                    23318137.648
 112214960.392 7  87440374.54146  21353766.961                    21353774.418
 115135304.417 7  89715895.77345  21909517.477                    21909527.258
 11  8 27  1 27 30.0000000  0  9G04G10G12G26G05G25G29G02G30
 129288877.842 6 100744718.69943  24602841.313                    24602853.566
 120209628.172 7  93669965.76044  22875105.273                    22875115.957
 110766771.975 8  86311758.812 7  21078193.055                    21078201.949
 127810261.673 6  99592508.00043  24321486.758                    24321500.063
 106460159.512 8  82956059.034 8  20258661.695                    20258670.789
 114132672.916 8  88934615.631 7  21718724.680                    21718736.617
 122453642.685 7  95418458.690 6  23302150.383                    23302161.082
 112248090.637 7  87466190.32746  21360071.422                    21360078.723
 115116119.558 7  89700946.55245  21905866.648                    21905877.086
 11  8 27  1 28  0.0000000  0  9G04G10G12G26G05G25G29G02G30
 129365754.162 6 100804622.29143  24617470.352                    24617483.004
 120306315.761 7  93745306.69944  22893504.344                    22893515.125
 110808758.606 8  86344475.645 7  21086182.688                    21086191.727
 127715797.735 6  99518899.91643  24303511.039                    24303523.348
 106465776.180 8  82960435.675 8  20259730.406                    20259739.918
 114109819.452 8  88916807.733 7  21714376.023                    21714387.953
 122369690.208 7  95353041.228 6  23286174.195                    23286185.137
 112281315.775 8  87492080.04846  21366393.602                    21366401.152
 115097532.812 8  89686463.38945  21902329.633                    21902339.797
 11  8 27  1 28 30.0000000  0  9G04G10G12G26G05G25G29G02G30
 129442566.720 6 100864476.22643  24632087.438                    24632099.910
 120403262.575 7  93820849.62044  22911952.789                    22911963.176
 110851262.034 8  86377595.178 7  21094270.625                    21094279.887
 127621277.904 6  99445248.25043  24285523.781                    24285537.047
 106471954.194 8  82965249.723 8  20260906.313                    20260915.129
 114087537.392 8  88899445.081 7  21710135.930                    21710147.902
 122285743.221 7  95287628.040 6  23270199.961                    23270210.449
 112314635.171 7  87518043.20546  21372734.805                    21372741.340
 115079544.525 8  89672446.54745  21898906.656                    21898916.859
 11  8 27  1 29  0.0000000  0  9G04G10G12G26G05G25G29G02G30
 129519315.653 6 100924280.54243  24646692.250                    24646704.973
 120500465.830 7  93896592.37044  22930449.930                    22930461.008
 110894280.330 8  86411115.901 7  21102456.898                    21102465.715
 127526705.205 6  99371555.44743  24267526.766                    24267540.297
 106478692.873 8  82970500.657 8  20262188.586                    20262197.438
 114065827.417 8  88882528.216 7  21706004.398                    21706016.484
 122201803.363 6  95222220.415 6  23254226.656                    23254236.910
 112348048.886 8  87544079.85946  21379093.016                    21379099.957
 115062155.084 7  89658896.33745  21895597.266                    21895607.645
 11  8 27  1 29 30.0000000  0  9G04G10G12G26G05G25G29G02G30
 129596000.501 6 100984034.94843  24661284.648                    24661297.535
 120597922.198 7  93972532.35544  22948995.570                    22949006.336
 110937811.508 8  86445036.272 7  21110740.391                    21110749.777
 127432082.612 6  99297823.67843  24249521.703                    24249534.406
 106485990.695 8  82976187.283 8  20263577.406                    20263586.148
 114044689.639 8  88866057.230 7  21701981.953                    21701994.184
 122117871.846 7  95156819.302 6  23238255.047                    23238265.496
 112381555.876 8  87570189.20246  21385468.695                    21385476.145
 115045364.197 8  89645812.52645  21892402.227                    21892412.805
 11  8 27  1 30  0.0000000  0  8G10G12G26G05G25G29G02G30
 120695629.384 7  94048667.77044  22967588.680                    22967599.207
 110981853.811 8  86479354.930 7  21119121.414                    21119130.406
 127337413.464 6  99224055.69443  24231506.195                    24231519.195
 106493847.119 8  82982309.190 8  20265072.156                    20265080.820
 114024124.992 8  88850032.827 7  21698068.734                    21698081.027
 122033950.524 7  95091426.122 6  23222285.930                    23222295.754
 112415156.253 8  87596371.31746  21391863.031                    21391870.789
 115029172.447 8  89633195.57145  21889321.172                    21889331.664
 11  8 27  1 30 30.0000000  0  8G10G12G26G05G25G29G02G30
 120793584.391 6  94124996.30844  22986228.914                    22986239.480
 111026405.843 8  86514070.774 7  21127599.680                    21127608.969
 127242701.436 6  99150254.31643  24213481.945                    24213495.988
 106502261.945 8  82988866.213 8  20266673.578                    20266682.402
 114004134.243 8  88834455.622 7  21694264.375                    21694276.723
 121950040.771 7  95026041.953 6  23206318.336                    23206328.465
 112448849.826 8  87622626.04846  21398274.852                    21398282.250
 115013580.325 8  89621045.87445  21886354.070                    21886364.074
 11  8 27  1 31  0.0000000  0  8G10G12G26G05G25G29G02G30
 120891784.013 6  94201515.46844  23004915.477                    23004926.281
 111071465.004 8  86549181.795 7  21136174.172                    21136183.371
 127147948.727 6  99076421.20643  24195451.602                    24195464.410
 106511232.956 8  82995856.621 8  20268380.578                    20268389.270
 113984717.116 8  88819325.404 7  21690569.695                    21690581.695
 121866143.820 7  94960667.771 6  23190352.813                    23190363.430
 112482635.314 8  87648952.39946  21404703.734                    21404711.168
 114998587.201 8  89609362.90745  21883501.336                    21883511.168
 11  8 27  1 31 30.0000000  0  8G10G12G26G05G25G29G02G30
 120990225.337 6  94278222.94644  23023648.133                    23023658.938
 111117029.584 8  86584686.642 7  21144844.648                    21144853.789
 127053158.806 6  99002559.07343  24177413.938                    24177425.836
 106520759.482 8  83003279.902 8  20270193.555                    20270202.262
 113965874.190 8  88804642.603 7  21686983.570                    21686996.117
 121782261.062 7  94895304.648 6  23174390.219                    23174400.859
 112516512.762 8  87675350.40046  21411150.711                    21411157.746
 114984193.218 7  89598146.80745  21880762.055                    21880772.449
 11  8 27  1 32  0.0000000  0  8G10G12G26G05G25G29G02G30
 121088905.502 6  94355116.54444  23042426.383                    23042437.496
 111163097.909 8  86620584.016 7  21153611.078                    21153620.551
 126958334.872 6  98928670.47043  24159369.117                    24159382.012
 106530840.747 8  83011135.453 8  20272112.227                    20272120.527
 113947605.986 8  88790407.655 7  21683507.219                    21683519.531
 121698394.283 7  94829953.973 6  23158430.859                    23158441.379
 112550481.639 8  87701819.65946  21417614.664                    21417622.426
 114970398.690 8  89587397.81645  21878136.945                    21878146.746
 11  8 27  1 32 30.0000000  0  8G10G12G26G05G25G29G02G30
 121187821.693 6  94432194.06244  23061249.211                    23061259.883
 111209667.534 8  86656872.019 7  21162473.336                    21162482.730
 126863480.000 6  98854757.77743  24141318.953                    24141332.004
 106541475.459 8  83019422.261 8  20274135.656                    20274144.488
 113929912.827 8  88776620.788 7  21680140.422                    21680152.926
 121614544.906 7  94764616.848 6  23142474.695                    23142485.266
 112584541.545 8  87728359.84946  21424096.078                    21424104.188
 114957203.496 8  89577115.84545  21875625.875                    21875636.426
 11  8 27  1 33  0.0000000  0  8G10G12G26G05G25G29G02G30
 121286971.255 6  94509453.40844  23080116.906                    23080127.789
 111256737.335 8  86693549.770 7  21171430.492                    21171439.680
 126768597.750 6  98780823.72243  24123262.914                    24123275.723
 106552663.268 8  83028140.055 8  20276264.547                    20276273.289
 113912795.313 8  88763282.471 7  21676883.086                    21676895.219
 121530714.648 7  94699294.633 6  23126522.523                    23126533.207
 112618692.550 8  87754971.03046  21430594.570                    21430602.172
 114944607.898 7  89567301.09345  21873229.219                    21873239.238
 11  8 27  1 33 30.0000000  0  8G10G12G26G05G25G29G02G30
 121386350.901 6  94586892.07143  23099028.492                    23099039.113
 111304305.128 8  86730615.576 7  21180482.195                    21180491.160
 126673691.204 7  98706870.78243  24105203.031                    24105215.207
 106564402.570 8  83037287.583 8  20278498.219                    20278506.980
 113896253.514 8  88750392.777 7  21673735.406                    21673747.535
 121446904.958 7  94633988.434 6  23110574.250                    23110584.680
 112652933.953 8  87781652.64546  21437110.727                    21437118.000
 114932611.679 8  89557953.39745  21870946.773                    21870956.730
 11  8 27  1 34  0.0000000  0  8G10G12G26G05G25G29G02G30
 121485958.132 6  94664508.05043  23117983.164                    23117993.813
 111352368.097 8  86768067.211 7  21189628.039                    21189637.191
 126578763.467 7  98632901.27843  24087138.609                    24087151.168
 106576692.363 8  83046864.066 8  20280837.336                    20280845.996
 113880287.731 8  88737951.920 7  21670696.930                    21670709.445
 121363117.311 7  94568699.414 6  23094629.344                    23094640.605
 112687265.106 8  87808404.18846  21443643.969                    21443651.078
 114921214.708 8  89549072.63645  21868778.039                    21868787.945
 11  8 27  1 34 30.0000000  0  8G10G12G26G05G25G29G02G30
 121585789.927 6  94742299.04344  23136980.867                    23136991.281
 111400924.287 8  86805903.194 7  21198868.188                    21198877.098
 126483817.621 7  98558917.71943  24069070.594                    24069083.375
 106589531.234 8  83056868.399 8  20283280.328                    20283289.207
 113864898.117 8  88725960.023 7  21667768.773                    21667780.797
 121279353.300 7  94503428.818 6  23078689.078                    23078700.000
 112721685.682 8  87835225.42246  21450193.273                    21450201.398
 114910416.837 7  89540658.72445  21866722.727                    21866732.516
 11  8 27  1 35  0.0000000  0  8G10G12G26G05G25G29G02G30
 121685843.676 7  94820262.95144  23156020.594                    23156031.270
 111449972.436 8  86844122.512 7  21208201.836                    21208211.188
 126388857.316 6  98484922.83943  24050999.656                    24051013.148
 106602918.860 8  83067300.332 8  20285827.914                    20285836.613
 113850085.429 8  88714417.682 7  21664949.945                    21664961.883
 121195614.914 7  94438178.192 6  23062754.805                    23062765.348
 112756195.827 8  87862116.44546  21456760.813                    21456768.098
 114900218.341 8  89532711.84545  21864782.375                    21864791.973
 11  8 27  1 35 30.0000000  0  8G10G12G26G05G25G29G02G30
 121786116.564 7  94898397.63544  23175101.547                    23175112.359
 111499510.532 8  86882723.607 7  21217628.438                    21217637.586
 126293885.711 7  98410919.14043  24032927.742                    24032939.996
 106616853.735 8  83078158.693 8  20288479.445                    20288488.668
 113835849.690 7  88703324.919 7  21662240.617                    21662253.125
 121111903.467 7  94372948.545 6  23046824.859                    23046835.777
 112790795.296 8  87889077.08446  21463344.797                    21463351.836
 114890618.972 8  89525231.83845  21862955.313                    21862965.438
 11  8 27  1 36  0.0000000  0  8G10G12G26G05G25G29G02G30
 121886605.626 7  94976700.78144  23194223.859                    23194235.031
 111549535.872 8  86921704.381 7  21227147.813                    21227156.926
 126198905.763 7  98336908.95943  24014853.242                    24014865.539
 106631334.439 8  83089442.376 8  20291234.891                    20291244.105
 113822190.869 8  88692681.693 7  21659641.586                    21659653.961
 121028220.321 7  94307740.951 6  23030901.008                    23030911.043
 112825483.192 8  87916106.61546  21469945.680                    21469953.223
 114881618.333 7  89518218.36245  21861242.336                    21861252.977
 11  8 27  1 36 30.0000000  0  8G10G12G26G05G25G29G02G30
 121987307.739 7  95055169.93043  23213387.203                    23213397.680
 111600046.291 8  86961063.127 7  21236760.008                    21236768.871
 126103921.040 7  98262895.02443  23996778.766                    23996790.176
 106646359.931 8  83101150.572 8  20294094.359                    20294103.332
 113809109.112 8  88682488.125 7  21657152.406                    21657164.305
 120944567.088 7  94242556.667 6  23014981.844                    23014992.332
 112860259.213 8  87943204.81646  21476562.953                    21476570.777
 114873216.194 7  89511671.25345  21859643.578                    21859653.871
 11  8 27  1 37  0.0000000  0  8G10G12G26G05G25G29G02G30
 122088220.323 7  95133803.10143  23232589.773                    23232600.820
 111651040.073 8  87000798.519 7  21246463.883                    21246473.219
 126008934.472 6  98188879.69243  23978702.906                    23978715.219
 106661928.747 8  83113282.132 8  20297057.172                    20297065.707
 113796604.633 8  88672744.379 7  21654773.023                    21654785.359
 120860945.634 7  94177397.150 7  22999069.492                    22999079.469
 112895123.011 8  87970371.42546  21483197.914                    21483204.879
 114865412.436 7  89505590.41945  21858158.242                    21858169.055
 11  8 27  1 37 30.0000000  0  8G10G12G26G05G25G29G02G30
 122189340.245 7  95212597.80644  23251832.789                    23251843.418
 111702514.533 8  87040908.476 7  21256258.969                    21256268.738
 125913949.347 6  98114865.47243  23960626.625                    23960639.879
 106678039.418 8  83125835.918 8  20300122.539                    20300131.629
 113784677.333 8  88663450.388 7  21652503.414                    21652515.316
 120777357.263 7  94112263.408 6  22983163.188                    22983173.406
 112930074.322 8  87997606.20946  21489848.664                    21489856.188
 114858206.522 7  89499975.43045  21856787.258                    21856797.711
 11  8 27  1 38  0.0000000  0  8G10G12G26G05G25G29G02G30
 122290665.150 7  95291552.25444  23271114.453                    23271125.570
 111754468.044 8  87081391.708 7  21266145.273                    21266154.578
 125818969.295 6  98040855.20043  23942553.563                    23942565.621
 106694691.450 8  83138811.534 8  20303291.414                    20303300.090
 113773327.658 8  88654606.490 7  21650343.680                    21650355.484
 120693804.034 7  94047157.057 6  22967263.578                    22967273.855
 112965113.017 8  88024909.08746  21496516.367                    21496523.359
 114851598.539 8  89494826.36345  21855530.023                    21855540.293
 11  8 27  1 38 30.0000000  0  8G10G12G26G05G25G29G02G30
 122392191.990 7  95370664.05644  23290434.227                    23290445.371
 111806898.041 8  87122246.228 7  21276122.359                    21276131.711
 125723997.348 6  97966851.23543  23924481.406                    23924492.727
 106711882.964 8  83152207.539 8  20306562.789                    20306571.805
 113762555.407 8  88646212.542 7  21648293.547                    21648305.777
 120610287.267 7  93982079.117 6  22951370.313                    22951380.281
 113000238.741 8  88052279.78246  21503200.555                    21503207.871
 114845587.944 7  89490142.79745  21854386.555                    21854396.594
 11  8 27  1 39  0.0000000  0  8G10G12G26G05G25G29G02G30
 122493918.099 7  95449931.11344  23309792.023                    23309803.051
 111859802.891 8  87163470.760 7  21286190.195                    21286199.004
 125629037.151 6  97892856.43843  23906410.133                    23906422.535
 106729613.217 8  83166023.324 8  20309936.898                    20309945.980
 113752361.094 8  88638268.929 7  21646353.617                    21646365.652
 120526808.828 7  93917031.040 6  22935485.125                    22935494.895
 113035451.590 8  88079718.36146  21509901.148                    21509908.488
 114840174.910 7  89485924.85445  21853355.977                    21853366.195
 11  8 27  1 39 30.0000000  0  8G10G12G26G05G25G29G02G30
 122595840.562 7  95529351.18944  23329187.234                    23329198.527
 111913180.290 8  87205063.528 7  21296347.398                    21296356.789
 125534091.668 6  97818873.13843  23888342.484                    23888355.145
 106747880.715 8  83180257.749 8  20313412.828                    20313421.828
 113742744.463 8  88630775.446 7  21644523.508                    21644535.895
 120443370.556 7  93852014.263 6  22919607.219                    22919617.121
 113070750.796 8  88107224.23346  21516618.617                    21516626.176
 114835358.721 7  89482171.99445  21852439.547                    21852449.660
 11  8 27  1 40  0.0000000  0  8G10G12G26G05G25G29G02G30
 122697956.612 7  95608922.11244  23348619.086                    23348630.094
 111967027.890 7  87247022.672 7  21306594.156                    21306603.496
 125439164.527 6  97744904.12043  23870278.406                    23870291.387
 106766684.195 8  83194909.811 8  20316991.242                    20317000.180
 113733705.505 8  88623732.104 7  21642803.523                    21642815.688
 120359974.133 7  93787030.113 7  22903737.406                    22903747.770
 113106136.253 8  88134797.30546  21523351.945                    21523360.105
 114831139.100 7  89478883.97745  21851636.516                    21851646.871
 11  8 27  1 40 30.0000000  0  8G10G12G26G05G25G29G02G30
 122800263.492 7  95688641.73843  23368087.117                    23368098.555
 112021343.533 8  87289346.519 7  21316930.281                    21316939.461
 125344258.877 6  97670951.83544  23852218.328                    23852230.793
 106786021.981 8  83209978.221 8  20320671.023                    20320679.984
 113725244.040 8  88617138.745 7  21641193.313                    21641205.414
 120276620.795 7  93722079.532 7  22887875.867                    22887885.953
 113141607.543 8  88162437.26346  21530102.422                    21530109.500
 114827515.365 8  89476060.29045  21850947.258                    21850957.238
 11  8 27  1 41  0.0000000  0  8G10G12G26G05G25G29G02G30
 122902758.268 7  95768507.75743  23387591.297                    23387601.996
 112076124.543 8  87332032.986 7  21327354.523                    21327364.031
 125249378.213 6  97597018.99743  23834163.133                    23834175.063
 106805892.841 8  83225462.012 8  20324452.492                    20324461.426
 113717360.148 8  88610995.438 7  21639693.383                    21639704.922
 120193312.521 7  93657164.067 7  22872022.516                    22872032.766
 113177164.538 8  88190144.00345  21536868.211                    21536875.867
 114824487.229 7  89473700.70045  21850370.938                    21850380.934
 11  8 27  1 41 30.0000000  0  8G10G12G26G05G25G29G02G30
 123005438.287 7  95848518.13543  23407131.109                    23407141.508
 112131368.839 8  87375080.472 7  21337867.125                    21337877.262
 125154525.845 6  97523108.20743  23816113.078                    23816125.324
 106826295.566 8  83241360.253 8  20328335.000                    20328344.184
 113710053.796 8  88605302.169 7  21638302.758                    21638314.777
 120110051.042 7  93592285.067 7  22856178.281                    22856188.531
 113212807.140 8  88217917.44146  21543650.922                    21543658.047
 114822054.349 8  89471804.94745  21849908.289                    21849917.992
 11  8 27  1 42  0.0000000  0  8G10G12G26G05G25G29G02G30
 123108300.581 7  95928670.55943  23426705.461                    23426715.520
 112187073.979 7  87418487.048 7  21348467.805                    21348477.332
 125059704.868 6  97449221.88443  23798069.195                    23798080.930
 106847228.203 8  83257671.404 8  20332318.367                    20332327.000
 113703324.594 8  88600058.621 7  21637022.367                    21637034.414
 120026837.913 7  93527443.738 6  22840343.602                    22840353.418
 113248534.625 8  88245757.01546  21550450.055                    21550457.164
 114820215.868 8  89470372.36645  21849558.133                    21849568.402
 11  8 27  1 42 30.0000000  0  8G10G12G26G05G25G29G02G30
 123211342.762 7  96008963.15543  23446313.656                    23446323.258
 112243237.621 7  87462250.912 7  21359154.992                    21359164.465
 124964918.795 6  97375362.74544  23780032.195                    23780044.160
 106868689.454 8  83274394.460 8  20336401.883                    20336411.355
 113697172.358 8  88595264.658 7  21635851.758                    21635863.301
 119943674.879 7  93462641.446 6  22824518.047                    22824528.102
 113284347.232 8  88273662.91546  21557264.906                    21557271.965
 114818971.287 8  89469402.55945  21849321.273                    21849331.512
 11  8 27  1 43  0.0000000  0  8G10G12G26G05G25G29G02G30
 123314561.720 7  96089393.50443  23465955.492                    23465965.668
 112299857.700 7  87506370.438 7  21369929.641                    21369939.086
 124870170.925 6  97301533.37143  23762001.906                    23762013.699
 106890677.966 8  83291528.367 8  20340586.328                    20340595.609
 113691597.011 8  88590920.214 7  21634790.656                    21634802.637
 119860563.661 7  93397879.514 7  22808702.484                    22808712.543
 113320244.299 8  88301634.62946  21564095.578                    21564102.969
 114818320.226 8  89468895.21645  21849197.469                    21849207.027
 11  8 27  1 43 30.0000000  0  8G10G12G26G05G25G29G02G30
 123417954.753 7  96169959.46943  23485630.508                    23485640.883
 112356932.110 7  87550843.986 7  21380790.664                    21380799.855
 124775465.087 6  97227736.72444  23743980.430                    23743991.344
 106913192.774 8  83309072.384 8  20344870.711                    20344879.676
 113686598.770 8  88587025.465 7  21633839.375                    21633851.484
 119777506.361 7  93333159.610 7  22792896.734                    22792907.031
 113356226.188 8  88329672.44545  21570942.680                    21570950.203
 114818262.303 8  89468850.06245  21849186.672                    21849196.234
 11  8 27  1 44  0.0000000  0  9G15G10G12G26G05G25G29G02G30
 129492674.95116                  24641664.406
 123521519.127 7  96250658.95844  23505337.984                    23505349.102
 112414458.530 7  87595669.755 7  21391737.656                    21391746.836
 124680804.553 6  97153975.40343  23725966.539                    23725977.684
 106936232.287 8  83327025.259 8  20349255.094                    20349263.887
 113682177.302 8  88583580.150 7  21632998.172                    21633010.082
 119694504.712 7  93268483.074 7  22777102.203                    22777112.445
 113392292.660 8  88357776.15745  21577805.961                    21577813.434
 114818796.890 8  89469266.60945  21849288.258                    21849298.402
 11  8 27  1 44 30.0000000  0  9G15G10G12G26G05G25G29G02G30
 129399851.894 6 100831192.02316  24624002.000                    24624016.016
 123625251.973 7  96331489.71043  23525077.867                    23525089.172
 112472433.781 7  87640845.255 7  21402769.836                    21402779.258
 124586192.332 6  97080251.71943  23707962.180                    23707973.387
 106959794.520 8  83345385.452 8  20353738.836                    20353747.598
 113678331.843 8  88580583.670 7  21632266.375                    21632278.344
 119611560.043 7  93203850.930 6  22761318.047                    22761328.691
 113428442.716 8  88385945.01045  21584684.828                    21584692.641
 114819922.879 8  89470143.98945  21849502.391                    21849512.746
 11  8 27  1 45  0.0000000  0  9G15G10G12G26G05G25G29G02G30
 129306892.762 6 100758756.650 6  24606311.945                    24606326.508
 123729150.216 7  96412449.37543  23544849.039                    23544860.230
 112530855.540 8  87686368.695 7  21413887.102                    21413896.516
 124491631.523 6  97006568.10343  23689967.469                    23689978.914
 106983877.400 8  83364151.340 8  20358321.703                    20358330.832
 113675061.885 8  88578035.642 7  21631644.359                    21631656.238
 119528673.885 7  93139264.375 7  22745545.508                    22745555.625
 113464676.280 8  88414178.94145  21591580.328                    21591587.621
 114821639.338 7  89471481.47845  21849829.359                    21849838.922
 11  8 27  1 45 30.0000000  0  9G15G10G12G26G05G25G29G02G30
 129213800.403 6 100686217.463 6  24588596.766                    24588610.523
 123833211.740 7  96493536.23743  23564651.164                    23564662.375
 112589721.926 7  87732238.596 7  21425088.906                    21425098.176
 124397126.392 6  96932927.86643  23671983.797                    23671996.063
 107008480.343 8  83383322.476 8  20363003.367                    20363012.789
 113672367.963 8  88575936.471 7  21631131.727                    21631143.406
 119445848.602 7  93074725.234 7  22729784.383                    22729794.363
 113500993.630 8  88442478.15646  21598491.102                    21598498.730
 114823946.374 7  89473279.16645  21850267.891                    21850278.180
 11  8 27  1 46  0.0000000  0  9G15G10G12G26G05G25G29G02G30
 129120577.336 6 100613576.412 6  24570856.969                    24570870.844
 123937433.702 7  96574748.10243  23584484.352                    23584495.004
 112649030.485 7  87778453.044 7  21436375.156                    21436384.941
 124302680.076 6  96859333.44343  23654011.461                    23654023.051
 107033601.450 8  83402897.376 8  20367783.859                    20367792.672
 113670249.464 8  88574285.685 7  21630728.547                    21630740.680
 119363085.991 7  93010234.933 6  22714035.672                    22714045.563
 113537394.695 8  88470842.60546  21605418.414                    21605425.723
 114826843.034 7  89475536.28445  21850819.125                    21850829.547
 11  8 27  1 46 30.0000000  0  9G15G10G12G26G05G25G29G02G30
 129027225.925 6 100540835.340 6  24553092.352                    24553105.906
 124041813.483 7  96656082.95243  23604346.883                    23604358.543
 112708778.787 8  87825010.146 7  21447745.086                    21447754.461
 124208296.267 7  96785787.73243  23636050.930                    23636062.047
 107059239.285 8  83422874.923 8  20372662.383                    20372671.434
 113668706.032 8  88573083.005 7  21630434.719                    21630446.656
 119280387.676 7  92945794.725 7  22698298.305                    22698308.320
 113573879.050 8  88499271.96045  21612360.797                    21612368.582
 114830328.554 7  89478252.25945  21851482.648                    21851492.668
 11  8 27  1 47  0.0000000  0  9G15G10G12G26G05G25G29G02G30
 128933748.984 6 100467996.485 6  24535302.945                    24535317.473
 124146348.114 7  96737538.45143  23624239.438                    23624250.883
 112768964.292 7  87871907.929 7  21459197.977                    21459207.219
 124113978.383 7  96712293.38944  23618102.766                    23618114.457
 107085392.548 8  83443254.095 8  20377639.359                    20377647.922
 113667737.528 8  88572328.313 7  21630250.547                    21630262.461
 119197755.894 7  92881406.368 7  22682574.156                    22682583.684
 113610446.819 8  88527766.30745  21619319.367                    21619326.953
 114834402.404 7  89481426.67545  21852257.797                    21852267.875
 11  8 27  1 47 30.0000000  0  9G15G10G12G26G05G25G29G02G30
 128840148.704 6 100395061.478 5  24517492.148                    24517505.762
 124251035.153 7  96819112.73844  23644160.680                    23644172.133
 112829585.022 7  87919144.840 7  21470733.672                    21470743.098
 124019729.871 7  96638853.09544  23600167.469                    23600179.145
 107112059.439 8  83464033.505 8  20382713.992                    20382722.766
 113667343.508 8  88572021.289 7  21630175.602                    21630187.758
 119115192.443 7  92817071.252 7  22666862.648                    22666872.984
 113647097.915 8  88556325.59446  21626293.719                    21626301.223
 114839063.784 7  89485058.91545  21853144.805                    21853155.102
 11  8 27  1 48  0.0000000  0  9G15G10G12G26G05G25G29G02G30
 128746427.593 6 100322032.354 5  24499657.688                    24499671.227
 124355871.606 7  96900803.41243  23664110.367                    23664121.785
 112890637.608 8  87966718.269 7  21482351.703                    21482360.695
 123925553.736 6  96565469.19544  23582246.234                    23582258.395
 107139237.742 7  83485211.428 8  20387885.508                    20387894.102
 113667523.144 8  88572161.269 7  21630209.734                    21630221.313
 119032698.760 7  92752790.498 7  22651164.828                    22651174.559
 113683831.748 7  88584949.35645  21633284.328                    21633291.398
 114844311.390 8  89489147.95445  21854143.070                    21854153.246
 11  8 27  1 48 30.0000000  0  9G15G10G12G26G05G25G29G02G30
 128652588.087 6 100248910.987 5  24481799.789                    24481813.457
 124460855.058 6  96982608.63443  23684088.414                    23684099.930
 112952120.272 7  88014626.828 7  21494051.516                    21494060.813
 123831453.939 6  96492144.78743  23564339.719                    23564350.977
 107166926.434 8  83506787.039 8  20393154.680                    20393163.629
 113668276.297 8  88572748.131 7  21630352.867                    21630365.023
 118950277.048 7  92688565.816 7  22635480.422                    22635490.598
 113720648.183 8  88613637.47646  21640289.750                    21640297.496
 114850144.731 8  89493693.41445  21855253.367                    21855263.895
 11  8 27  1 49  0.0000000  0  9G15G10G12G26G05G25G29G02G30
 128558632.730 6 100175699.322 5  24463920.203                    24463933.926
 124565983.057 7  97064526.48243  23704093.656                    23704105.113
 113014030.188 8  88062868.308 7  21505832.594                    21505841.945
 123737433.917 6  96418882.51944  23546448.219                    23546460.117
 107195123.811 7  83528759.033 8  20398520.641                    20398528.816
 113669602.569 8  88573781.586 7  21630605.055                    21630616.797
 118867928.960 7  92624398.504 7  22619809.602                    22619819.805
 113757547.700 8  88642390.34445  21647311.875                    21647319.531
 114856563.009 7  89498694.67645  21856474.805                    21856485.230
 11  8 27  1 49 30.0000000  0  9G15G10G12G26G05G25G29G02G30
 128464564.337 6 100102399.563 6  24446019.391                    24446033.027
 124671252.430 6  97146554.50243  23724125.484                    23724137.043
 113076364.916 8  88111440.797 7  21517694.539                    21517703.813
 123643496.992 6  96345685.00644  23528572.445                    23528584.781
 107223827.904 7  83551125.881 8  20403982.539                    20403991.293
 113671501.129 8  88575260.979 7  21630966.766                    21630978.551
 118785656.070 7  92560289.796 7  22604153.703                    22604163.805
 113794529.684 8  88671207.47745  21654349.297                    21654357.094
 114863565.048 8  89504150.80845  21857807.156                    21857817.273
 11  8 27  1 50  0.0000000  0  9G15G10G12G26G05G25G29G02G30
 128370385.326 6 100029013.631 6  24428096.781                    24428110.816
 124776660.695 7  97228690.76543  23744184.195                    23744195.793
 113139121.583 8  88160342.070 7  21529636.656                    21529645.805
 123549646.678 6  96272554.98243  23510713.438                    23510724.785
 107253037.085 8  83573886.295 8  20409540.898                    20409550.063
 113673971.552 8  88577185.987 7  21631436.688                    21631448.945
 118703460.408 7  92496241.250 7  22588512.625                    22588522.559
 113831594.139 8  88700088.86445  21661402.578                    21661409.391
 114871149.932 8  89510061.10945  21859250.570                    21859260.633
 11  8 27  1 50 30.0000000  0  9G15G10G12G26G05G25G29G02G30
 128276097.858 7  99955543.192 6  24410154.734                    24410168.359
 124882205.338 7  97310933.28144  23764268.594                    23764280.023
 113202298.044 8  88209570.456 7  21541658.797                    21541667.973
 123455886.596 6  96199495.29343  23492870.906                    23492883.152
 107282750.043 8  83597039.268 8  20415195.063                    20415204.203
 113677013.428 8  88579556.280 7  21632015.633                    21632027.691
 118621344.457 7  92432254.823 7  22572886.297                    22572896.559
 113868741.240 7  88729034.65345  21668471.102                    21668478.203
 114879316.933 8  89516425.00345  21860804.695                    21860815.203
 11  8 27  1 51  0.0000000  0  9G15G10G12G26G05G25G29G02G30
 128181704.658 7  99881990.311 6  24392192.547                    24392206.031
 124987883.198 7  97393279.62843  23784379.047                    23784389.770
 113265891.458 8  88259123.749 7  21553760.008                    21553769.738
 123362220.080 7  96126508.49744  23475047.078                    23475058.797
 107312964.325 8  83620582.876 8  20420944.500                    20420953.359
 113680625.878 8  88582371.182 7  21632703.328                    21632714.961
 118539309.469 7  92368331.496 7  22557275.461                    22557285.824
 113905970.118 7  88758044.15645  21675555.633                    21675562.953
 114888064.660 8  89523241.41645  21862469.516                    21862479.742
 11  8 27  1 51 30.0000000  0  9G15G10G12G26G05G25G29G02G30
 128087208.088 7  99808356.923 6  24374210.438                    24374224.070
 125093691.719 7  97475727.78343  23804513.344                    23804524.070
 113329899.238 8  88308999.919 7  21565940.219                    21565949.762
 123268650.534 7  96053597.27944  23457241.461                    23457252.777
 107343678.093 8  83644515.702 8  20426789.203                    20426798.023
 113684808.222 8  88585630.159 7  21633498.867                    21633510.789
 118457357.435 7  92304472.816 7  22541680.906                    22541690.961
 113943280.713 7  88787117.34546  21682655.797                    21682663.172
 114897392.130 7  89530509.57345  21864244.328                    21864254.395
 11  8 27  1 52  0.0000000  0  9G15G10G12G26G05G25G29G02G30
 127992611.125 7  99734645.306 6  24356208.820                    24356222.207
 125199628.591 6  97558275.94543  23824672.180                    23824683.262
 113394319.107 8  88359197.202 7  21578199.008                    21578208.578
 123175181.833 7  95980764.62344  23439454.500                    23439466.027
 107374890.336 8  83668836.942 8  20432729.023                    20432737.676
 113689560.166 8  88589332.978 7  21634403.180                    21634414.641
 118375490.350 7  92240680.331 7  22526101.859                    22526111.715
 113980673.422 7  88816254.51545  21689771.023                    21689778.742
 114907298.625 7  89538228.91845  21866129.672                    21866139.887
 11  8 27  1 52 30.0000000  0  9G15G10G12G26G05G25G29G02G30
 127897916.257 6  99660857.414 6  24338189.219                    24338202.078
 125305691.258 7  97640922.12243  23844856.008                    23844866.461
 113459148.304 7  88409713.426 7  21590535.773                    21590545.145
 123081817.294 7  95908013.11744  23421687.820                    23421699.738
 107406598.956 8  83693544.973 8  20438762.602                    20438771.281
 113694880.859 8  88593478.972 7  21635415.547                    21635427.215
 118293710.103 7  92176955.508 7  22510539.398                    22510549.094
 114018148.088 7  88845455.55346  21696902.578                    21696910.230
 114917782.896 7  89546398.48045  21868124.852                    21868134.668
 11  8 27  1 53  0.0000000  0  9G15G10G12G26G05G25G29G02G30
 127803125.771 6  99586995.012 6  24320149.836                    24320163.125
 125411876.723 6  97723663.98843  23865061.898                    23865072.668
 113524383.950 7  88460546.386 7  21602949.719                    21602959.387
 122988560.258 7  95835345.38344  23403941.813                    23403953.004
 107438801.675 7  83718638.014 8  20444890.719                    20444899.207
 113700769.339 8  88598067.413 7  21636536.125                    21636548.043
 118212018.496 7  92113299.754 7  22494993.688                    22495003.973
 114055704.058 7  88874719.93645  21704049.391                    21704057.020
 114928843.603 8  89555017.20145  21870229.508                    21870239.820
 11  8 27  1 53 30.0000000  0  9G15G10G12G26G05G25G29G02G30
 127708242.613 6  99513060.388 6  24302094.906                    24302106.910
 125518182.305 6  97806499.45643  23885291.477                    23885302.035
 113590023.655 7  88511694.186 7  21615440.555                    21615450.477
 122895414.401 7  95762764.32344  23386216.281                    23386227.813
 107471496.870 8  83744114.803 8  20451112.188                    20451121.043
 113707225.129 8  88603097.903 7  21637764.500                    21637776.363
 118130417.444 7  92049714.565 7  22479465.500                    22479475.387
 114093342.016 7  88904048.19945  21711211.695                    21711219.324
 114940479.791 7  89564084.36945  21872443.563                    21872454.137
 11  8 27  1 54  0.0000000  0  9G15G10G12G26G05G25G29G02G30
 127613269.079 6  99439055.380 6  24284020.797                    24284034.078
 125624605.720 6  97889426.73743  23905542.906                    23905553.578
 113656064.684 7  88563154.709 7  21628007.688                    21628017.461
 122802383.342 7  95690272.66644  23368513.445                    23368524.906
 107504682.997 8  83769974.134 8  20457427.273                    20457436.270
 113714247.511 8  88608569.901 7  21639101.172                    21639113.188
 118048909.261 7  91986201.743 7  22463955.227                    22463965.141
 114131061.617 7  88933440.09245  21718389.586                    21718397.039
 114952690.440 7  89573599.15745  21874766.953                    21874777.555
 11  8 27  1 54 30.0000000  0  9G15G10G12G26G05G25G29G02G30
 127518208.063 6  99364982.179 6  24265930.773                    24265944.230
 125731144.462 6  97972443.87843  23925816.391                    23925827.445
 113722504.536 7  88614926.011 7  21640650.664                    21640660.242
 122709470.768 7  95617873.37744  23350832.352                    23350843.887
 107538358.423 8  83796214.735 8  20463835.227                    20463843.789
 113721835.912 8  88614482.944 7  21640545.148                    21640557.344
 117967495.759 7  91922762.709 7  22448463.078                    22448472.445
 114168863.030 8  88962895.72645  21725582.773                    21725590.070
 114965474.430 8  89583560.70745  21877199.953                    21877210.406
 11  8 27  1 55  0.0000000  0  9G15G10G12G26G05G25G29G02G30
 127423062.149 6  99290842.798 6  24247825.258                    24247838.367
 125837795.564 6  98055548.55043  23946111.438                    23946122.609
 113789340.627 7  88667006.074 7  21653369.219                    21653378.422
 122616680.214 7  95545569.16944  23333175.203                    23333186.410
 107572520.899 8  83822834.867 8  20470336.758                    20470345.414
 113729989.289 8  88620836.233 7  21642096.414                    21642108.168
 117886178.805 7  91859398.892 7  22432988.742                    22432998.477
 114206745.945 8  88992414.86745  21732791.875                    21732798.914
 114978830.446 8  89593967.99245  21879741.313                    21879751.648
 11  8 27  1 55 30.0000000  0  9G15G10G12G26G05G25G29G02G30
 127327833.815 7  99216639.194 5  24229703.867                    24229717.102
 125944556.579 6  98138738.89043  23966427.508                    23966438.426
 113856570.056 7  88719392.623 7  21666162.602                    21666172.590
 122524015.257 7  95473362.82744  23315541.375                    23315552.660
 107607168.486 8  83849832.999 8  20476929.977                    20476938.797
 113738706.853 8  88627629.147 7  21643755.430                    21643767.410
 117804960.326 7  91796111.811 7  22417533.031                    22417543.145
 114244710.457 8  89021997.59545  21740016.250                    21740023.117
 114992757.338 8  89604820.11545  21882391.773                    21882401.844
 11  8 27  1 56  0.0000000  0  9G15G10G12G26G05G25G29G02G30
 127232525.826 6  99142373.489 5  24211567.656                    24211580.145
 126051424.891 6  98222012.83743  23986763.234                    23986775.266
 113924190.057 7  88772083.524 7  21679030.398                    21679039.707
 122431479.254 7  95401256.95944  23297931.938                    23297943.445
 107642299.504 8  83877207.825 8  20483614.758                    20483623.449
 113747987.796 8  88634861.055 7  21645521.719                    21645533.391
 117723842.405 7  91732903.094 7  22402097.063                    22402107.191
 114282756.452 8  89051643.81045  21747255.703                    21747263.555
 115007253.752 8  89616116.03345  21885150.383                    21885160.336
 11  8 27  1 56 30.0000000  0  9G15G10G12G26G05G25G29G02G30
 127137140.852 6  99068047.789 6  24193415.898                    24193429.074
 126158398.053 6  98305368.50243  24007121.156                    24007131.781
 113992198.078 7  88825076.777 7  21691971.422                    21691981.277
 122339075.976 7  95329254.49844  23280348.664                    23280360.211
 107677912.249 8  83904958.029 8  20490392.141                    20490400.652
 113757831.231 8  88642531.270 7  21647394.508                    21647406.598
 117642827.207 7  91669774.429 7  22386679.758                    22386690.305
 114320883.765 8  89081353.39345  21754511.391                    21754518.680
 115022318.513 8  89627854.80945  21888017.219                    21888027.176
 11  8 27  1 57  0.0000000  0  9G15G10G12G26G05G25G29G02G30
 127041681.292 7  98993663.938 6  24175250.094                    24175263.844
 126265473.407 6  98388803.79543  24027496.344                    24027507.047
 114060591.226 7  88878370.121 7  21704986.477                    21704995.492
 122246808.574 7  95257357.90944  23262790.766                    23262801.781
 107714004.172 7  83933081.619 8  20497260.078                    20497268.582
 113768236.027 8  88650638.894 7  21649374.570                    21649386.023
 117561916.309 7  91606727.027 7  22371283.375                    22371293.430
 114359092.528 7  89111126.44445  21761782.313                    21761789.930
 115037950.124 8  89640035.30145  21890991.867                    21891001.961
 11  8 27  1 57 30.0000000  0  9G15G10G12G26G05G25G29G02G30
 126946149.943 7  98919224.165 6  24157071.266                    24157084.355
 126372648.353 7  98472316.70043  24047890.828                    24047901.977
 114129366.680 7  88931961.379 7  21718074.180                    21718083.293
 122154680.930 7  95185570.22044  23245258.656                    23245270.066
 107750573.495 8  83961577.199 8  20504219.070                    20504227.566
 113779201.332 8  88659183.284 7  21651461.500                    21651472.887
 117481111.831 7  91543762.539 7  22355906.750                    22355916.996
 114397382.488 7  89140962.77645  21769068.352                    21769075.883
 115054147.154 8  89652656.37245  21894073.930                    21894083.977
 11  8 27  1 58  0.0000000  0  9G15G10G12G26G05G25G29G02G30
 126850549.566 6  98844730.609 6  24138878.977                    24138892.258
 126479920.261 7  98555905.12443  24068304.766                    24068315.211
 114198521.706 7  88985848.397 7  21731233.766                    21731243.387
 122062696.422 7  95113894.07244  23227754.867                    23227765.727
 107787618.126 7  83990443.157 8  20511267.898                    20511277.219
 113790726.086 8  88668163.609 7  21653654.484                    21653666.332
 117400415.684 7  91480882.462 7  22340551.086                    22340560.957
 114435753.532 7  89170862.29045  21776370.336                    21776377.594
 115070908.246 8  89665716.96945  21897263.273                    21897273.582
 11  8 27  1 58 30.0000000  0  9G15G10G12G26G05G25G29G02G30
 126754882.613 6  98770185.212 6  24120673.875                    24120687.086
 126587286.644 6  98639567.19543  24088735.742                    24088746.148
 114268054.143 7  89040029.509 7  21744465.625                    21744475.207
 121970858.877 7  95042332.40744  23210278.711                    23210289.980
 107825136.283 7  84019678.101 8  20518407.727                    20518416.602
 113802809.580 8  88677579.306 7  21655953.828                    21655965.445
 117319830.212 7  91418088.638 7  22325216.008                    22325225.527
 114474206.286 7  89200825.47745  21783687.688                    21783694.859
 115088232.280 8  89679216.23345  21900560.336                    21900569.801
 11  8 27  1 59  0.0000000  0  9G15G10G12G26G05G25G29G02G30
 126659152.199 6  98695590.345 6  24102456.719                    24102470.402
 126694744.922 6  98723300.86543  24109184.758                    24109194.902
 114337961.094 7  89094502.434 7  21757768.242                    21757777.492
 121879172.183 7  94970888.32444  23192830.953                    23192842.340
 107863126.246 8  84049280.680 8  20525636.891                    20525645.629
 113815450.872 8  88687429.650 7  21658359.336                    21658370.910
 117239357.476 7  91355382.652 7  22309902.063                    22309912.055
 114512740.626 7  89230852.23945  21791020.031                    21791027.543
 115106117.972 8  89693153.13045  21903963.883                    21903973.504
 11  8 27  1 59 30.0000000  0  9G15G10G12G26G05G25G29G02G30
 126563361.130 6  98620948.227 6  24084227.891                    24084241.355
 126802292.882 6  98807104.42643  24129649.430                    24129660.418
 114408239.469 7  89149264.795 7  21771141.563                    21771151.094
 121787639.810 7  94899564.49544  23175412.422                    23175425.078
 107901586.364 8  84079249.618 8  20532955.141                    20532964.438
 113828649.082 8  88697713.950 7  21660871.305                    21660883.289
 117158999.575 7  91292766.173 7  22294610.484                    22294620.547
 114551356.697 7  89260942.68945  21798369.164                    21798376.570
 115124563.952 8  89707526.63645  21907473.969                    21907484.188
 11  8 27  2  0  0.0000000  0  9G15G10G12G26G05G25G29G02G30
 126467511.819 7  98546260.718 6  24065988.945                    24066001.594
 126909927.702 6  98890975.65043  24150132.305                    24150143.043
 114478886.566 7  89204314.457 7  21784585.484                    21784595.000
 121696265.090 7  94828363.52144  23158025.336                    23158036.582
 107940513.817 8  84109582.702 8  20540363.266                    20540371.871
 113842402.651 8  88708431.016 7  21663487.711                    21663500.137
 117078758.296 7  91230240.551 7  22279341.070                    22279351.090
 114590053.759 7  89291096.24445  21805732.742                    21805740.141
 115143568.249 8  89722335.18845  21911089.945                    21911100.012
 11  8 27  2  0 30.0000000  0  9G15G10G12G26G05G25G29G02G30
 126371606.982 7  98471529.904 6  24047738.430                    24047750.703
 127017646.988 6  98974912.66843  24170630.773                    24170640.676
 114549899.669 7  89259649.323 7  21798099.047                    21798108.281
 121605051.760 7  94757288.31144  23140667.625                    23140679.453
 107979906.960 8  84140278.667 8  20547859.773                    20547868.219
 113856710.764 8  88719580.188 7  21666211.047                    21666223.020
 116998635.631 7  91167807.352 7  22264094.414                    22264103.695
 114628832.420 7  89321313.39145  21813111.875                    21813119.188
 115163129.696 8  89737577.87245  21914812.656                    21914822.359
 11  8 27  2  1  0.0000000  0  9G15G10G12G26G05G25G29G02G30
 126275649.081 7  98396757.735 6  24029478.422                    24029490.703
 127125448.088 6  99058913.49343  24191144.406                    24191154.727
 114621275.428 7  89315266.782 7  21811680.797                    21811690.945
 121514003.092 7  94686341.40244  23123341.375                    23123353.074
 108019763.264 8  84171335.534 8  20555443.930                    20555452.578
 113871571.982 8  88731160.356 7  21669038.563                    21669051.023
 116918633.700 7  91105468.222 7  22248870.320                    22248879.574
 114667692.337 7  89351593.84445  21820506.578                    21820514.039
 115183246.409 8  89753253.21645  21918640.672                    21918650.770
 11  8 27  2  1 30.0000000  0  9G15G10G12G26G05G25G29G02G30
 126179641.033 7  98321946.468 6  24011207.828                    24011220.695
 127233328.907 6  99142976.43943  24211673.719                    24211683.836
 114693011.906 7  89371165.302 7  21825332.250                    21825341.852
 121423123.290 7  94615526.07244  23106047.453                    23106059.480
 108060081.231 8  84202752.135 8  20563116.047                    20563124.840
 113886985.612 8  88743170.967 7  21671971.922                    21671984.109
 116838754.388 7  91043224.654 7  22233670.117                    22233679.695
 114706633.814 7  89381937.85545  21827917.031                    21827924.207
 115203917.273 8  89769360.37845  21922574.289                    21922584.160
 11  8 27  2  2  0.0000000  0  9G15G10G12G26G05G25G29G02G30
 126083585.418 7  98247098.160 6  23992929.516                    23992942.035
 127341286.625 6  99227099.32743  24232217.156                    24232227.602
 114765105.832 7  89427342.370 7  21839051.367                    21839061.137
 121332415.478 7  94544844.76044  23088786.508                    23088798.523
 108100858.348 7  84234526.526 8  20570875.781                    20570884.684
 113902950.174 8  88755610.890 7  21675010.094                    21675022.203
 116759000.021 7  90981078.462 7  22218493.086                    22218502.730
 114745656.779 7  89412345.35545  21835342.875                    21835350.199
 115225140.467 8  89785897.92545  21926613.023                    21926622.949
 11  8 27  2  2 30.0000000  0  9G15G10G12G26G05G25G29G02G30
 125987485.305 6  98172215.168 6  23974641.758                    23974654.570
 127449318.996 6  99311280.28343  24252774.906                    24252786.105
 114837554.075 7  89483795.519 7  21852837.977                    21852847.965
 121241883.742 7  94474300.65644  23071559.039                    23071570.230
 108142093.060 8  84266657.489 8  20578722.344                    20578731.164
 113919464.781 8  88768479.428 7  21678152.633                    21678164.715
 116679372.732 7  90919031.286 7  22203340.188                    22203349.816
 114784761.522 8  89442816.59445  21842784.375                    21842792.117
 115246914.695 8  89802864.83545  21930756.078                    21930766.098
 11  8 27  2  3  0.0000000  0  9G15G10G12G26G05G25G29G02G30
 125891343.309 6  98097299.551 6  23956345.781                    23956359.820
 127557423.569 6  99395517.58443  24273345.859                    24273357.445
 114910354.341 7  89540522.980 7  21866691.148                    21866701.035
 121151531.551 7  94403896.44644  23054365.375                    23054376.848
 108183783.048 8  84299143.195 8  20586656.023                    20586664.797
 113936528.093 8  88781775.515 7  21681399.891                    21681411.449
 116599874.519 7  90857084.678 7  22188212.492                    22188222.320
 114823947.973 8  89473351.49745  21850241.039                    21850248.086
 115269238.246 8  89820259.79345  21935004.211                    21935014.219
 11  8 27  2  3 30.0000000  0  9G15G10G12G26G05G25G29G02G30
 125795162.244 6  98022353.469 6  23938043.250                    23938056.246
 127665597.692 6  99479809.02643  24293930.578                    24293942.617
 114983503.345 7  89597522.191 7  21880611.328                    21880621.027
 121061362.430 7  94333634.89444  23037206.367                    23037217.398
 108225926.070 8  84331981.922 8  20594675.313                    20594684.242
 113954138.853 8  88795498.205 7  21684750.703                    21684762.746
 116520507.460 7  90795240.268 7  22173109.148                    22173118.570
 114863216.092 8  89503950.01545  21857713.750                    21857720.918
 115292109.440 8  89838081.50045  21939356.297                    21939365.949
 11  8 27  2  4  0.0000000  0  9G15G10G12G26G05G25G29G02G30
 125698944.975 7  97947379.168 6  23919733.906                    23919746.070
 127773839.103 6  99564152.96543  24314528.172                    24314540.094
 115056998.554 7  89654791.154 7  21894596.797                    21894606.758
 120971380.305 7  94263519.06144  23020083.438                    23020094.254
 108268520.241 8  84365172.191 8  20602780.602                    20602789.438
 113972295.935 8  88809646.593 7  21688205.914                    21688217.719
 116441273.802 7  90733499.810 7  22158031.508                    22158041.168
 114902565.947 8  89534612.22145  21865202.125                    21865208.961
 115315526.709 8  89856328.70845  21943812.672                    21943822.777
 11  8 27  2  4 30.0000000  0  9G15G10G12G26G05G25G29G02G30
 125602694.394 7  97872378.936 6  23901417.766                    23901430.137
 127882145.372 6  99648547.39243  24335139.453                    24335150.141
 115130837.449 8  89712327.937 7  21908647.836                    21908657.457
 120881588.729 7  94193551.70644  23002996.680                    23003007.781
 108311563.739 8  84398712.582 8  20610971.852                    20610980.496
 113990998.057 8  88824219.691 7  21691764.914                    21691776.578
 116362175.656 7  90671864.944 7  22142979.258                    22142989.027
 114941998.150 7  89565338.60545  21872705.422                    21872712.891
 115339488.473 8  89875000.21145  21948372.023                    21948382.449
 11  8 27  2  5  0.0000000  0  9G15G10G12G26G05G25G29G02G30
 125506412.843 7  97797354.570 6  23883095.953                    23883108.621
 127990513.820 6  99732990.30543  24355761.289                    24355772.012
 115205016.409 8  89770129.712 7  21922763.523                    21922772.957
 120791990.964 7  94123735.37744  22985946.258                    22985957.676
 108355053.725 8  84432600.888 8  20619247.898                    20619256.164
 114010243.642 8  88839216.260 7  21695427.172                    21695439.566
 116283215.039 7  90610337.229 7  22127953.922                    22127963.625
 114981511.994 7  89596128.61445  21880224.984                    21880232.207
 115363992.726 7  89894094.44245  21953035.352                    21953045.641
 11  8 27  2  5 30.0000000  0  9G15G10G12G26G05G25G29G02G30
 125410103.422 7  97722308.456 6  23864768.820                    23864781.098
 128098942.194 6  99817479.90943  24376394.602                    24376405.340
 115279532.930 8  89828194.515 7  21936943.766                    21936953.047
 120702591.001 7  94054073.16544  22968934.594                    22968945.016
 108398988.459 8  84466835.752 8  20627607.500                    20627616.547
 114030031.659 8  88854635.510 7  21699192.898                    21699204.727
 116204394.165 7  90548918.413 7  22112955.039                    22112964.523
 115021107.864 7  89626982.52445  21887759.625                    21887767.121
 115389038.020 8  89913610.25445  21957801.703                    21957811.563
 11  8 27  2  6  0.0000000  0  9G15G10G12G26G05G25G29G02G30
 125313768.889 7  97647242.783 6  23846437.188                    23846448.832
 128207427.844 6  99902014.15043  24397039.125                    24397049.980
 115354384.130 8  89886520.101 7  21951187.766                    21951196.992
 120613392.491 7  93984567.95944  22951960.234                    22951971.773
 108443365.656 8  84501415.403 8  20636052.617                    20636061.844
 114050360.683 8  88870476.318 7  21703061.148                    21703072.715
 116125715.109 7  90487610.093 7  22097982.961                    22097991.785
 115060786.015 7  89657900.56245  21895310.016                    21895317.156
 115414622.500 8  89933546.22245  21962669.453                    21962680.605
 11  8 27  2  6 30.0000000  0  9G15G10G12G26G05G25G29G02G30
 125217412.204 7  97572159.807 6  23828100.438                    23828112.250
 128315968.632 6  99986591.34343  24417693.578                    24417704.328
 115429567.132 8  89945104.244 7  21965494.750                    21965503.742
 120524399.155 7  93915222.62144  22935025.703                    22935037.023
 108488183.337 8  84536338.272 8  20644581.523                    20644590.297
 114071229.328 8  88886737.608 7  21707032.203                    21707044.477
 116047180.013 7  90426413.944 7  22083037.922                    22083047.129
 115100546.454 7  89688882.70845  21902876.219                    21902883.539
 115440744.425 7  89953900.98045  21967640.820                    21967650.777
 11  8 27  2  7  0.0000000  0  9G15G10G12G26G05G25G29G02G30
 125121036.017 7  97497061.654 6  23809760.656                    23809771.938
 128424562.274 6 100071209.75843  24438357.516                    24438368.906
 115505079.096 8  90003944.720 7  21979863.938                    21979873.414
 120435614.376 7  93846039.78245  22918130.172                    22918141.543
 108533439.271 8  84571602.653 8  20653193.008                    20653202.027
 114092636.190 8  88903418.304 7  21711105.922                    21711117.641
 115968791.047 7  90365331.659 7  22068120.789                    22068130.266
 115140389.502 7  89719929.21045  21910458.500                    21910465.059
 115467402.057 7  89974673.17645  21972713.117                    21972723.578
 11  8 27  2  7 30.0000000  0  9G15G10G12G26G05G25G29G02G30
 125024643.064 6  97421950.400 6  23791417.578                    23791429.000
 128533206.402 6 100155867.46843  24459032.250                    24459043.617
 115580916.710 8  90063038.935 7  21994295.594                    21994305.086
 120347041.918 7  93777022.37145  22901275.219                    22901286.668
 108579131.110 8  84607206.697 8  20661887.898                    20661896.855
 114114579.704 8  88920517.150 7  21715281.602                    21715293.680
 115890550.165 7  90304364.764 7  22053232.227                    22053241.957
 115180314.852 7  89751039.87045  21918055.930                    21918063.406
 115494593.340 7  89995861.20745  21977887.531                    21977897.992
 11  8 27  2  8  0.0000000  0  9G15G10G12G26G05G25G29G02G30
 124928236.394 7  97346828.464 5  23773072.047                    23773083.223
 128641898.539 6 100240562.58843  24479715.617                    24479726.859
 115657077.309 7  90122384.834 7  22008787.984                    22008797.367
 120258685.389 7  93708173.24245  22884461.820                    22884473.293
 108625256.825 8  84643148.819 8  20670665.367                    20670673.906
 114137058.662 8  88938033.235 7  21719559.070                    21719571.215
 115812459.760 8  90243515.124 7  22038371.938                    22038381.938
 115220322.991 8  89782215.02245  21925669.156                    21925676.797
 115522316.704 7  90017463.85345  21983163.297                    21983173.523
 11  8 27  2  8 30.0000000  0  9G15G10G12G26G05G25G29G02G30
 124831818.396 6  97271697.740 6  23754723.234                    23754735.645
 128750636.427 6 100325293.31842  24500407.203                    24500418.984
 115733557.687 8  90181979.921 7  22023341.867                    22023351.457
 120170548.408 7  93639495.17044  22867689.977                    22867701.238
 108671813.828 8  84679427.012 8  20679524.867                    20679534.020
 114160071.284 8  88955965.150 7  21723938.023                    21723950.516
 115734521.882 8  90182784.335 7  22023540.883                    22023550.746
 115260413.724 8  89813454.53745  21933297.852                    21933305.461
 115550569.990 7  90039479.41145  21988539.805                    21988549.961
 11  8 27  2  9  0.0000000  0  9G15G10G12G26G05G25G29G02G30
 124735392.332 7  97196560.712 6  23736374.305                    23736386.395
 128859417.722 6 100410057.87442  24521108.320                    24521119.051
 115810355.398 8  90241822.268 7  22037955.969                    22037965.953
 120082634.964 7  93570991.29244  22850959.656                    22850971.297
 108718800.287 8  84716039.836 7  20688466.078                    20688475.020
 114183616.257 8  88974311.894 7  21728418.695                    21728430.672
 115656738.735 8  90122174.116 7  22008738.984                    22008748.984
 115300587.083 8  89844758.43845  21940942.828                    21940949.609
 115579351.478 7  90061906.55545  21994016.672                    21994026.953
 11  8 27  2  9 30.0000000  0  9G15G10G12G26G05G25G29G02G30
 124638961.015 7  97121419.594 6  23718023.930                    23718035.805
 128968239.840 6 100494854.35742  24541816.531                    24541827.352
 115887467.504 8  90301909.603 7  22052630.305                    22052640.199
 119994948.150 6  93502664.01444  22834273.461                    22834284.734
 108766213.543 8  84752985.243 8  20697488.750                    20697497.461
 114207691.970 8  88993072.194 7  21733000.250                    21733012.563
 115579112.398 8  90061686.076 7  21993967.523                    21993977.164
 115340843.623 7  89876127.14645  21948603.453                    21948610.688
 115608659.221 8  90084743.76745  21999593.859                    21999603.922
 11  8 27  2 10  0.0000000  0  9G15G10G12G26G05G25G29G02G30
 124542527.599 7  97046276.828 6  23699673.227                    23699684.871
 129077100.415 6 100579680.70742  24562532.383                    24562542.902
 115964891.041 8  90362239.627 7  22067362.898                    22067372.871
 119907492.355 7  93434516.73644  22817630.742                    22817641.883
 108814052.030 8  84790261.990 8  20706592.250                    20706600.777
 114232297.243 8  89012245.135 7  21737682.258                    21737694.500
 115501645.425 8  90001322.213 7  21979225.992                    21979235.621
 115381183.736 7  89907560.98045  21956279.922                    21956287.477
 115638491.612 8  90107989.80745  22005271.086                    22005280.906
 11  8 27  2 10 30.0000000  0  8G15G12G26G05G25G29G02G30
 124446095.074 7  96971134.773 6  23681322.742                    23681334.688
 116042623.101 8  90422810.057 7  22082155.188                    22082164.836
 119820271.367 7  93366552.41344  22801033.422                    22801044.195
 108862313.675 8  84827868.479 7  20715776.070                    20715784.891
 114257430.729 8  89031829.671 7  21742465.055                    21742477.074
 115424340.402 8  89941084.561 7  21964515.445                    21964524.832
 115421607.595 8  89939060.07345  21963972.383                    21963980.113
 115668846.908 7  90131643.29945  22011047.180                    22011057.402
 11  8 27  2 11  0.0000000  0  8G15G12G26G05G25G29G02G30
 124349667.195 7  96895996.355 6  23662972.773                    23662984.684
 116120661.750 8  90483619.363 7  22097005.156                    22097014.910
 119733289.633 7  93298774.54544  22784480.844                    22784492.258
 108910997.251 8  84865803.726 8  20725040.195                    20725048.137
 114283091.729 8  89051825.255 7  21747348.188                    21747360.332
 115347200.555 8  89880975.614 7  21949836.195                    21949845.918
 115462116.240 7  89970625.24145  21971681.117                    21971688.336
 115699724.001 7  90155703.38345  22016922.742                    22016933.223
 11  8 27  2 11 30.0000000  0  8G15G12G26G05G25G29G02G30
 124253245.277 7  96820862.604 6  23644623.914                    23644636.363
 116199002.416 8  90544664.021 7  22111913.086                    22111922.055
 119646549.518 7  93231184.92644  22767975.359                    22767985.813
 108960098.652 8  84904064.577 8  20734383.867                    20734392.469
 114309277.106 8  89072229.446 7  21752330.852                    21752343.234
 115270226.102 8  89820995.556 7  21935188.125                    21935198.105
 115502708.463 7  90002255.53445  21979405.367                    21979412.523
 115731119.416 7  90180167.34345  22022897.203                    22022907.281
 11  8 27  2 12  0.0000000  0  9G15G21G12G26G05G25G29G02G30
 124156832.024 6  96745735.597 6  23626277.039                    23626288.887
 132402866.95316                  25195435.164
 116277641.961 7  90605941.577 7  22126877.305                    22126886.898
 119560054.135 7  93163786.01644  22751515.820                    22751526.934
 109009615.068 8  84942648.803 8  20743806.234                    20743815.324
 114335984.835 8  89093040.658 7  21757413.289                    21757425.656
 115193419.117 8  89761146.005 7  21920572.117                    21920581.848
 115543383.971 8  90033950.71245  21987145.617                    21987152.609
 115763030.708 7  90205033.29445  22028969.617                    22028979.465
 11  8 27  2 12 30.0000000  0  9G15G21G12G26G05G25G29G02G30
 124060430.545 6  96670617.767 6  23607932.297                    23607944.227
 132347310.439 6 103127844.76552  25184863.336                    25184874.488
 116356577.963 8  90667450.134 7  22141898.523                    22141908.004
 119473807.666 7  93096581.08844  22735103.781                    22735114.398
 109059545.055 8  84981555.293 8  20753307.344                    20753316.352
 114363213.688 8  89114257.945 7  21762594.820                    21762606.801
 115116782.504 8  89701429.214 7  21905988.719                    21905998.426
 115584143.334 7  90065711.23745  21994901.805                    21994909.422
 115795456.316 7  90230299.99645  22035140.102                    22035150.145
 11  8 27  2 13  0.0000000  0  9G15G21G12G26G05G25G29G02G30
 123964044.146 6  96595511.695 6  23589591.352                    23589602.637
 132291755.974 6 103084555.66942  25174290.867                    25174302.539
 116435807.199 7  90729187.184 7  22156975.250                    22156984.902
 119387813.807 7  93029572.97244  22718739.734                    22718750.469
 109109886.258 8  85020782.222 8  20762887.344                    20762895.750
 114390962.117 8  89135880.088 7  21767875.500                    21767887.289
 115040318.161 8  89641846.660 7  21891438.367                    21891447.629
 115624986.862 7  90097537.36845  22002673.789                    22002681.652
 115828394.282 8  90255965.94445  22041408.094                    22041418.051
 11  8 27  2 13 30.0000000  0  9G15G21G12G26G05G25G29G02G30
 123867675.286 7  96520419.264 6  23571252.453                    23571263.242
 132236202.611 6 103041267.41642  25163719.641                    25163731.324
 116515326.641 8  90791150.387 7  22172107.813                    22172117.473
 119302076.097 7  92962764.45644  22702424.492                    22702435.199
 109160636.454 8  85060327.830 8  20772544.758                    20772553.797
 114419228.384 8  89157905.746 7  21773254.250                    21773266.762
 114964028.347 8  89582400.117 7  21876920.766                    21876930.461
 115665914.748 7  90129429.24045  22010462.305                    22010470.156
 115861842.534 7  90282029.51945  22047772.633                    22047782.910
 11  8 27  2 14  0.0000000  0  9G15G21G12G26G05G25G29G02G30
 123771327.198 7  96445343.014 6  23552917.969                    23552928.859
 132180649.469 6 102997979.41042  25153148.023                    25153159.727
 116595133.480 7  90853337.524 7  22187294.367                    22187304.449
 119216598.674 7  92896158.78444  22686158.180                    22686168.734
 109211793.733 8  85100190.654 8  20782279.609                    20782288.297
 114448010.902 8  89180333.683 7  21778731.406                    21778743.188
 114887915.701 8  89523091.629 7  21862436.711                    21862446.523
 115706927.441 7  90161387.18245  22018266.641                    22018274.422
 115895799.080 8  90308489.15445  22054234.773                    22054245.027
 11  8 27  2 14 30.0000000  0  9G15G21G12G26G05G25G29G02G30
 123675002.778 7  96370285.206 6  23534588.273                    23534597.699
 132125095.811 6 102954691.01542  25142576.992                    25142588.512
 116675224.595 7  90915746.186 7  22202534.586                    22202544.859
 119131384.484 7  92829758.20545  22669942.219                    22669953.402
 109263354.866 8  85140368.173 7  20792091.547                    20792100.449
 114477307.668 8  89203162.335 7  21784306.516                    21784318.453
 114811981.899 8  89463922.511 7  21847987.211                    21847996.469
 115748024.790 7  90193411.08345  22026087.023                    22026094.895
 115930261.459 8  90335342.95545  22060792.703                    22060802.406
 11  8 27  2 15  0.0000000  0  9G15G21G12G26G05G25G29G02G30
 123578704.859 7  96295248.026 6  23516262.906                    23516273.480
 132069541.189 6 102911401.83742  25132005.156                    25132016.676
 116755597.099 7  90978374.102 7  22217829.742                    22217839.477
 119046437.744 7  92763566.04845  22653777.266                    22653788.363
 109315318.073 8  85180858.984 7  20801979.508                    20801988.258
 114507117.129 8  89226390.504 7  21789978.945                    21789991.426
 114736229.436 8  89404894.692 7  21833571.906                    21833581.160
 115789207.038 8  90225501.14245  22033924.430                    22033931.371
 115965227.825 8  90362589.47745  22067446.297                    22067456.074
 11  8 27  2 15 30.0000000  0  9G15G21G12G26G05G25G29G02G30
 123482435.987 7  96220233.516 6  23497943.047                    23497954.066
 132013984.632 6 102868111.24142  25121432.469                    25121443.781
 116836247.719 7  91041218.732 7  22233176.859                    22233186.766
 118961761.688 7  92697584.78844  22637663.992                    22637674.586
 109367680.195 8  85221660.654 7  20811943.875                    20811952.719
 114537437.097 8  89250016.444 7  21795748.586                    21795760.648
 114660660.511 8  89346009.886 7  21819191.414                    21819200.914
 115830474.186 7  90257657.36445  22041776.852                    22041784.734
 116000695.591 7  90390226.70045  22074196.133                    22074205.742
 11  8 27  2 16  0.0000000  0  9G15G21G12G26G05G25G29G02G30
 123386200.379 6  96145244.908 6  23479629.539                    23479641.398
 131958426.366 5 102824819.24842  25110860.547                    25110871.781
 116917174.416 7  91104278.495 7  22248576.484                    22248585.941
 118877360.906 7  92631818.02744  22621603.102                    22621613.949
 109420440.819 8  85262772.839 7  20821984.063                    20821992.590
 114568266.805 8  89274039.587 7  21801615.359                    21801627.422
 114585278.196 8  89287270.497 7  21804846.398                    21804855.520
 115871827.384 7  90289880.62945  22049646.055                    22049653.750
 116036663.683 8  90418253.77345  22081040.484                    22081050.270
 11  8 27  2 16 30.0000000  0  9G15G21G12G26G05G25G29G02G30
 123290000.046 7  96070283.803 6  23461323.727                    23461334.609
 131902865.405 5 102781525.16642  25100287.078                    25100299.215
 116998373.506 7  91167550.495 7  22264028.313                    22264037.746
 118793238.544 7  92566268.21644  22605594.828                    22605605.902
 109473596.454 8  85304192.817 7  20832098.789                    20832107.602
 114599603.770 8  89298457.987 7  21807578.086                    21807590.434
 114510084.229 8  89228677.874 7  21790537.625                    21790547.266
 115913266.207 7  90322170.64245  22057531.766                    22057539.234
 116073129.106 7  90446668.37945  22087979.570                    22087989.641
 11  8 27  2 17  0.0000000  0  9G15G21G12G26G05G25G29G02G30
 123193838.108 7  95995352.618 6  23443023.914                    23443035.715
 131847301.036 5 102738228.47342  25089713.430                    25089725.309
 117079841.735 7  91231032.219 7  22279531.375                    22279540.703
 118709398.103 7  92500938.07344  22589640.492                    22589651.043
 109527144.549 8  85345918.602 8  20842288.977                    20842297.660
 114631446.070 8  89323270.162 7  21813637.820                    21813649.844
 114435080.716 8  89170233.650 7  21776265.445                    21776274.457
 115954790.848 7  90354527.51745  22065433.563                    22065441.035
 116110089.738 7  90475468.85945  22095012.719                    22095022.848
 11  8 27  2 17 30.0000000  0  9G15G21G12G26G05G25G29G02G30
 123097717.776 7  95920453.829 6  23424732.742                    23424744.813
 131791732.751 6 102694928.68942  25079139.320                    25079151.133
 117161576.517 7  91294721.648 7  22295084.859                    22295094.230
 118625843.624 7  92435830.76544  22573740.414                    22573751.234
 109581083.303 8  85387948.807 8  20852553.344                    20852561.684
 114663792.143 8  89348474.889 7  21819792.977                    21819805.371
 114360270.138 8  89111939.759 7  21762028.859                    21762037.941
 115996401.881 8  90386951.70445  22073352.469                    22073359.402
 116147543.485 7  90504653.59945  22102140.656                    22102150.508
 11  8 27  2 18  0.0000000  0  9G15G21G12G26G05G25G29G02G30
 123001641.796 7  95845589.603 6  23406450.336                    23406461.176
 131736160.089 5 102651625.48142  25068562.359                    25068575.445
 117243574.880 7  91358616.483 7  22310688.859                    22310698.422
 118542578.753 7  92370949.12345  22557896.195                    22557906.066
 109635410.399 8  85430281.607 7  20862891.188                    20862899.852
 114696640.127 8  89374070.712 7  21826044.055                    21826055.969
 114285654.940 8  89053798.113 7  21747830.055                    21747839.645
 116038099.597 7  90419443.43145  22081286.758                    22081294.508
 116185488.293 7  90534220.97145  22109360.945                    22109370.926
 11  8 27  2 18 30.0000000  0  9G15G21G12G26G05G25G29G02G30
 122905613.151 7  95770762.239 6  23388176.141                    23388186.891
 131680582.24415 102608318.22952  25057986.453                    25057999.148
 117325833.627 7  91422714.209 7  22326341.727                    22326350.977
 118459606.988 7  92306295.88545  22542106.477                    22542117.102
 109690123.013 7  85472914.813 7  20873302.664                    20873311.590
 114729987.976 8  89400056.047 7  21832389.852                    21832401.980
 114211237.176 8  88995810.311 7  21733668.742                    21733678.543
 116079883.997 7  90452002.70245  22089237.906                    22089245.855
 116223921.649 7  90564169.03245  22116674.578                    22116684.508
 11  8 27  2 19  0.0000000  0  9G15G21G12G26G05G25G29G02G30
 122809634.723 7  95695973.993 6  23369912.578                    23369922.230
 131624999.20115 102565006.45952  25047409.484                    25047421.590
 117408349.265 7  91487012.095 7  22342043.938                    22342053.848
 118376931.856 7  92241873.77945  22526373.984                    22526385.051
 109745218.738 8  85515846.549 7  20883786.992                    20883795.441
 114763833.555 8  89426429.226 7  21838830.352                    21838842.492
 114137018.960 8  88937977.997 7  21719545.313                    21719555.293
 116121755.272 7  90484629.67945  22097206.125                    22097213.758
 116262841.061 7  90594495.84545  22124080.344                    22124090.430
 11  8 27  2 19 30.0000000  0  9G15G21G12G26G05G25G29G02G30
 122713709.666 7  95621227.344 6  23351658.266                    23351668.340
 131569408.77216 102521689.84752  25036830.914                    25036843.301
 117491119.175 7  91551508.127 7  22357794.953                    22357804.293
 118294557.082 7  92177685.72745  22510698.805                    22510708.613
 109800695.637 8  85559075.304 7  20894343.766                    20894352.461
 114798175.163 8  89453188.909 7  21845365.086                    21845377.305
 114063002.842 8  88880303.154 7  21705460.875                    21705470.258
 116163713.880 7  90517324.70845  22105190.273                    22105197.621
 116302244.491 7  90625199.81745  22131578.711                    22131589.207
 11  8 27  2 20  0.0000000  0  9G15G21G12G26G05G25G29G02G30
 122617841.146 7  95546524.733 6  23333414.875                    23333425.277
 131513811.954 6 102478367.80342  25026252.148                    25026263.004
 117574140.318 7  91616199.926 7  22373593.383                    22373602.855
 118212486.539 7  92113734.74645  22495081.102                    22495092.125
 109856551.086 8  85602599.034 7  20904972.789                    20904981.441
 114833010.794 8  89480333.557 7  21851994.461                    21852006.902
 113989191.065 8  88822787.535 7  21691414.734                    21691424.195
 116205759.757 7  90550087.72645  22113191.383                    22113198.676
 116342129.548 8  90656279.08145  22139168.758                    22139178.688
 11  8 27  2 20 30.0000000  0  9G15G21G12G26G05G25G29G02G30
 122522031.739 7  95471868.206 6  23315183.461                    23315193.020
 131458207.450 6 102435039.77842  25015670.813                    25015681.566
 117657409.249 7  91681084.792 7  22389439.156                    22389448.289
 118130723.423 7  92050023.31745  22479522.031                    22479532.559
 109912782.420 8  85646415.656 7  20915673.367                    20915682.098
 114868338.203 8  89507861.406 7  21858716.914                    21858728.645
 113915586.023 8  88765433.001 7  21677407.727                    21677417.395
 116247893.160 7  90582918.96245  22121209.445                    22121216.855
 116382493.644 7  90687731.62245  22146849.742                    22146860.152
 11  8 27  2 21  0.0000000  0  9G15G21G12G26G05G25G29G02G30
 122426284.576 7  95397260.195 6  23296962.914                    23296973.262
 131402594.737 6 102391705.32842  25005087.633                    25005099.125
 117740923.398 7  91746160.755 7  22405330.758                    22405340.914
 118049271.666 7  91986554.51045  22464022.289                    22464032.926
 109969387.639 8  85690523.622 7  20926444.930                    20926453.293
 114904155.666 8  89535771.107 7  21865532.914                    21865545.055
 113842189.837 8  88708241.208 7  21663441.297                    21663450.547
 116290114.888 7  90615819.01645  22129243.273                    22129251.234
 116423334.629 7  90719555.76345  22154621.633                    22154631.570
 11  8 27  2 21 30.0000000  0  9G15G21G12G26G05G25G29G02G30
 122330602.819 7  95322703.155 6  23278754.727                    23278765.008
 131346973.205 6 102348364.01642  24994503.555                    24994514.656
 117824679.768 7  91811425.454 7  22421269.547                    22421278.977
 117968135.073 7  91923331.27845  22448582.266                    22448593.215
 110026364.092 8  85734920.859 7  20937287.625                    20937295.957
 114940461.093 8  89564061.046 7  21872441.586                    21872453.852
 113769005.205 8  88651214.253 7  21649514.516                    21649523.801
 116332425.037 7  90648787.95945  22137294.992                    22137302.090
 116464650.136 7  90751749.66345  22162483.422                    22162493.609
 11  8 27  2 22  0.0000000  0  9G15G21G12G26G05G25G29G02G30
 122234989.143 7  95248199.157 6  23260560.227                    23260570.566
 131291342.386 5 102305015.39443  24983916.719                    24983928.320
 117908675.084 7  91876876.349 7  22437253.195                    22437263.223
 117887317.230 7  91860356.42645  22433203.172                    22433213.652
 110083709.362 8  85779605.493 7  20948199.914                    20948208.152
 114977252.482 8  89592729.666 7  21879442.617                    21879454.492
 113696034.045 8  88594353.637 7  21635628.531                    21635637.750
 116374823.793 7  90681825.95645  22145363.305                    22145370.828
 116506437.845 7  90784311.50445  22170435.211                    22170445.840
 11  8 27  2 22 30.0000000  0  9G15G21G12G26G05G25G29G02G30
 122139446.700 7  95173750.658 6  23242379.211                    23242389.633
 131235701.902 6 102261659.28842  24973328.203                    24973340.602
 117992905.969 7  91942510.805 7  22453281.703                    22453291.391
 117806821.683 7  91797632.70245  22417885.359                    22417895.465
 110141421.349 8  85824575.875 7  20959181.602                    20959190.426
 115014527.792 8  89621775.363 7  21886535.883                    21886547.766
 113623278.808 8  88537661.270 7  21621783.555                    21621792.707
 116417311.361 7  90714933.15245  22153448.563                    22153455.770
 116548695.357 7  90817239.44045  22178476.867                    22178486.879
 11  8 27  2 23  0.0000000  0  9G15G21G12G26G05G25G29G02G30
 122043978.784 7  95099360.211 6  23224212.055                    23224222.227
 131180050.998 6 102218295.08242  24962738.719                    24962750.160
 118077369.756 8  92008326.721 7  22469355.055                    22469364.398
 117726651.781 7  91735162.73745  22402629.320                    22402639.613
 110199497.465 8  85869830.003 7  20970233.570                    20970241.906
 115052284.607 8  89651196.253 7  21893720.656                    21893732.789
 113550742.052 8  88481139.150 7  21607980.469                    21607989.566
 116459888.018 7  90748109.77445  22161550.594                    22161557.707
 116591419.816 8  90850531.22245  22186606.672                    22186617.168
 11  8 27  2 23 30.0000000  0  9G15G21G12G26G05G25G29G02G30
 121948588.068 7  95025029.915 6  23206059.805                    23206070.730
 131124389.150 6 102174922.33042  24952146.477                    24952157.441
 118162063.242 7  92074321.623 7  22485471.281                    22485481.059
 117646811.341 7  91672949.48845  22387436.281                    22387446.328
 110257935.151 8  85915365.876 7  20981353.484                    20981362.281
 115090520.901 8  89680990.763 7  21900997.352                    21901009.461
 113478425.432 8  88424788.569 7  21594219.047                    21594228.461
 116502553.966 7  90781355.97945  22169669.164                    22169676.543
 116634608.952 8  90884185.08645  22194825.820                    22194835.742
 11  8 27  2 24  0.0000000  0  9G15G21G12G26G05G25G29G02G30
 121853277.644 7  94950762.188 6  23187922.766                    23187933.352
 131068715.641 6 102131540.47542  24941551.563                    24941563.145
 118246983.515 7  92140493.251 7  22501631.023                    22501640.531
 117567304.048 7  91610995.83345  22372306.125                    22372316.340
 110316732.080 8  85961181.671 7  20992542.094                    20992551.262
 115129234.752 8  89711157.411 7  21908364.039                    21908375.980
 113406331.809 8  88368611.742 7  21580499.891                    21580509.535
 116545309.789 7  90814672.19645  22177805.664                    22177813.133
 116678260.473 7  90918199.23345  22203132.258                    22203142.488
 11  8 27  2 24 30.0000000  0  9G15G21G12G26G05G25G29G02G30
 121758050.996 7  94876559.731 6  23169801.031                    23169811.770
 131013030.325 6 102088149.51542  24930955.555                    24930966.199
 118332127.823 7  92206839.460 7  22517833.414                    22517843.238
 117488134.185 7  91549305.12745  22357240.391                    22357251.246
 110375886.803 8  86007276.261 7  21003798.961                    21003807.477
 115168424.546 8  89741694.902 7  21915821.734                    21915833.898
 113334464.227 8  88312611.060 7  21566824.070                    21566833.137
 116588156.113 8  90848058.93145  22185959.102                    22185966.559
 116722372.360 7  90952572.13845  22211526.570                    22211536.672
 11  8 27  2 25  0.0000000  0  9G15G21G12G26G05G25G29G02G30
 121662910.374 7  94802424.317 6  23151696.742                    23151706.785
 130957331.781 6 102044748.18842  24920356.352                    24920366.809
 118417492.037 7  92273357.016 7  22534077.609                    22534087.426
 117409304.048 7  91487879.12845  22342239.617                    22342249.848
 110435394.895 8  86053646.207 7  21015123.094                    21015131.750
 115208086.900 8  89772600.634 7  21923368.945                    21923381.527
 113262823.931 8  88256787.485 7  21553191.438                    21553200.547
 116631092.476 7  90881515.83645  22194129.422                    22194136.551
 116766941.014 7  90987300.95045  22220007.773                    22220017.582
 11  8 27  2 25 30.0000000  0  9G15G21G12G26G05G25G29G02G30
 121567859.523 7  94728358.848 6  23133608.617                    23133619.594
 130901620.123 6 102001336.66042  24909753.953                    24909764.434
 118503073.892 7  92340044.160 7  22550363.625                    22550373.449
 117330818.310 7  91426721.48645  22327304.852                    22327314.773
 110495255.159 8  86100290.580 7  21026514.125                    21026522.566
 115248220.574 8  89803873.620 7  21931006.055                    21931018.309
 113191413.775 8  88201143.239 7  21539602.133                    21539611.305
 116674119.662 8  90915043.50645  22202317.445                    22202324.895
 116811964.735 7  91022384.36645  22228575.320                    22228585.637
 11  8 27  2 26  0.0000000  0  9G15G21G12G26G05G25G29G02G30
 121472901.463 7  94654365.689 6  23115539.172                    23115549.031
 130845894.950 6 101957914.64342  24899150.070                    24899161.391
 118588870.614 7  92406898.744 7  22566689.883                    22566699.453
 117252680.416 7  91365834.91945  22312435.578                    22312445.559
 110555465.309 8  86147207.588 7  21037971.711                    21037980.262
 115288823.393 7  89835512.175 7  21938732.688                    21938744.730
 113120236.344 8  88145680.342 7  21526057.930                    21526066.633
 116717238.160 7  90948642.32745  22210522.797                    22210529.984
 116857441.061 7  91057820.46345  22237229.547                    22237239.496
 11  8 27  2 26 30.0000000  0  9G15G21G12G26G05G25G29G02G30
 121378038.980 7  94580446.975 6  23097486.984                    23097497.727
 130790155.428 6 101914481.33442  24888542.031                    24888554.266
 118674878.753 7  92473918.065 7  22583056.664                    22583066.207
 117174893.798 7  91305222.04945  22297633.359                    22297643.070
 110616022.807 8  86194395.255 7  21049495.344                    21049504.133
 115329892.827 8  89867514.329 7  21946548.250                    21946560.082
 113049293.691 8  88090400.397 7  21512557.617                    21512566.879
 116760448.185 7  90982312.47445  22218745.031                    22218753.078
 116903367.189 7  91093607.05345  22245968.781                    22245978.820
 11  8 27  2 27  0.0000000  0  9G15G21G12G26G05G25G29G02G30
 121283274.935 7  94506604.989 7  23079453.898                    23079464.172
 130734400.742 6 101871036.27143  24877932.984                    24877943.641
 118761094.777 7  92541099.367 7  22599463.555                    22599473.055
 117097461.833 7  91244885.52445  22282898.203                    22282908.223
 110676924.486 8  86241851.114 7  21061084.641                    21061093.496
 115371426.321 8  89899878.078 7  21954451.586                    21954464.176
 112978587.910 8  88035305.036 7  21499103.125                    21499112.383
 116803749.682 8  91016053.88945  22226985.086                    22226992.797
 116949740.124 7  91129741.81045  22254793.242                    22254803.242
 11  8 27  2 27 30.0000000  0  9G15G21G12G26G05G25G29G02G30
 121188612.896 7  94432842.485 6  23061440.180                    23061450.598
 130678630.654 6 101827579.18342  24867320.055                    24867330.805
 118847516.007 7  92608440.578 7  22615908.680                    22615918.438
 117020388.378 7  91184828.36945  22268231.109                    22268241.656
 110738168.742 8  86289573.905 7  21072738.992                    21072747.297
 115413422.215 8  89932602.135 7  21962443.117                    21962455.137
 112908121.933 8  87980396.528 7  21485693.742                    21485702.723
 116847143.241 7  91049867.03945  22235242.820                    22235249.914
 116996557.955 7  91166223.23545  22263702.539                    22263712.199
 11  8 27  2 28  0.0000000  0  9G15G21G12G26G05G25G29G02G30
 121094055.328 7  94359161.373 6  23043446.281                    23043457.051
 130622844.292 6 101784109.41743  24856704.563                    24856715.309
 118934139.254 7  92675939.211 7  22632393.117                    22632402.496
 116943676.665 7  91125053.08545  22253633.570                    22253644.113
 110799752.481 8  86337561.247 7  21084458.031                    21084466.504
 115455877.654 8  89965684.280 7  21970522.234                    21970533.895
 112837897.240 8  87925676.037 7  21472330.375                    21472339.434
 116890628.969 7  91083752.00045  22243517.773                    22243525.172
 117043817.460 7  91203048.82145  22272695.602                    22272705.695
 11  8 27  2 28 30.0000000  0  9G15G21G12G26G05G25G29G02G30
 120999605.807 7  94285564.475 6  23025473.250                    23025482.754
 130567041.321 6 101740626.71542  24846085.695                    24846096.145
 119020961.521 7  92743592.914 7  22648914.227                    22648923.668
 116867330.613 7  91065562.70745  22239105.172                    22239115.352
 110861673.712 8  86385811.560 7  21096241.273                    21096249.930
 115498790.749 8  89999123.055 7  21978688.094                    21978700.223
 112767917.049 8  87871146.069 7  21459013.266                    21459022.500
 116934207.624 8  91117709.38745  22251810.680                    22251818.332
 117091516.352 7  91240216.80445  22281772.219                    22281782.563
 11  8 27  2 29  0.0000000  0  9G15G21G12G26G05G25G29G02G30
 120905267.038 7  94212053.858 6  23007521.305                    23007530.535
 130511221.139 6 101697130.62443  24835463.016                    24835473.055
 119107979.714 7  92811399.291 7  22665473.156                    22665482.773
 116791353.721 7  91006359.99645  22224647.250                    22224657.402
 110923929.825 8  86434322.815 7  21108088.273                    21108096.551
 115542159.125 8  90032916.598 7  21986940.773                    21986953.379
 112698183.392 8  87816808.215 7  21445743.352                    21445752.520
 116977879.484 7  91151739.39945  22260120.781                    22260128.492
 117139652.051 7  91277725.11845  22290931.789                    22290942.375
 11  8 27  2 29 30.0000000  0  9G15G21G12G26G05G25G29G02G30
 120811042.523 7  94138632.278 6  22989590.383                    22989600.074
 130455383.317 6 101653620.75543  24824837.883                    24824847.461
 119195190.937 7  92879356.073 7  22682069.281                    22682078.566
 116715750.024 7  90947448.08645  22210260.328                    22210269.938
 110986518.433 8  86483093.146 7  21119998.375                    21120006.770
 115585980.677 8  90067063.259 7  21995280.156                    21995292.113
 112628699.036 8  87762664.617 7  21432521.281                    21432530.703
 117021644.822 7  91185842.25845  22268449.008                    22268457.164
 117188222.118 7  91315571.90745  22300174.734                    22300184.887
 11  8 27  2 30  0.0000000  0  9G15G21G12G26G05G25G29G02G30
 120716934.986 7  94065301.822 6  22971682.883                    22971692.930
 130399527.093 6 101610096.53943  24814208.930                    24814218.934
 119282591.884 7  92947460.700 7  22698700.656                    22698710.555
 116640522.204 7  90888829.09145  22195945.109                    22195954.809
 111049436.784 8  86532120.428 7  21131971.430                    21131979.816
 115630252.743 8  90101560.972 7  22003704.773                    22003716.605
 112559465.933 8  87708716.796 7  21419346.289                    21419355.270
 117065503.940 7  91220018.20545  22276795.414                    22276803.016
 117237223.580 7  91353754.86245  22309499.023                    22309509.391
 11  8 27  2 30 30.0000000  0  9G15G21G12G26G05G25G29G02G30
 120622947.804 7  93992065.168 6  22953797.578                    22953807.367
 130343652.120 6 101566557.71143  24803575.594                    24803586.328
 119370180.043 7  93015711.206 7  22715368.477                    22715377.723
 116565674.614 7  90830506.33745  22181702.164                    22181711.969
 111112682.913 8  86581403.120 7  21144006.781                    21144015.789
 115674973.258 8  90136408.127 7  22012214.742                    22012226.676
 112490486.990 8  87654967.006 7  21406220.102                    21406229.219
 117109457.451 7  91254267.70645  22285159.508                    22285167.039
 117286653.979 7  91392272.04545  22318905.391                    22318915.625
 11  8 27  2 31  0.0000000  0  9G15G21G12G26G05G25G29G02G30
 120529083.706 7  93918924.403 6  22935935.688                    22935945.844
 130287757.616 6 101523003.64243  24792939.266                    24792949.773
 119457951.183 7  93084104.285 7  22732070.148                    22732080.488
 116491210.306 7  90772482.27045  22167532.117                    22167542.117
 111176254.003 8  86630939.025 7  21156103.648                    21156112.637
 115720139.536 8  90171602.627 7  22020809.734                    22020821.457
 112421763.663 8  87601416.405 7  21393142.461                    21393151.406
 117153505.418 7  91288590.80245  22293541.211                    22293549.180
 117336510.406 7  91431121.19945  22328393.242                    22328403.164
 11  8 27  2 31 30.0000000  0 10G15G21G12G26G05G25G29G02G30G18
 120435345.605 7  93845881.825 6  22918097.938                    22918108.137
 130231843.060 6 101479433.96743  24782299.258                    24782310.199
 119545902.547 7  93152637.813 7  22748807.141                    22748817.137
 116417132.550 7  90714759.42045  22153435.016                    22153445.047
 111240147.178 8  86680725.909 7  21168262.359                    21168270.859
 115765749.003 8  90207142.476 7  22029488.906                    22029501.387
 112353298.677 8  87548067.105 7  21380113.727                    21380122.738
 117197648.191 7  91322987.77245  22301941.477                    22301949.199
 117386789.896 7  91470300.01345  22337960.539                    22337970.949
 129708409.53916                  24682713.945
 11  8 27  2 32  0.0000000  0 10G15G21G12G26G05G25G29G02G30G18
 120341737.062 7  93772940.203 7  22900284.211                    22900295.063
 130175907.946 6 101435848.28343  24771654.172                    24771665.285
 119634031.564 7  93221309.759 7  22765577.367                    22765587.594
 116343445.440 7  90657340.94745  22139413.234                    22139422.566
 111304360.512 8  86730762.265 7  21180481.906                    21180490.555
 115811799.647 8  90243026.097 7  22038251.930                    22038264.125
 112285094.820 8  87494921.291 7  21367135.258                    21367144.496
 117241886.219 7  91357458.98745  22310359.641                    22310367.066
 117437490.141 7  91509806.69645  22347608.680                    22347618.953
 129619519.151 6 101002357.81152  24665797.672                    24665809.430
 11  8 27  2 32 30.0000000  0 10G15G21G12G26G05G25G29G02G30G18
 120248260.121 7  93700101.141 7  22882496.359                    22882506.750
 130119951.295 6 101392245.80943  24761006.281                    24761016.973
 119722334.019 7  93290116.852 7  22782380.836                    22782390.824
 116270151.369 7  90600228.75445  22125465.594                    22125475.215
 111368890.557 8  86781045.403 7  21192761.313                    21192770.082
 115858288.122 7  90279250.887 7  22047098.125                    22047110.297
 112217153.299 8  87441979.889 7  21354206.203                    21354215.645
 117286219.366 7  91392004.30045  22318796.078                    22318804.051
 117488607.514 7  91549638.40645  22357335.852                    22357346.305
 129530795.233 6 100933222.58142  24648913.703                    24648926.195
 11  8 27  2 33  0.0000000  0 10G15G21G12G26G05G25G29G02G30G18
 120154919.693 7  93627368.420 6  22864733.930                    22864744.180
 130063973.828 6 101348627.11543  24750354.148                    24750365.027
 119810808.282 7  93359057.811 7  22799216.844                    22799226.520
 116197255.538 7  90543426.87645  22111593.664                    22111603.723
 111433736.677 8  86831574.846 7  21205101.211                    21205109.449
 115905213.584 8  90315816.207 7  22056027.773                    22056039.773
 112149478.255 8  87389246.123 7  21341328.461                    21341337.395
 117330648.809 7  91426624.66445  22327250.602                    22327258.488
 117540140.835 7  91589794.23245  22367142.984                    22367152.379
 129442240.266 6 100864219.05542  24632062.453                    24632074.699
 11  8 27  2 33 30.0000000  0 10G15G21G12G26G05G25G29G02G30G18
 120061717.968 7  93554743.817 6  22846998.383                    22847008.875
 130007974.468 7 101304991.34643  24739698.469                    24739708.051
 119899451.156 7  93428130.166 6  22816085.070                    22816094.520
 116124760.871 7  90486937.59545  22097798.414                    22097808.148
 111498895.794 8  86882348.176 7  21217500.531                    21217508.797
 115952573.117 8  90352719.746 7  22065040.414                    22065052.426
 112082071.699 8  87336721.561 7  21328501.078                    21328510.086
 117375175.128 7  91461320.52945  22335723.570                    22335730.961
 117592086.960 7  91630271.71645  22377027.242                    22377037.660
 129353854.915 6 100795347.60642  24615242.859                    24615255.145
 11  8 27  2 34  0.0000000  0 10G15G21G12G26G05G25G29G02G30G18
 119968658.014 7  93482229.653 7  22829289.328                    22829299.617
 129951952.335 6 101261337.85743  24729037.375                    24729047.027
 119988258.800 7  93497330.903 6  22832984.836                    22832993.855
 116052670.705 7  90430763.51145  22084080.133                    22084089.551
 111564364.879 8  86933363.032 7  21229959.078                    21229967.637
 116000363.707 8  90389959.181 7  22074134.469                    22074146.281
 112014935.260 8  87284407.482 7  21315725.469                    21315734.430
 117419798.309 7  91496091.85045  22344215.195                    22344222.082
 117644442.556 7  91671068.29145  22386990.523                    22387000.676
 129265640.125 6 100726609.14142  24598456.617                    24598468.293
 11  8 27  2 34 30.0000000  0 10G15G21G12G26G05G25G29G02G30G18
 119875743.100 7  93409828.494 7  22811608.219                    22811618.465
 129895907.047 6 101217666.30543  24718371.570                    24718381.785
 120077228.509 7  93566657.944 7  22849915.125                    22849925.035
 115980988.475 7  90374907.30145  22070439.219                    22070449.281
 111630141.706 8  86984617.706 7  21242475.703                    21242484.465
 116048583.161 8  90427532.793 7  22083310.359                    22083322.188
 111948071.647 8  87232306.002 7  21303001.594                    21303010.824
 117464518.826 7  91530939.03245  22352725.547                    22352732.625
 117697205.047 7  91712181.92845  22397031.125                    22397040.688
 129177597.579 6 100658004.83242  24581702.109                    24581714.391
 11  8 27  2 35  0.0000000  0 10G15G21G12G26G05G25G29G02G30G18
 119782976.371 7  93337542.828 6  22793955.000                    22793965.918
 129839838.574 6 101173976.68543  24707702.125                    24707712.566
 120166357.462 7  93636109.055 6  22866875.719                    22866885.609
 115909717.968 7  90319371.90045  22056876.820                    22056886.840
 111696224.127 8  87036110.495 7  21255050.875                    21255060.133
 116097229.316 8  90465438.910 7  22092567.313                    22092579.328
 111881483.806 8  87180419.399 7  21290330.180                    21290339.559
 117509337.170 7  91565862.44045  22361253.523                    22361261.043
 117750372.041 7  91753610.75745  22407148.398                    22407158.703
 129089728.733 6 100589535.90043  24564980.625                    24564992.734
 11  8 27  2 35 30.0000000  0 10G15G21G12G26G05G25G29G02G30G18
 119690360.663 7  93265374.844 6  22776330.945                    22776340.750
 129783745.943 6 101130268.25643  24697028.242                    24697039.008
 120255642.826 7  93705682.043 6  22883866.492                    22883876.113
 115838862.415 7  90264159.84045  22043393.914                    22043403.660
 111762609.338 8  87087839.220 7  21267683.656                    21267692.488
 116146299.292 8  90503675.250 7  22101905.188                    22101916.797
 111815173.565 8  87128749.117 7  21277711.883                    21277721.395
 117554253.731 7  91600862.37745  22369801.078                    22369808.375
 117803940.423 7  91795352.35045  22417342.555                    22417352.461
 129002034.588 6 100521203.11343  24548293.297                    24548304.992
 11  8 27  2 36  0.0000000  0 10G15G21G12G26G05G25G29G02G30G18
 119597899.478 7  93193327.246 7  22758736.430                    22758746.402
 129727628.927 6 101086540.81743  24686349.570                    24686359.633
 120345080.917 7  93775374.045 7  22900886.055                    22900895.754
 115768425.267 7  90209273.81145  22029990.305                    22029999.395
 111829295.169 8  87139802.199 7  21280373.195                    21280382.164
 116195790.817 8  90542240.090 7  22111322.719                    22111334.496
 111749143.558 8  87077297.203 7  21265146.539                    21265155.582
 117599268.774 7  91635939.04445  22378367.445                    22378374.895
 117857907.520 7  91837404.65545  22427611.805                    22427621.563
 128914516.499 6 100453007.43443  24531638.836                    24531650.691
 11  8 27  2 36 30.0000000  0 10G15G21G12G26G05G25G29G02G30G18
 119505595.411 7  93121402.111 6  22741171.078                    22741180.852
 129671486.807 6 101042793.81143  24675665.953                    24675676.301
 120434668.464 7  93845182.501 6  22917933.875                    22917943.172
 115698409.971 7  90154716.50345  22016666.281                    22016676.117
 111896278.791 8  87191997.221 7  21293119.883                    21293129.219
 116245701.026 8  90581131.171 7  22120820.039                    22120832.438
 111683395.854 8  87026065.256 7  21252635.352                    21252644.754
 117644382.629 7  91671092.71745  22386952.039                    22386959.629
 117912270.167 7  91879765.16845  22437956.375                    22437966.391
 128827175.623 6 100384949.83743  24515018.055                    24515029.969
 11  8 27  2 37  0.0000000  0 10G15G21G12G26G05G25G29G02G30G18
 119413451.882 7  93049602.027 7  22723637.023                    22723646.742
 129615319.132 6 100999026.91543  24664977.430                    24664987.172
 120524402.893 7  93915105.425 6  22935009.953                    22935019.016
 115628820.003 8  90100490.62345  22003423.828                    22003433.129
 111963557.817 8  87244422.440 7  21305922.703                    21305931.590
 116296027.637 8  90620346.731 7  22130397.250                    22130409.172
 111617933.379 8  86975055.571 7  21240178.430                    21240187.363
 117689596.023 7  91706323.94045  22395556.125                    22395563.086
 117967025.934 7  91922432.02145  22448376.148                    22448386.227
 128740013.213 6 100317031.32643  24498430.984                    24498443.238
 11  8 27  2 37 30.0000000  0 10G15G21G12G26G05G25G29G02G30G18
 119321472.260 7  92977929.677 7  22706133.922                    22706143.723
 129559125.666 6 100955239.89343  24654284.047                    24654294.328
 120614280.900 7  93985140.217 6  22952112.766                    22952121.785
 115559658.887 7  90046598.90045  21990262.961                    21990272.422
 112031129.858 8  87297075.968 7  21318781.383                    21318789.895
 116346768.052 8  90659884.726 7  22140052.813                    22140064.867
 111552758.530 7  86924270.013 7  21227775.938                    21227785.082
 117734909.263 7  91741632.96745  22404178.922                    22404186.043
 118022171.928 7  91965402.92045  22458870.578                    22458880.387
 128653030.400 6 100249252.72743  24481879.461                    24481890.938
 11  8 27  2 38  0.0000000  0 10G15G21G12G26G05G25G29G02G30G18
 119229659.427 7  92906387.314 6  22688662.859                    22688672.422
 129502905.611 6 100911432.14843  24643585.680                    24643595.695
 120704299.639 7  94055284.677 6  22969243.219                    22969252.289
 115490929.984 7  89993043.96645  21977184.148                    21977193.895
 112098992.665 8  87349956.085 7  21331695.133                    21331704.125
 116397919.652 8  90699743.122 7  22149786.695                    22149798.543
 111487873.279 8  86873710.117 7  21215428.609                    21215437.637
 117780322.689 7  91777020.06545  22412820.930                    22412828.320
 118077705.137 7  92008675.55745  22469437.844                    22469447.602
 128566228.605 6 100181615.18143  24465360.688                    24465372.668
 11  8 27  2 38 30.0000000  0 10G15G21G12G26G05G25G29G02G30G18
 119138016.269 7  92834977.114 6  22671223.359                    22671232.531
 129446658.215 6 100867603.12043  24632881.594                    24632892.176
 120794455.362 7  94125535.884 6  22986399.164                    22986408.574
 115422636.120 8  89939828.03045  21964188.148                    21964198.066
 112167143.047 8  87403060.282 7  21344663.781                    21344672.387
 116449479.299 8  90739919.496 7  22159598.156                    22159610.145
 111423279.527 8  86823377.368 7  21203136.797                    21203145.918
 117825836.548 7  91812485.41345  22421481.727                    22421489.188
 118133622.191 7  92052247.29245  22480078.570                    22480088.531
 128479608.499 6 100114119.16843  24448877.633                    24448888.457
 11  8 27  2 39  0.0000000  0 10G15G21G12G26G05G25G29G02G30G18
 119046545.714 7  92763701.451 7  22653816.719                    22653826.980
 129390383.128 6 100823752.49843  24622173.422                    24622183.414
 120884745.252 7  94195891.636 6  23003580.852                    23003590.813
 115354781.088 7  89886954.02745  21951275.398                    21951285.258
 112235578.806 8  87456386.856 7  21357686.602                    21357695.211
 116501444.770 8  90780412.074 7  22169486.914                    22169498.871
 111358980.371 7  86773274.173 7  21190901.445                    21190909.941
 117871451.572 7  91848029.57645  22430162.172                    22430169.223
 118189920.615 7  92096116.21145  22490791.492                    22490801.633
 128393171.590 6 100046765.95343  24432428.906                    24432440.445
 11  8 27  2 39 30.0000000  0 10G15G21G12G26G05G25G29G02G30G18
 118955251.082 7  92692562.862 7  22636443.836                    22636454.246
 129334080.131 6 100779880.16443  24611459.031                    24611469.277
 120975166.597 7  94266349.830 7  23020787.531                    23020797.461
 115287368.447 7  89834424.75545  21938447.266                    21938456.926
 112304297.752 8  87509934.093 7  21370763.578                    21370772.375
 116553813.636 8  90821218.994 7  22179452.313                    22179464.305
 111294977.987 8  86723402.229 7  21178721.492                    21178730.746
 117917167.904 7  91883652.69045  22438861.680                    22438868.930
 118246597.626 7  92140280.13445  22501576.797                    22501587.102
 128306919.287 6  99979556.55743  24416015.055                    24416026.566
 11  8 27  2 40  0.0000000  0 10G15G21G12G26G05G25G29G02G30G18
 118864136.322 7  92621564.429 7  22619105.258                    22619115.672
 129277748.971 6 100735985.88243  24600739.344                    24600750.109
 121065716.684 7  94336908.335 6  23038019.055                    23038028.063
 115220401.736 7  89782242.95245  21925704.078                    21925713.902
 112373297.724 8  87563700.315 7  21383893.547                    21383902.367
 116606583.331 8  90862338.250 7  22189493.945                    22189505.945
 111231275.322 7  86673763.829 7  21166599.523                    21166608.367
 117962986.188 7  91919355.27845  22447580.617                    22447588.047
 118303650.552 7  92184736.96345  22512433.445                    22512443.727
 128220852.978 6  99912492.12143  24399636.672                    24399648.574
 11  8 27  2 40 30.0000000  0 10G15G21G12G26G05G25G29G02G30G18
 118773204.042 7  92550708.183 7  22601801.688                    22601811.906
 129221389.061 6 100692069.20943  24590013.930                    24590024.551
 121156392.228 7  94407564.587 6  23055273.477                    23055283.051
 115153884.181 7  89730411.14045  21913046.258                    21913055.406
 112442575.923 8  87617683.325 7  21397076.961                    21397085.473
 116659751.310 8  90903767.860 7  22199611.406                    22199622.605
 111167874.672 7  86624360.768 7  21154534.727                    21154543.727
 118008907.077 8  91955137.78845  22456318.578                    22456326.488
 118361076.362 7  92229484.35645  22523361.766                    22523371.750
 128134973.334 6  99845573.06643  24383295.102                    24383306.684
 11  8 27  2 41  0.0000000  0 10G15G21G12G26G05G25G29G02G30G18
 118682456.957 7  92479996.252 7  22584532.906                    22584543.016
 129164999.451 6 100648129.38743  24579283.430                    24579293.199
 121247189.484 7  94478315.662 6  23072552.031                    23072561.250
 115087818.823 8  89678931.69145  21900474.539                    21900483.613
 112512129.379 8  87671880.833 7  21410312.281                    21410321.305
 116713314.418 8  90945505.336 7  22209804.242                    22209816.059
 111104777.929 8  86575194.522 7  21142527.781                    21142536.582
 118054930.697 8  91991000.33645  22465076.688                    22465083.977
 118418871.831 7  92274519.79545  22534359.688                    22534369.461
 128049281.611 6  99778800.52843  24366988.102                    24367000.160
 11  8 27  2 41 30.0000000  0 10G15G21G12G26G05G25G29G02G30G18
 118591898.718 7  92409431.463 7  22567299.844                    22567309.590
 129108580.257 6 100604166.49543  24568546.609                    24568557.371
 121338105.839 7  94549159.550 6  23089852.539                    23089861.891
 115022209.340 7  89627807.46445  21887989.156                    21887998.855
 112581956.358 8  87726291.471 7  21423600.359                    21423609.039
 116767270.330 8  90987548.914 7  22220071.672                    22220083.813
 111041987.857 8  86526267.235 7  21130579.227                    21130588.141
 118101057.580 7  92026943.35245  22473854.688                    22473861.668
 118477034.347 7  92319841.25245  22545427.703                    22545437.535
 127963778.952 6  99712175.24343  24350717.367                    24350729.785
 11  8 27  2 42  0.0000000  0 10G15G21G12G26G05G25G29G02G30G18
 118501532.132 7  92339016.014 7  22550103.820                    22550113.609
 129052130.594 6 100560179.85743  24557804.609                    24557815.551
 121429138.286 7  94620093.930 6  23107175.125                    23107185.055
 114957058.798 7  89577040.86045  21875590.875                    21875601.023
 112652054.096 8  87780913.108 7  21436939.406                    21436948.395
 116821616.197 8  91029896.359 7  22230413.633                    22230425.641
 110979506.950 7  86477580.856 7  21118689.414                    21118698.219
 118147288.269 7  92062967.26045  22482652.109                    22482659.105
 118535560.730 7  92365446.23045  22556564.438                    22556575.180
 127878466.826 6  99645698.45642  24334483.016                    24334494.809
 11  8 27  2 42 30.0000000  0 10G15G21G12G26G05G25G29G02G30G18
 118411360.343 7  92268752.355 7  22532944.516                    22532954.145
 128995650.069 6 100516169.19443  24547057.438                    24547067.098
 121520284.088 7  94691116.610 6  23124520.055                    23124529.754
 114892370.331 7  89526634.32745  21863281.469                    21863291.297
 112722420.005 8  87835743.699 7  21450329.547                    21450338.262
 116876349.257 8  91072545.514 7  22240828.570                    22240841.113
 110917337.043 8  86429136.808 7  21106858.844                    21106867.773
 118193622.936 7  92099072.19645  22491469.117                    22491476.977
 118594447.928 7  92411332.34745  22567770.648                    22567781.074
 127793345.849 6  99579370.61243  24318284.766                    24318295.703
 11  8 27  2 43  0.0000000  0 10G15G21G12G26G05G25G29G02G30G18
 118321386.553 7  92198642.987 6  22515823.180                    22515832.316
 128939138.277 6 100472134.18443  24536303.211                    24536313.508
 121611539.421 7  94762224.652 6  23141885.352                    23141894.676
 114828147.575 7  89476590.66845  21851060.625                    21851070.148
 112793051.852 8  87890781.517 7  21463770.086                    21463779.125
 116931466.937 8  91115494.351 7  22251317.508                    22251329.125
 110855480.974 7  86380937.316 7  21095087.844                    21095097.137
 118240062.311 7  92135258.72345  22500306.523                    22500314.160
 118653693.151 7  92457497.47045  22579044.531                    22579054.750
 127708417.456 6  99513192.87443  24302123.672                    24302133.887
 11  8 27  2 43 30.0000000  0 10G15G21G12G26G05G25G29G02G30G18
 118231613.686 7  92128690.173 7  22498740.086                    22498749.480
 128882594.946 6 100428074.54843  24525543.750                    24525553.285
 121702901.567 7  94833415.914 6  23159270.891                    23159279.910
 114764393.784 7  89426912.42745  21838928.391                    21838937.598
 112863947.176 8  87946024.638 7  21477261.477                    21477269.934
 116986966.520 7  91158740.785 7  22261878.438                    22261890.500
 110793940.944 8  86332984.078 7  21083377.672                    21083386.414
 118286606.548 7  92171526.96745  22509163.070                    22509170.746
 118713293.501 7  92503939.31145  22590385.859                    22590396.352
 127623682.800 6  99447166.05543  24285999.047                    24286008.938
 11  8 27  2 44  0.0000000  0 10G15G21G12G26G05G25G29G02G30G18
 118142044.973 7  92058896.445 7  22481695.445                    22481704.434
 128826019.514 6 100383989.90243  24514777.375                    24514787.207
 121794368.067 7  94904688.486 6  23176677.063                    23176686.191
 114701112.201 7  89377602.16445  21826886.000                    21826896.066
 112935103.318 8  88001470.997 7  21490801.734                    21490810.137
 117042845.160 7  91202282.593 7  22272511.906                    22272524.313
 110732719.529 7  86285279.118 7  21071727.164                    21071736.270
 118333256.320 7  92207877.44845  22518040.039                    22518047.719
 118773245.873 7  92550655.45345  22601794.883                    22601804.547
 127539142.747 6  99381290.86042  24269911.359                    24269921.652
 11  8 27  2 44 30.0000000  0 10G15G21G12G26G05G25G29G02G30G18
 118052683.790 7  91989264.436 7  22464690.336                    22464699.828
 128769411.271 6 100339879.70543  24504004.898                    24504014.359
 121885934.961 7  94976039.299 6  23194100.727                    23194110.758
 114638305.752 7  89328662.11745  21814934.625                    21814943.617
 113006517.835 8  88057118.698 7  21504391.734                    21504400.238
 117099100.111 7  91246117.620 7  22283216.859                    22283228.996
 110671818.774 8  86237824.031 7  21060138.258                    21060147.039
 118380012.093 7  92244310.51245  22526937.313                    22526945.059
 118833547.261 7  92597643.55745  22613269.617                    22613279.395
 127454798.582 6  99315568.31943  24253860.086                    24253871.070
 11  8 27  2 45  0.0000000  0 10G15G21G12G26G05G25G29G02G30G18
 117963532.584 7  91919796.026 7  22447725.539                    22447734.949
 128712769.840 6 100295743.63643  24493226.750                    24493235.762
 121977599.269 7  95047466.029 6  23211543.883                    23211554.004
 114575977.634 7  89280094.80545  21803073.711                    21803083.195
 113078188.269 8  88112965.802 7  21518029.805                    21518038.785
 117155728.417 7  91290243.573 7  22293992.352                    22294005.105
 110611240.814 7  86190620.464 7  21048610.586                    21048619.043
 118426874.062 7  92280826.32445  22535855.203                    22535862.723
 118894194.362 7  92644901.03845  22624810.156                    22624820.551
 127370651.408 6  99249999.30443  24237847.688                    24237858.805
 11  8 27  2 45 30.0000000  0 10G15G21G12G26G05G25G29G02G30G18
 117874595.323 7  91850494.348 7  22430801.039                    22430810.629
 128656095.209 6 100251581.70743  24482441.453                    24482451.156
 122069358.735 7  95118966.886 6  23229005.094                    23229015.086
 114514131.829 7  89231903.31945  21791304.883                    21791314.555
 113150112.370 8  88169010.574 7  21531716.781                    21531725.660
 117212727.923 7  91334658.768 7  22304839.109                    22304851.238
 110550989.174 8  86143671.174 7  21037144.922                    21037153.672
 118473843.396 7  92317425.82145  22544793.469                    22544800.645
 118955184.951 7  92692426.19545  22636416.859                    22636426.766
 127286702.475 6  99184584.72643  24221873.180                    24221883.828
 11  8 27  2 46  0.0000000  0 10G15G21G12G26G05G25G29G02G30G18
 117785874.559 7  91781361.343 7  22413917.992                    22413927.758
 128599386.464 6 100207393.16243  24471649.766                    24471659.809
 122161209.823 7  95190539.128 6  23246483.602                    23246493.695
 114452770.941 7  89184089.68345  21779628.195                    21779637.563
 113222287.255 8  88225250.763 7  21545450.758                    21545459.766
 117270095.326 7  91379360.639 7  22315755.820                    22315768.301
 110491065.361 8  86096977.337 7  21025741.922                    21025750.387
 118520920.082 7  92354108.96445  22553751.500                    22553758.996
 119016515.315 7  92740216.09245  22648087.250                    22648097.066
 127202952.540 7  99119325.22243  24205936.336                    24205946.723
 11  8 27  2 46 30.0000000  0 10G15G21G12G26G05G25G29G02G30G18
 117697373.715 7  91712399.734 7  22397076.914                    22397086.449
 128542643.645 6 100163178.08043  24460852.383                    24460861.813
 122253149.818 7  95262180.669 6  23263980.141                    23263989.527
 114391898.194 7  89136656.42745  21768044.563                    21768054.770
 113294711.354 8  88281685.138 7  21559232.961                    21559241.434
 117327828.030 7  91424347.161 7  22326742.484                    22326754.680
 110431472.001 8  86050540.990 7  21014401.836                    21014410.082
 118568104.391 7  92390875.95445  22562730.695                    22562737.898
 119078182.735 7  92788268.64045  22659822.211                    22659832.160
 127119402.867 6  99054221.74043  24190036.953                    24190047.504
 11  8 27  2 47  0.0000000  0 10G15G21G12G26G05G25G29G02G30G18
 117609095.881 7  91643611.876 7  22380278.125                    22380288.051
 128485866.127 6 100118935.95243  24450047.711                    24450057.258
 122345175.228 7  95333888.753 6  23281491.367                    23281500.992
 114331517.074 7  89089606.25645  21756554.375                    21756564.168
 113367381.844 8  88338311.500 7  21573061.719                    21573070.594
 117385923.437 7  91469616.302 7  22337797.383                    22337809.527
 110372211.701 8  86004364.188 7  21003124.750                    21003133.492
 118615397.278 7  92427727.56045  22571730.086                    22571737.199
 119140184.346 7  92836581.58944  22671620.906                    22671630.652
 127036054.741 7  98989275.30243  24174176.273                    24174187.301
 11  8 27  2 47 30.0000000  0 10G15G21G12G26G05G25G29G02G30G18
 117521044.052 7  91575000.121 7  22363522.367                    22363531.938
 128429053.566 6 100074666.51643  24439236.328                    24439246.137
 122437283.161 7  95405661.156 6  23299019.578                    23299028.152
 114271630.475 7  89042941.42445  21745158.641                    21745167.637
 113440295.879 8  88395127.648 7  21586936.727                    21586945.172
 117444378.509 7  91515165.708 7  22348920.914                    22348933.148
 110313286.620 8  85958448.581 7  20991911.461                    20991920.355
 118662798.987 7  92464663.96445  22580750.180                    22580757.457
 119202516.907 7  92885152.43145  22683482.086                    22683492.008
 126952908.995 7  98924486.56143  24158354.055                    24158364.379
 11  8 27  2 48  0.0000000  0 10G15G21G12G26G05G25G29G02G30G18
 117433221.325 7  91506566.909 7  22346809.945                    22346819.730
 128372205.443 6 100030369.38543  24428418.398                    24428428.480
 122529470.998 7  95477495.799 6  23316561.523                    23316570.879
 114212241.593 7  88996664.43045  21733857.211                    21733866.672
 113513451.356 8  88452131.934 7  21600857.664                    21600866.523
 117503190.410 7  91560993.166 7  22360112.406                    22360124.664
 110254699.138 8  85912796.041 7  20980763.219                    20980771.520
 118710309.984 7  92501685.52945  22589791.094                    22589798.941
 119265177.334 7  92933978.74545  22695406.203                    22695415.996
 126869966.657 7  98859856.34143  24142570.586                    24142580.598
 11  8 27  2 48 30.0000000  0 10G15G21G12G26G05G25G29G02G30G18
 117345631.142 7  91438314.877 7  22330141.953                    22330152.039
 128315321.518 6  99986044.38943  24417594.414                    24417603.602
 122621735.746 6  95549390.377 6  23334119.453                    23334128.754
 114153353.560 7  88950777.70145  21722651.008                    21722660.742
 113586845.936 8  88509322.531 7  21614824.078                    21614833.117
 117562356.442 7  91607096.555 7  22371371.742                    22371383.867
 110196451.648 8  85867408.433 7  20969678.813                    20969687.395
 118757930.748 7  92538792.63445  22598853.320                    22598861.133
 119328162.674 7  92983058.23845  22707392.000                    22707401.809
 126787228.756 7  98795385.46843  24126826.133                    24126836.367
 11  8 27  2 49  0.0000000  0 10G15G21G12G26G05G25G29G02G30G18
 117258276.331 7  91370246.249 7  22313519.211                    22313528.871
 128258401.357 6  99941691.11743  24406762.438                    24406771.578
 122714073.843 6  95621342.114 6  23351690.328                    23351700.449
 114094969.355 7  88905283.57345  21711540.555                    21711550.223
 113660476.870 8  88566697.294 7  21628835.438                    21628844.418
 117621873.524 7  91653473.499 7  22382697.125                    22382709.043
 110138546.280 8  85822287.415 7  20958659.406                    20958668.363
 118805661.735 7  92575985.63345  22607935.961                    22607943.590
 119391469.718 7  93032388.40945  22719438.563                    22719448.941
 126704696.222 6  98731074.56243  24111119.820                    24111130.582
 11  8 27  2 49 30.0000000  0 10G15G21G12G26G05G25G29G02G30G18
 117171160.017 7  91302363.471 7  22296941.695                    22296951.016
 128201444.485 6  99897309.22743  24395924.352                    24395933.164
 122806482.529 7  95693348.847 6  23369275.641                    23369285.086
 114037092.203 7  88860184.54045  21700526.906                    21700536.148
 113734342.116 8  88624254.643 7  21642891.773                    21642900.617
 117681739.114 7  91700122.005 7  22394089.086                    22394101.309
 110080985.793 7  85777435.135 7  20947706.297                    20947714.707
 118853503.565 7  92613264.98045  22617039.656                    22617047.480
 119455095.560 7  93081967.00245  22731546.172                    22731557.125
 126622370.316 6  98666924.67143  24095453.117                    24095464.363
 11  8 27  2 50  0.0000000  0 10G15G21G12G26G05G25G29G02G30G18
 117084285.617 7  91234669.192 7  22280409.898                    22280419.160
 128144450.581 6  99852898.49143  24385077.680                    24385087.117
 122898959.119 6  95765408.516 6  23386873.563                    23386882.477
 113979725.340 7  88815483.13845  21689610.398                    21689619.688
 113808438.950 8  88681992.447 7  21656991.914                    21657000.609
 117741950.246 7  91747039.765 7  22405546.852                    22405558.852
 110023772.303 8  85732853.241 7  20936818.594                    20936827.590
 118901456.702 7  92650631.06145  22626165.305                    22626173.152
 119519037.107 7  93131791.60145  22743713.805                    22743723.734
 126540251.915 6  98602936.49143  24079827.766                    24079837.770
 11  8 27  2 50 30.0000000  0 10G15G21G12G26G05G25G29G02G30G18
 116997656.019 7  91167165.662 7  22263924.891                    22263933.824
 128087419.344 6  99808458.66743  24374225.203                    24374235.129
 122991500.578 7  95837518.712 6  23404483.664                    23404492.375
 113922871.852 7  88771181.76645  21678791.648                    21678800.953
 113882765.756 8  88739909.447 7  21671135.680                    21671144.270
 117802504.405 7  91794224.829 7  22417070.914                    22417082.102
 109966908.753 8  85688544.031 7  20925997.742                    20926006.934
 118949521.676 7  92688084.30445  22635312.094                    22635319.250
 119583291.642 7  93181860.05645  22755941.375                    22755951.387
 126458342.278 7  98539110.98743  24064240.734                    24064250.477
 11  8 27  2 51  0.0000000  0 10G15G21G12G26G05G25G29G02G30G18
 116911273.911 7  91099854.989 7  22247486.180                    22247495.559
 128030349.912 6  99763989.06343  24363365.422                    24363374.938
 123084102.990 7  95909676.390 6  23422105.609                    23422114.012
 113866534.349 7  88727282.47045  21668070.602                    21668080.234
 113957318.932 8  88798002.851 7  21685322.922                    21685331.625
 117863397.889 7  91841674.295 7  22428658.031                    22428670.320
 109910396.448 8  85644508.516 7  20915243.211                    20915252.512
 118997698.789 7  92725624.91945  22644479.039                    22644486.953
 119647855.229 7  93232169.36044  22768227.242                    22768237.059
 126376641.878 6  98475448.47843  24048692.578                    24048702.996
 11  8 27  2 51 30.0000000  0 10G15G21G12G26G05G25G29G02G30G18
 116825142.718 7  91032739.824 7  22231096.391                    22231105.754
 127973242.258 6  99719489.68043  24352497.547                    24352507.496
 123176764.448 6  95981880.094 6  23439737.859                    23439747.500
 113810715.823 7  88683787.56745  21657448.906                    21657458.434
 114032096.640 8  88856271.218 7  21699552.594                    21699561.219
 117924628.229 7  91889386.253 7  22440309.492                    22440321.262
 109854238.134 8  85600748.835 7  20904557.422                    20904565.945
 119045988.309 7  92763253.11345  22653669.281                    22653676.156
 119712725.101 7  93282717.31644  22780571.594                    22780581.262
 126295152.065 6  98411950.09343  24033185.883                    24033196.188
 11  8 27  2 52  0.0000000  0 10G15G21G12G26G05G25G29G02G30G18
 116739265.964 7  90965822.930 7  22214754.445                    22214764.113
 127916096.183 6  99674960.39343  24341623.250                    24341632.930
 123269481.630 7  96054127.234 6  23457381.477                    23457391.395
 113755419.704 7  88640699.73545  21646926.648                    21646935.648
 114107096.526 8  88914712.703 7  21713824.422                    21713833.207
 117986192.720 7  91937358.585 7  22452024.820                    22452037.008
 109798436.600 8  85557267.159 7  20893938.648                    20893947.184
 119094391.436 7  92800969.82645  22662879.352                    22662886.129
 119777898.551 7  93333501.81544  22792973.633                    22792983.133
 126213873.790 7  98348616.54443  24017718.641                    24017729.238
 11  8 27  2 52 30.0000000  0 10G15G21G12G26G05G25G29G02G30G18
 116653646.248 7  90899106.311 7  22198461.922                    22198471.254
 127858911.006 6  99630400.60143  24330741.734                    24330750.383
 123362251.446 7  96126415.376 6  23475035.039                    23475045.207
 113700648.721 7  88598021.09645  21636503.523                    21636512.965
 114182316.097 8  88973325.361 7  21728138.203                    21728147.145
 118048088.228 7  91985588.854 7  22463803.250                    22463814.770
 109742993.767 8  85514064.991 7  20883388.008                    20883396.727
 119142908.398 7  92838775.26645  22672112.180                    22672119.180
 119843372.057 7  93384520.11745  22805433.273                    22805442.688
 126132807.910 6  98285448.46343  24002292.273                    24002302.426
 11  8 27  2 53  0.0000000  0 10G15G21G12G26G05G25G29G02G30G18
 116568286.389 7  90832592.198 7  22182218.148                    22182227.340
 127801686.554 6  99585810.19943  24319851.766                    24319861.527
 123455070.776 7  96198742.083 6  23492698.250                    23492707.750
 113646405.734 7  88555753.87745  21626181.805                    21626190.965
 114257752.641 8  89032107.100 7  21742493.047                    21742501.688
 118110311.597 7  92034074.598 7  22475643.945                    22475656.262
 109687911.893 8  85471144.095 7  20872906.383                    20872915.094
 119191539.208 7  92876669.40845  22681365.906                    22681373.414
 119909142.308 7  93435769.65145  22817948.273                    22817958.500
 126051955.548 6  98222446.77743  23986906.875                    23986917.238
 11  8 27  2 53 30.0000000  0 10G15G21G12G26G05G25G29G02G30G18
 116483189.822 7  90766283.244 7  22166024.883                    22166034.215
 127744422.378 6  99541188.85843  24308955.000                    24308964.258
 123547936.719 6  96271105.121 6  23510369.594                    23510379.391
 113592693.392 7  88513900.15245  21615960.367                    21615970.035
 114333403.927 8  89091056.162 7  21756889.109                    21756898.098
 118172860.093 7  92082813.689 7  22487546.078                    22487558.465
 109633192.937 8  85428505.981 7  20862494.070                    20862502.215
 119240284.483 7  92914652.72945  22690642.516                    22690649.852
 119975206.403 7  93487248.19744  22830519.813                    22830530.484
 125971317.027 6  98159611.71543  23971561.961                    23971571.973
 11  8 27  2 54  0.0000000  0 10G15G21G12G26G05G25G29G02G30G18
 116398359.964 7  90700182.109 7  22149882.227                    22149891.234
 127687118.439 6  99496536.54543  24298049.961                    24298059.414
 123640846.704 6  96343502.469 6  23528050.039                    23528059.898
 113539515.590 7  88472462.94045  21605841.094                    21605850.078
 114409268.032 8  89150171.060 7  21771325.930                    21771334.652
 118235731.189 7  92131804.150 7  22499510.352                    22499522.719
 109578840.279 8  85386153.294 7  20852150.727                    20852159.211
 119289145.254 7  92952726.06445  22699940.602                    22699947.523
 120041561.649 7  93538953.58744  22843146.586                    22843157.051
 125890893.901 6  98096944.51043  23956257.469                    23956267.207
 11  8 27  2 54 30.0000000  0 10G15G21G12G26G05G25G29G02G30G18
 116313799.633 7  90634290.999 7  22133791.477                    22133799.789
 127629774.198 6  99451852.81343  24287137.492                    24287146.461
 123733797.749 6  96415931.824 6  23545737.586                    23545747.816
 113486874.723 8  88431444.13445  21595823.883                    21595832.996
 114485342.677 8  89209450.013 7  21785802.234                    21785810.930
 118298921.687 7  92181043.502 7  22511535.492                    22511547.012
 109524855.883 8  85344087.572 8  20841877.742                    20841886.621
 119338121.788 7  92990889.60745  22709260.148                    22709267.109
 120108204.660 7  93590883.20244  22855828.797                    22855838.422
 125810687.172 6  98034445.89843  23940994.547                    23941003.770
 11  8 27  2 55  0.0000000  0 10G15G21G12G26G05G25G29G02G30G18
 116229511.753 7  90568612.174 7  22117750.961                    22117760.219
 127572389.415 6  99407137.47843  24276217.602                    24276227.414
 123826786.273 6  96488390.362 6  23563433.313                    23563442.984
 113434773.630 7  88390845.93545  21585908.867                    21585918.258
 114561624.600 8  89268890.480 7  21800318.484                    21800326.750
 118362428.421 7  92230529.264 7  22523619.984                    22523632.586
 109471241.569 8  85302310.223 7  20831675.203                    20831684.238
 119387214.317 7  93029143.52644  22718602.328                    22718609.031
 120175132.001 7  93643034.37944  22868564.547                    22868574.258
 125730697.463 6  97972116.39743  23925772.758                    23925782.781
 11  8 27  2 55 30.0000000  0 10G15G21G12G26G05G25G29G02G30G18
 116145499.990 7  90503148.512 7  22101764.719                    22101773.652
 127514963.699 6  99362390.26343  24265289.836                    24265299.152
 123919810.385 6  96560876.648 6  23581134.883                    23581144.367
 113383215.520 7  88350670.82945  21576098.188                    21576106.930
 114638112.247 8  89328491.245 7  21814873.484                    21814882.070
 118426249.045 7  92280259.624 7  22535765.125                    22535776.840
 109418000.564 8  85260823.757 8  20821543.969                    20821552.992
 119436423.936 7  93067488.67944  22727966.281                    22727972.938
 120242341.203 7  93695405.15544  22881354.391                    22881364.180
 125650926.133 6  97909957.02543  23910592.688                    23910603.102
 11  8 27  2 56  0.0000000  0 10G15G21G12G26G05G25G29G02G30G18
 116061766.593 7  90437901.768 7  22085830.828                    22085840.012
 127457496.585 6  99317610.78943  24254354.586                    24254363.449
 124012866.205 6  96633387.644 6  23598842.898                    23598852.738
 113332202.596 7  88310920.53645  21566390.992                    21566400.184
 114714802.546 8  89388249.924 7  21829467.063                    21829475.816
 118490379.834 7  92330231.667 7  22547968.867                    22547980.594
 109365134.208 8  85219629.244 7  20811483.641                    20811492.406
 119485750.515 7  93105924.98445  22737353.117                    22737359.848
 120309828.357 7  93747992.55244  22894197.063                    22894206.453
 125571373.435 7  97847968.03643  23895453.813                    23895464.398
 11  8 27  2 56 30.0000000  0 10G15G21G12G26G05G25G29G02G30G18
 115978315.400 7  90372874.923 7  22069949.883                    22069958.777
 127399987.815 6  99272798.85143  24243410.922                    24243420.043
 124105951.573 6  96705921.644 6  23616556.156                    23616566.633
 113281738.272 7  88271597.73245  21556787.633                    21556796.910
 114791693.861 8  89448165.236 7  21844099.055                    21844107.551
 118554818.543 7  92380443.643 7  22560230.570                    22560243.195
 109312645.662 8  85178729.116 8  20801495.531                    20801504.359
 119535195.150 7  93144453.28844  22746761.789                    22746768.879
 120377590.992 7  93800794.61945  22907091.719                    22907101.305
 125492040.806 7  97786150.51843  23880357.406                    23880367.934
 11  8 27  2 57  0.0000000  0 10G15G21G12G26G05G25G29G02G30G18
 115895149.339 7  90308070.252 7  22054124.070                    22054133.484
 127342437.425 6  99227954.49443  24232458.656                    24232467.813
 124199063.523 7  96778476.372 6  23634275.969                    23634285.539
 113231825.649 8  88232704.82445  21547289.289                    21547298.738
 114868783.771 8  89508235.301 7  21858768.961                    21858777.891
 118619562.172 7  92430893.230 7  22572551.320                    22572563.207
 109260537.239 8  85138125.185 7  20791579.422                    20791587.867
 119584758.214 7  93183073.87744  22756192.781                    22756200.434
 120445625.974 7  93853808.87445  22920037.977                    22920048.125
 125412928.949 6  97724505.08243  23865303.156                    23865312.973
 11  8 27  2 57 30.0000000  0 10G15G21G12G26G05G25G29G02G30G18
 115812270.981 7  90243489.767 7  22038352.711                    22038361.988
 127284844.590 6  99183077.02543  24221499.734                    24221508.223
 124292198.197 7  96851048.810 6  23651998.633                    23652008.316
 113182466.560 7  88194243.23845  21537896.281                    21537906.012
 114946069.611 8  89568458.044 7  21873475.906                    21873484.570
 118684607.211 7  92481577.660 7  22584928.977                    22584941.008
 109208810.356 8  85097818.569 7  20781736.016                    20781744.582
 119634440.053 7  93221787.01744  22765647.133                    22765654.527
 120513929.569 7  93907032.45444  22933036.563                    22933046.102
 125334038.516 6  97663032.14243  23850290.133                    23850300.199
 11  8 27  2 58  0.0000000  0 10G15G21G12G26G05G25G29G02G30G18
 115729683.442 7  90179135.893 7  22022637.008                    22022646.371
 127227209.270 7  99138166.48443  24210531.461                    24210541.137
 124385352.933 7  96923636.875 6  23669725.586                    23669735.539
 113133664.074 8  88156215.36545  21528609.867                    21528619.141
 115023548.732 8  89628831.392 7  21888219.305                    21888227.695
 118749950.670 7  92532494.634 7  22597363.273                    22597375.238
 109157467.315 8  85057811.041 7  20771965.891                    20771974.391
 119684240.797 7  93260592.80945  22775124.258                    22775131.004
 120582498.666 7  93960462.91144  22946084.320                    22946094.305
 125255370.476 6  97601732.49743  23835320.563                    23835330.195
 11  8 27  2 58 30.0000000  0 10G15G21G12G26G05G25G29G02G30G18
 115647389.864 7  90115011.078 7  22006976.828                    22006986.309
 127169530.751 6  99093222.27543  24199555.625                    24199564.945
 124478524.805 7  96996238.306 6  23687454.992                    23687464.637
 113085420.710 7  88118623.17945  21519429.039                    21519438.867
 115101219.016 8  89689353.693 7  21902999.820                    21903007.828
 118815589.594 7  92583641.840 7  22609854.086                    22609865.770
 109106510.233 8  85018104.257 7  20762268.930                    20762277.668
 119734161.254 7  93299491.86344  22784623.820                    22784630.750
 120651330.099 7  94014097.79044  22959182.125                    22959192.707
 125176925.562 6  97540606.71743  23820391.867                    23820402.289
 11  8 27  2 59  0.0000000  0 10G15G21G12G26G05G25G29G02G30G18
 115565393.716 7  90051118.015 7  21991373.258                    21991382.887
 127111809.339 6  99048244.64343  24188571.625                    24188581.078
 124571711.544 7  97068851.306 6  23705187.477                    23705197.516
 113037739.660 8  88081469.15345  21510356.063                    21510365.605
 115179078.547 8  89750023.446 7  21917815.641                    21917824.484
 118881521.408 7  92635017.282 7  22622400.609                    22622412.367
 109055942.382 8  84978700.769 8  20752646.195                    20752654.734
 119784202.086 7  93338484.73044  22794145.914                    22794153.285
 120720421.166 7  94067934.97644  22972330.086                    22972339.680
 125098705.067 6  97479655.78943  23805507.852                    23805517.578
 11  8 27  2 59 30.0000000  0 10G15G21G12G26G05G25G29G02G30G18
 115483697.839 7  89987458.944 7  21975827.414                    21975836.172
 127054044.662 6  99003233.27543  24177579.602                    24177588.438
 124664909.934 7  97141473.380 6  23722923.000                    23722932.461
 112990623.787 8  88044755.53445  21501389.938                    21501399.766
 115257124.601 8  89810838.556 7  21932667.734                    21932676.000
 118947742.908 7  92686618.448 7  22635002.102                    22635014.035
 109005765.541 8  84939601.970 8  20743097.953                    20743106.734
 119834363.829 7  93377571.80244  22803691.539                    22803699.203
 120789768.430 7  94121971.81144  22985525.656                    22985535.648
 125020709.574 6  97418880.20143  23790665.695                    23790675.656
 11  8 27  3  0  0.0000000  0 10G15G21G12G26G05G25G29G02G30G18
 115402305.000 7  89924036.009 7  21960338.492                    21960347.184
 126996236.328 7  98958187.90143  24166578.563                    24166587.902
 124758117.000 7  97214102.216 6  23740660.070                    23740668.762
 112944075.277 7  88008484.00345  21492532.023                    21492541.359
 115335354.917 8  89871797.247 7  21947554.031                    21947562.715
 119014250.998 7  92738442.935 7  22647657.844                    22647670.094
 108955982.010 8  84900809.656 8  20733624.102                    20733633.195
 119884646.740 7  93416753.31144  22813260.406                    22813267.594
 120859368.691 7  94176205.76844  22998770.984                    22998781.043
 124942939.939 6  97358280.59343  23775866.414                    23775876.668
 11  8 27  3  0 30.0000000  0 10G15G21G12G26G05G25G29G02G30G18
 115321218.351 7  89860851.644 7  21944908.391                    21944917.848
 126938384.142 7  98913108.36643  24155569.883                    24155579.254
 124851330.026 7  97286735.705 6  23758397.703                    23758407.766
 112898097.019 8  87972656.82545  21483782.500                    21483792.207
 115413767.507 8  89932897.973 7  21962475.898                    21962483.992
 119081042.818 7  92790488.509 7  22660367.984                    22660380.281
 108906594.142 8  84862325.634 8  20724226.148                    20724234.922
 119935051.528 7  93456029.77044  22822851.586                    22822858.617
 120929218.968 7  94230634.52644  23012062.930                    23012072.781
 124865396.887 6  97297857.54743  23761109.695                    23761120.633
 11  8 27  3  1  0.0000000  0 10G15G21G12G26G05G25G29G02G30G18
 115240441.192 7  89797908.457 7  21929537.180                    21929546.195
 126880487.734 7  98867994.33843  24144552.734                    24144561.188
 124944546.041 7  97359371.561 6  23776136.242                    23776146.297
 112852691.737 8  87937276.13645  21475142.305                    21475151.652
 115492359.867 8  89994138.785 7  21977431.422                    21977439.688
 119148115.423 7  92842752.883 7  22673131.492                    22673143.477
 108857604.198 8  84824151.687 7  20714903.438                    20714912.324
 119985578.858 7  93495401.71644  22832466.750                    22832473.664
 120999316.104 7  94285255.68144  23025401.867                    23025411.746
 124788081.462 6  97237611.88943  23746397.281                    23746407.789
 11  8 27  3  1 30.0000000  0 10G15G21G12G26G05G25G29G02G30G18
 115159976.221 7  89735208.532 7  21914225.219                    21914233.887
 126822546.989 7  98822845.78244  24133526.500                    24133535.906
 125037762.229 7  97432007.503 6  23793874.289                    23793884.902
 112807861.735 8  87902343.70145  21466611.844                    21466620.773
 115571129.464 8  90055517.698 7  21992420.664                    21992428.980
 119215465.465 7  92895233.437 7  22685947.789                    22685960.266
 108809013.963 8  84786289.196 7  20705657.391                    20705665.695
 120036228.919 7  93534869.31444  22842105.266                    22842112.449
 121069656.592 7  94340066.44744  23038787.180                    23038797.105
 124710993.733 6  97177543.62943  23731728.094                    23731738.105
 11  8 27  3  2  0.0000000  0 10G15G21G12G26G05G25G29G02G30G18
 115079826.735 7  89672754.427 7  21898973.070                    21898981.910
 126764561.374 7  98777662.26844  24122492.203                    24122501.313
 125130975.653 7  97504641.305 6  23811612.688                    23811622.730
 112763609.850 8  87867861.76145  21458190.297                    21458199.922
 115650074.365 8  90117033.192 7  22007443.445                    22007451.836
 119283090.141 7  92947927.988 7  22698816.195                    22698828.137
 108760826.109 8  84748740.257 8  20696486.813                    20696495.613
 120087002.403 7  93574433.06644  22851766.914                    22851774.309
 121140237.551 7  94395064.56944  23052218.375                    23052228.289
 124634135.447 6  97117654.16243  23717102.227                    23717112.383
 11  8 27  3  2 30.0000000  0 10G15G21G12G26G05G25G29G02G30G18
 114999995.232 7  89610548.110 7  21883781.383                    21883790.266
 126706530.718 7  98732443.65043  24111449.172                    24111457.996
 125224183.182 7  97577270.515 6  23829349.633                    23829359.699
 112719938.383 7  87833832.07745  21449879.938                    21449889.441
 115729191.963 7  90178683.278 7  22022499.094                    22022507.188
 119350986.201 7  93000834.008 7  22711736.164                    22711748.473
 108713042.449 8  84711506.269 8  20687394.469                    20687402.820
 120137899.785 7  93614093.37044  22861452.570                    22861459.840
 121211055.491 7  94450247.38644  23065694.242                    23065703.801
 124557506.749 7  97057943.60243  23702520.367                    23702530.773
 11  8 27  3  3  0.0000000  0 10G15G21G12G26G05G25G29G02G30G18
 114920485.176 7  89548592.274 7  21868651.211                    21868660.063
 126648454.759 7  98687189.74444  24100397.977                    24100406.668
 125317382.417 7  97649893.233 6  23847084.758                    23847094.887
 112676850.098 8  87800256.82745  21441680.500                    21441690.219
 115808479.945 7  90240466.131 7  22037586.555                    22037595.215
 119419150.828 7  93053949.291 7  22724707.867                    22724719.695
 108665665.553 8  84674589.236 8  20678378.906                    20678387.637
 120188921.742 7  93653850.72744  22871161.719                    22871169.223
 121282107.501 6  94505612.57244  23079215.039                    23079225.418
 124481108.629 6  96998412.68643  23687982.281                    23687992.230
 11  8 27  3  3 30.0000000  0 10G15G21G12G26G05G25G29G02G30G18
 114841299.649 7  89486889.312 7  21853582.570                    21853591.266
 126590333.517 7  98641900.52943  24089338.211                    24089346.602
 125410570.361 7  97722507.165 6  23864817.461                    23864828.148
 112634347.465 8  87767137.92945  21433592.898                    21433601.941
 115887936.255 8  90302380.138 7  22052706.797                    22052715.250
 119487580.980 7  93107271.494 7  22737729.805                    22737741.473
 108618697.533 8  84637990.802 8  20669440.797                    20669449.605
 120240068.622 7  93693705.42244  22880894.602                    22880902.656
 121353390.337 7  94561157.65144  23092779.203                    23092789.680
 124404942.140 6  96939062.26743  23673488.969                    23673498.254
 11  8 27  3  4  0.0000000  0 10G15G21G12G26G05G25G29G02G30G18
 114762441.341 7  89425441.333 7  21838576.547                    21838585.117
 126532166.753 7  98596575.87444  24078268.852                    24078278.148
 125503744.319 7  97795110.188 6  23882547.250                    23882558.340
 112592433.030 8  87734477.37745  21425616.133                    21425626.195
 115967558.924 8  90364423.774 7  22067858.398                    22067867.395
 119556273.584 7  93160798.208 7  22750801.594                    22750813.977
 108572140.829 8  84601712.878 8  20660581.664                    20660589.996
 120291340.899 7  93733657.85544  22890651.281                    22890659.242
 121424900.859 7  94616880.13644  23106388.102                    23106398.184
 124329007.597 6  96879892.60343  23659038.953                    23659048.121
 11  8 27  3  4 30.0000000  0 10G15G21G12G26G05G25G29G02G30G18
 114683912.878 7  89364250.368 7  21823633.047                    21823641.496
 126473954.024 7  98551215.35443  24067191.078                    24067200.156
 125596900.930 6  97867699.691 6  23900274.898                    23900285.934
 112551108.731 7  87702276.65245  21417752.445                    21417762.109
 116047345.007 8  90426594.748 7  22083041.430                    22083050.348
 119625225.175 7  93214526.710 7  22763922.695                    22763934.629
 108525996.787 8  84565756.499 8  20651800.820                    20651809.348
 120342738.918 7  93773708.25245  22900432.398                    22900439.391
 121496635.429 7  94672777.18344  23120038.563                    23120048.594
 124253305.404 7  96820903.95043  23644633.031                    23644642.230
 11  8 27  3  5  0.0000000  0 10G15G21G12G26G05G25G29G02G30G18
 114605718.063 7  89303319.390 7  21808753.133                    21808761.516
 126415695.325 6  98505819.03544  24056105.359                    24056113.293
 125690037.775 6  97940273.796 6  23917998.305                    23918008.922
 112510377.767 8  87670538.27845  21410001.797                    21410011.117
 116127292.763 8  90488891.698 7  22098254.617                    22098263.504
 119694433.258 7  93268455.083 7  22777092.008                    22777104.234
 108480268.347 8  84530123.970 7  20643098.734                    20643107.168
 120394263.608 7  93813857.33144  22910237.148                    22910244.430
 121568591.442 7  94728846.79544  23133731.281                    23133741.672
 124177837.099 7  96762097.56943  23630271.492                    23630280.414
 11  8 27  3  5 30.0000000  0 10G15G21G12G26G05G25G29G02G30G18
 114527859.442 7  89242650.373 7  21793936.992                    21793945.277
 126357390.564 7  98460386.83744  24045009.875                    24045018.527
 125783151.976 6  98012830.255 6  23935718.039                    23935728.023
 112470242.251 8  87639263.88345  21402364.445                    21402373.660
 116207399.600 8  90551312.618 7  22113498.508                    22113506.910
 119763894.662 7  93322580.857 7  22790310.336                    22790321.969
 108434957.563 8  84494816.888 8  20634476.336                    20634484.871
 120445915.338 7  93854105.44044  22920066.086                    22920072.762
 121640765.528 7  94785086.34344  23147464.914                    23147475.527
 124102603.058 7  96703473.73343  23615954.789                    23615964.074
 11  8 27  3  6  0.0000000  0 10G15G21G12G26G05G25G29G02G30G18
 114450340.228 7  89182245.842 7  21779185.492                    21779194.227
 126299039.373 7  98414918.47543  24033905.664                    24033914.520
 125876240.861 6  98085367.016 6  23953431.883                    23953442.238
 112430704.635 8  87608455.38245  21394840.602                    21394849.945
 116287663.508 8  90613855.930 7  22128772.523                    22128781.102
 119833606.346 7  93376901.632 7  22803576.039                    22803587.367
 108390066.624 8  84459836.959 8  20625934.148                    20625942.266
 120497694.751 7  93894453.00644  22929919.070                    22929925.922
 121713154.618 7  94841493.41344  23161240.922                    23161250.832
 124027603.866 7  96645032.91043  23601682.281                    23601691.480
 11  8 27  3  6 30.0000000  0 10G15G21G12G26G05G25G29G02G30G18
 114373163.034 7  89122107.823 7  21764499.234                    21764507.898
 126240641.191 7  98369413.47943  24022792.945                    24022801.430
 125969301.432 6  98157881.707 6  23971140.375                    23971150.953
 112391767.237 8  87578114.59245  21387431.039                    21387440.266
 116368082.329 8  90676519.943 7  22144075.828                    22144084.500
 119903565.107 7  93431414.945 7  22816888.828                    22816900.734
 108345597.454 8  84425185.678 8  20617471.867                    20617480.059
 120549602.240 7  93934900.37344  22939796.992                    22939804.129
 121785755.255 7  94898065.34744  23175055.797                    23175065.977
 123952840.545 7  96586775.87043  23587455.820                    23587464.426
 11  8 27  3  7  0.0000000  0 10G15G21G12G26G05G25G29G02G30G18
 114296331.098 7  89062238.814 7  21749878.633                    21749887.621
 126182196.147 7  98323871.98244  24011671.016                    24011679.840
 126062331.002 7  98230372.218 6  23988843.938                    23988853.973
 112353432.545 8  87548243.43545  21380136.047                    21380145.422
 116448653.911 7  90739302.995 7  22159408.070                    22159417.125
 119973768.013 7  93486118.490 7  22830247.789                    22830260.195
 108301552.433 8  84390864.905 8  20609090.313                    20609098.762
 120601638.309 7  93975447.96844  22949699.000                    22949706.305
 121858564.512 7  94954799.82744  23188910.859                    23188921.305
 123878313.814 7  96528703.15843  23573274.414                    23573283.035
 11  8 27  3  7 30.0000000  0 10G15G21G12G26G05G25G29G02G30G18
 114219847.135 7  89002640.960 7  21735324.102                    21735332.758
 126123704.160 7  98278293.87644  24000540.820                    24000549.297
 126155326.820 7  98302836.448 6  24006540.820                    24006550.813
 112315702.305 8  87518843.27945  21372956.055                    21372965.648
 116529375.756 7  90802203.135 7  22174768.797                    22174777.449
 120044211.707 7  93541009.669 7  22843652.828                    22843664.570
 108257933.435 8  84356876.099 8  20600789.750                    20600798.387
 120653803.359 7  94016096.04944  22959625.273                    22959632.883
 121931578.814 7  95011694.08344  23202805.016                    23202815.805
 123804023.827 7  96470814.96343  23559136.742                    23559146.223
 11  8 27  3  8  0.0000000  0 10G15G21G12G26G05G25G29G02G30G18
 114143713.975 7  88943316.461 7  21720836.289                    21720844.941
 126065164.865 7  98232678.94744  23989400.633                    23989409.605
 126248285.889 6  98375272.044 6  24024230.492                    24024240.465
 112278579.245 8  87489916.24845  21365891.750                    21365901.176
 116610245.695 7  90865218.668 7  22190157.641                    22190166.348
 120114893.370 7  93596086.254 7  22857103.375                    22857115.078
 108214742.648 8  84323220.966 8  20592571.063                    20592579.309
 120706097.999 7  94056845.10444  22969577.289                    22969584.531
 122004795.270 7  95068745.86144  23216737.977                    23216748.387
 123729971.533 7  96413111.97643  23545044.773                    23545054.316
 11  8 27  3  8 30.0000000  0 10G15G21G12G26G05G25G29G02G30G18
 114067934.950 7  88884267.914 7  21706416.250                    21706424.695
 126006578.189 7  98187027.06443  23978252.188                    23978261.520
 126341205.493 7  98447676.895 6  24041912.172                    24041921.789
 112242065.791 8  87461464.24845  21358943.813                    21358952.566
 116691261.922 7  90928348.196 7  22205574.656                    22205583.227
 120185810.129 7  93651346.048 7  22870598.078                    22870610.352
 108171982.710 8  84289901.558 8  20584434.086                    20584442.211
 120758523.183 7  94097695.89144  22979553.117                    22979560.516
 122078210.933 7  95125952.87344  23230708.305                    23230718.617
 123656157.922 6  96355594.96243  23530998.414                    23531008.086
 11  8 27  3  9  0.0000000  0 10G15G21G12G26G05G25G29G02G30G18
 113992512.827 7  88825497.466 7  21692063.648                    21692072.422
 125947944.256 7  98141338.37743  23967094.188                    23967103.305
 126434082.886 6  98520048.865 6  24059586.297                    24059595.602
 112206163.891 8  87433488.78145  21352111.820                    21352120.926
 116772421.694 7  90991589.579 7  22221018.961                    22221027.176
 120256958.577 7  93706786.380 7  22884137.195                    22884149.387
 108129655.263 8  84256919.151 8  20576379.258                    20576387.555
 120811078.943 7  94138648.41044  22989554.430                    22989561.672
 122151822.155 7  95183312.25644  23244716.813                    23244726.445
 123582583.383 7  96298264.23144  23516998.070                    23517007.410
 11  8 27  3  9 30.0000000  0 10G15G21G12G26G05G25G29G02G30G18
 113917450.661 7  88767007.516 7  21677779.609                    21677788.449
 125889262.575 7  98095612.47344  23955927.695                    23955935.707
 126526915.453 7  98592385.892 6  24077251.859                    24077261.242
 112170875.625 8  87405991.46345  21345396.375                    21345405.785
 116853722.981 7  91054941.234 7  22236490.195                    22236498.727
 120328335.569 7  93762404.796 7  22897719.766                    22897732.395
 108087762.121 8  84224275.164 8  20568407.445                    20568415.570
 120863765.760 7  94179703.06844  22999580.594                    22999587.574
 122225625.824 7  95240821.59744  23258761.008                    23258770.664
 123509248.350 6  96241120.13344  23503042.648                    23503052.316
 11  8 27  3 10  0.0000000  0 10G15G21G12G26G05G25G29G02G30G18
 113842750.748 7  88708799.830 7  21663564.969                    21663573.828
 125830532.915 7  98049849.18844  23944751.227                    23944760.078
 126619700.116 7  98664685.556 6  24094907.602                    24094917.410
 112136203.192 8  87378974.01845  21338798.695                    21338807.859
 116935163.438 7  91118401.325 7  22251987.570                    22251996.309
 120399937.928 7  93818198.833 7  22911345.398                    22911357.445
 108046305.097 8  84191971.004 8  20560517.922                    20560526.648
 120916583.942 7  94220860.08844  23009631.305                    23009639.242
 122299618.495 7  95298478.21844  23272841.195                    23272850.512
 123436153.329 7  96184163.04344  23489133.648                    23489142.918
 11  8 27  3 10 30.0000000  0 10G15G21G12G26G05G25G29G02G30G18
 113768416.350 8  88650876.955 7  21649419.414                    21649428.438
 125771755.115 7  98004048.37044  23933566.602                    23933574.695
 126712434.630 6  98736946.145 6  24112554.328                    24112564.281
 112102149.127 7  87352438.41745  21332318.273                    21332327.105
 117016741.237 7  91181968.440 7  22267511.297                    22267519.836
 120471762.832 7  93874166.260 7  22925013.109                    22925025.066
 108005287.103 8  84160008.964 8  20552712.688                    20552721.383
 120969534.490 7  94262120.23144  23019707.391                    23019715.281
 122373797.327 6  95356279.87144  23286956.320                    23286966.832
 123363299.232 7  96127393.71944  23475269.680                    23475278.844
 11  8 27  3 11  0.0000000  0 10G15G21G12G26G05G25G29G02G30G18
 113694450.725 8  88593241.439 7  21635344.172                    21635352.742
 125712929.594 7  97958210.36944  23922372.383                    23922381.066
 126805115.981 6  98809165.326 6  24130191.359                    24130201.188
 112068715.176 8  87326386.03445  21325956.063                    21325965.039
 117098454.033 7  91245640.751 7  22283060.992                    22283069.211
 120543807.305 7  93930304.788 7  22938723.063                    22938734.711
 107964710.241 8  84128390.654 8  20544990.859                    20544999.566
 121022618.030 7  94303484.01544  23029808.633                    23029816.863
 122448159.232 7  95414224.19444  23301106.961                    23301117.750
 123290686.831 7  96070812.70644  23461451.359                    23461460.828
 11  8 27  3 11 30.0000000  0 10G15G21G12G26G05G25G29G02G30G18
 113620855.948 7  88535894.903 7  21621339.688                    21621348.492
 125654055.282 7  97912334.37544  23911169.008                    23911177.637
 126897741.002 6  98881340.621 6  24147817.320                    24147827.453
 112035903.569 8  87300818.58245  21319711.844                    21319721.410
 117180299.564 7  91309416.478 7  22298635.750                    22298643.832
 120616067.762 7  93986611.615 7  22952473.180                    22952485.953
 107924575.447 8  84097116.809 8  20537353.617                    20537362.344
 121075834.556 7  94344951.42844  23039935.359                    23039943.070
 122522700.549 7  95472308.32144  23315292.000                    23315302.258
 123218316.483 6  96014420.33044  23447679.977                    23447688.973
 11  8 27  3 12  0.0000000  0 10G15G21G12G26G05G25G29G02G30G18
 113547635.351 8  88478839.931 7  21607406.008                    21607415.145
 125595132.868 7  97866420.89844  23899956.242                    23899965.180
 126990307.214 6  98953470.087 6  24165432.164                    24165441.770
 112003716.318 8  87275737.64645  21313586.828                    21313596.160
 117262276.013 7  91373294.225 7  22314235.141                    22314243.844
 120688541.630 7  94043084.760 7  22966265.109                    22966277.180
 107884885.779 8  84066189.819 8  20529801.195                    20529809.309
 121129184.892 7  94386523.11844  23050087.922                    23050094.902
 122597418.614 7  95530530.16944  23329510.469                    23329521.211
 123146188.889 7  95958217.08444  23433954.992                    23433964.016
 11  8 27  3 12 30.0000000  0 10G15G21G12G26G05G25G29G02G30G18
 113474791.689 8  88422078.674 7  21593544.273                    21593552.941
 125536162.016 6  97820469.63344  23888734.078                    23888742.727
 127082812.115 6  99025551.810 6  24183035.125                    24183045.102
 111972155.567 8  87251144.88545  21307581.313                    21307590.152
 117344380.942 7  91437272.098 7  22329859.453                    22329867.223
 120761225.436 7  94099721.462 7  22980096.305                    22980108.668
 107845642.642 8  84035610.777 8  20522333.523                    20522341.563
 121182669.223 7  94428199.19844  23060266.055                    23060272.496
 122672309.806 6  95588886.95144  23343762.406                    23343772.230
 123074304.345 7  95902203.24544  23420275.820                    23420284.836
 11  8 27  3 13  0.0000000  0 10G15G21G12G26G05G25G29G02G30G18
 113402327.576 8  88365613.170 7  21579755.070                    21579763.531
 125477142.776 7  97774480.68644  23877503.195                    23877511.559
 127175252.943 6  99097583.567 6  24200626.039                    24200636.164
 111941223.017 8  87227041.64345  21301694.984                    21301704.051
 117426612.251 7  91501348.449 7  22345507.516                    22345515.605
 120834116.049 8  94156519.332 7  22993967.102                    22993979.176
 107806848.298 8  84005381.437 8  20514951.359                    20514959.578
 121236288.175 7  94469980.21644  23070469.047                    23070476.391
 122747370.931 7  95647376.11844  23358045.219                    23358055.688
 123002663.483 7  95846379.28643  23406642.445                    23406652.063
 11  8 27  3 13 30.0000000  0 10G15G21G12G26G05G25G29G02G30G18
 113330246.575 8  88309446.197 7  21566038.367                    21566047.207
 125418075.182 7  97728454.06544  23866263.773                    23866271.805
 127267627.300 6  99169563.504 6  24218205.242                    24218214.824
 111910921.223 8  87203429.89445  21295928.719                    21295937.949
 117508968.112 7  91565521.855 7  22361178.938                    22361187.469
 120907210.944 7  94213476.374 7  23007876.750                    23007888.543
 107768505.567 8  83975504.003 8  20507654.461                    20507662.863
 121290042.792 7  94511866.92544  23080698.805                    23080705.508
 122822599.318 7  95705995.60144  23372361.289                    23372371.238
 122931267.367 7  95790746.00344  23393056.273                    23393064.863
 11  8 27  3 14  0.0000000  0 10G15G21G12G26G05G25G29G02G30G18
 113258550.374 8  88253579.065 7  21552394.766                    21552403.305
 125358958.199 7  97682388.97344  23855013.578                    23855022.156
 127359932.141 6  99241489.307 6  24235769.539                    24235779.270
 111881251.432 8  87180310.60645  21290282.445                    21290291.738
 117591445.818 7  91629790.205 7  22376874.148                    22376882.293
 120980506.217 7  94270589.563 7  23021824.016                    23021835.793
 107730614.834 8  83945978.789 8  20500444.180                    20500452.676
 121343932.795 7  94553859.13844  23090953.453                    23090960.340
 122897991.047 6  95764742.38044  23386707.961                    23386718.008
 122860115.770 7  95735303.27543  23379516.219                    23379525.211
